[[{"header":{"parameterUnit":"m.s-1","parameterCategory":1,"la1":30.6,"la2":28.766,"lo1":-90.7593,"lo2":-88.6598,"dy":0.0162,"dx":0.0183,"nx":116,"ny":114,"refTime":"2023-11-15T18:00:00:Z","depth":0,"parameterNumber":2,"parameterNumberName":"U-component_of_WINDS"},"data":[0.0,0.0,0.0,0.0,0.0,0.0,0.0,0.0,0.0,0.0,0.0,0.0,0.0,0.0,0.0,0.0,0.0,0.0,0.0,0.0,0.0,0.0,0.0,0.0,0.0,0.0,0.0,0.0,0.0,0.0,0.0,0.0,0.0,0.0,0.0,0.0,0.0,0.0,0.0,0.0,0.0,0.0,0.0,0.0,0.0,0.0,0.0,0.0,0.0,0.0,0.0,0.0,0.0,0.0,0.0,0.0,0.0,0.0,0.0,0.0,0.0,0.0,0.0,0.0,0.0,0.0,0.0,0.0,0.0,0.0,0.0,0.0,0.0,0.0,0.0,0.0,0.0,0.0,0.0,0.0,0.0,0.0,0.0,0.0,0.0,0.0,0.0,0.0,0.0,0.0,0.0,0.0,0.0,0.0,0.0,0.0,0.0,0.0,0.0,0.0,0.0,0.0,0.0,0.0,0.0,0.0,0.0,0.0,0.0,0.0,0.0,0.0,0.0,0.0,0.0,0.0,0.0,0.0,0.0,0.0,0.0,0.0,0.0,0.0,0.0,0.0,0.0,0.0,0.0,0.0,0.0,0.0,0.0,0.0,0.0,0.0,0.0,0.0,0.0,0.0,0.0,0.0,0.0,0.0,0.0,0.0,0.0,0.0,0.0,0.0,0.0,0.0,0.0,0.0,0.0,0.0,0.0,0.0,0.0,0.0,0.0,0.0,0.0,0.0,0.0,0.0,0.0,0.0,0.0,0.0,0.0,0.0,0.0,0.0,0.0,0.0,0.0,0.0,0.0,0.0,0.0,0.0,0.0,0.0,0.0,0.0,0.0,0.0,0.0,0.0,0.0,0.0,0.0,0.0,0.0,0.0,0.0,0.0,0.0,0.0,0.0,0.0,0.0,0.0,0.0,0.0,0.0,0.0,0.0,0.0,0.0,0.0,0.0,0.0,0.0,0.0,0.0,0.0,0.0,0.0,0.0,0.0,0.0,0.0,0.0,0.0,0.0,0.0,0.0,0.0,0.0,0.0,0.0,0.0,0.0,0.0,0.0,0.0,0.0,0.0,0.0,0.0,0.0,0.0,0.0,0.0,0.0,0.0,0.0,0.0,0.0,0.0,0.0,0.0,0.0,0.0,0.0,0.0,0.0,0.0,0.0,0.0,0.0,0.0,0.0,0.0,0.0,0.0,0.0,0.0,0.0,0.0,0.0,0.0,0.0,0.0,0.0,0.0,0.0,0.0,0.0,0.0,0.0,0.0,0.0,0.0,0.0,0.0,0.0,0.0,0.0,0.0,0.0,0.0,0.0,0.0,0.0,0.0,0.0,0.0,0.0,0.0,0.0,0.0,0.0,0.0,0.0,0.0,0.0,0.0,0.0,0.0,0.0,0.0,0.0,0.0,0.0,0.0,0.0,0.0,0.0,0.0,0.0,0.0,0.0,0.0,0.0,0.0,0.0,0.0,0.0,0.0,0.0,0.0,0.0,0.0,0.0,0.0,0.0,0.0,0.0,0.0,0.0,0.0,0.0,0.0,0.0,0.0,0.0,0.0,0.0,0.0,0.0,0.0,0.0,0.0,0.0,0.0,0.0,0.0,0.0,0.0,0.0,0.0,0.0,0.0,0.0,0.0,0.0,0.0,0.0,0.0,0.0,0.0,0.0,0.0,0.0,0.0,0.0,0.0,0.0,0.0,0.0,0.0,0.0,0.0,0.0,0.0,0.0,0.0,0.0,0.0,0.0,0.0,0.0,0.0,0.0,0.0,0.0,0.0,0.0,0.0,0.0,0.0,0.0,0.0,0.0,0.0,0.0,0.0,0.0,0.0,0.0,0.0,0.0,0.0,0.0,0.0,0.0,0.0,0.0,0.0,0.0,0.0,0.0,0.0,0.0,0.0,0.0,0.0,0.0,0.0,0.0,0.0,0.0,0.0,0.0,0.0,0.0,0.0,0.0,0.0,0.0,0.0,0.0,0.0,0.0,0.0,0.0,0.0,0.0,0.0,0.0,0.0,0.0,0.0,0.0,0.0,0.0,0.0,0.0,0.0,0.0,0.0,0.0,0.0,0.0,0.0,0.0,0.0,0.0,0.0,0.0,0.0,0.0,0.0,0.0,0.0,0.0,0.0,0.0,0.0,0.0,0.0,0.0,0.0,0.0,0.0,0.0,0.0,0.0,0.0,0.0,0.0,0.0,0.0,0.0,0.0,0.0,0.0,0.0,0.0,0.0,0.0,0.0,0.0,0.0,0.0,0.0,0.0,0.0,0.0,0.0,0.0,0.0,0.0,0.0,0.0,0.0,0.0,0.0,0.0,0.0,0.0,0.0,0.0,0.0,0.0,0.0,0.0,0.0,0.0,0.0,0.0,0.0,0.0,0.0,0.0,0.0,0.0,0.0,0.0,0.0,0.0,0.0,0.0,0.0,0.0,0.0,0.0,0.0,0.0,0.0,0.0,0.0,0.0,0.0,0.0,0.0,0.0,0.0,0.0,0.0,0.0,0.0,0.0,0.0,0.0,0.0,0.0,0.0,0.0,0.0,0.0,0.0,0.0,0.0,0.0,0.0,0.0,0.0,0.0,0.0,0.0,0.0,0.0,0.0,0.0,0.0,0.0,0.0,0.0,0.0,0.0,0.0,0.0,0.0,0.0,0.0,0.0,0.0,0.0,0.0,0.0,0.0,0.0,0.0,0.0,0.0,0.0,0.0,0.0,0.0,0.0,0.0,0.0,0.0,0.0,0.0,0.0,0.0,0.0,0.0,0.0,0.0,0.0,0.0,0.0,0.0,0.0,0.0,0.0,0.0,0.0,0.0,0.0,0.0,0.0,0.0,0.0,0.0,0.0,0.0,0.0,0.0,0.0,0.0,0.0,0.0,0.0,0.0,0.0,0.0,0.0,0.0,0.0,0.0,0.0,0.0,0.0,0.0,0.0,0.0,0.0,0.0,0.0,0.0,0.0,0.0,0.0,0.0,0.0,0.0,0.0,0.0,0.0,0.0,0.0,0.0,0.0,0.0,0.0,0.0,0.0,0.0,0.0,0.0,0.0,0.0,0.0,0.0,0.0,0.0,0.0,0.0,0.0,0.0,0.0,0.0,0.0,0.0,0.0,0.0,0.0,0.0,0.0,0.0,0.0,0.0,0.0,0.0,0.0,0.0,0.0,0.0,0.0,0.0,0.0,0.0,0.0,0.0,0.0,0.0,0.0,0.0,0.0,0.0,0.0,0.0,0.0,0.0,0.0,0.0,0.0,0.0,0.0,0.0,0.0,0.0,0.0,0.0,0.0,0.0,0.0,0.0,0.0,0.0,0.0,0.0,0.0,0.0,0.0,0.0,0.0,0.0,0.0,0.0,0.0,0.0,0.0,0.0,0.0,0.0,0.0,0.0,0.0,0.0,0.0,0.0,0.0,0.0,0.0,0.0,0.0,0.0,0.0,0.0,0.0,0.0,0.0,0.0,0.0,0.0,0.0,0.0,0.0,0.0,0.0,0.0,0.0,0.0,0.0,0.0,0.0,0.0,0.0,0.0,0.0,0.0,0.0,0.0,0.0,0.0,0.0,0.0,0.0,0.0,0.0,0.0,0.0,0.0,0.0,0.0,0.0,0.0,0.0,0.0,0.0,0.0,0.0,0.0,0.0,0.0,0.0,0.0,0.0,0.0,0.0,0.0,0.0,0.0,0.0,0.0,0.0,0.0,0.0,0.0,0.0,0.0,0.0,0.0,0.0,0.0,0.0,0.0,0.0,0.0,0.0,0.0,0.0,0.0,0.0,0.0,0.0,0.0,0.0,0.0,0.0,0.0,0.0,0.0,0.0,0.0,0.0,0.0,0.0,0.0,0.0,0.0,0.0,0.0,0.0,0.0,0.0,0.0,0.0,0.0,0.0,0.0,0.0,0.0,0.0,0.0,0.0,0.0,0.0,0.0,0.0,0.0,0.0,0.0,0.0,0.0,0.0,0.0,0.0,0.0,0.0,0.0,0.0,0.0,0.0,0.0,0.0,0.0,0.0,0.0,0.0,0.0,0.0,0.0,0.0,0.0,0.0,0.0,0.0,0.0,0.0,0.0,0.0,0.0,0.0,0.0,0.0,0.0,0.0,0.0,0.0,0.0,0.0,0.0,0.0,0.0,0.0,0.0,0.0,0.0,0.0,0.0,0.0,0.0,0.0,0.0,0.0,0.0,0.0,0.0,0.0,0.0,0.0,0.0,0.0,0.0,0.0,0.0,0.0,0.0,0.0,0.0,0.0,0.0,0.0,0.0,0.0,0.0,0.0,0.0,0.0,0.0,0.0,0.0,0.0,0.0,0.0,0.0,0.0,0.0,0.0,0.0,0.0,0.0,0.0,0.0,0.0,0.0,0.0,0.0,0.0,0.0,0.0,0.0,0.0,0.0,0.0,0.0,0.0,0.0,0.0,0.0,0.0,0.0,0.0,0.0,0.0,0.0,0.0,0.0,0.0,0.0,0.0,0.0,0.0,0.0,0.0,0.0,0.0,0.0,0.0,0.0,0.0,0.0,0.0,0.0,0.0,0.0,0.0,0.0,0.0,0.0,0.0,0.0,0.0,0.0,0.0,0.0,0.0,0.0,0.0,0.0,0.0,0.0,0.0,0.0,0.0,0.0,0.0,0.0,0.0,0.0,0.0,0.0,0.0,0.0,0.0,0.0,0.0,0.0,0.0,0.0,0.0,0.0,0.0,0.0,0.0,0.0,0.0,0.0,0.0,0.0,0.0,0.0,0.0,0.0,0.0,0.0,0.0,0.0,0.0,0.0,0.0,0.0,0.0,0.0,0.0,0.0,0.0,0.0,0.0,0.0,0.0,0.0,0.0,0.0,0.0,0.0,0.0,0.0,0.0,0.0,0.0,0.0,0.0,0.0,0.0,0.0,0.0,0.0,0.0,0.0,0.0,0.0,0.0,0.0,0.0,0.0,0.0,0.0,0.0,0.0,0.0,0.0,0.0,0.0,0.0,0.0,0.0,0.0,0.0,0.0,0.0,0.0,0.0,0.0,0.0,0.0,0.0,0.0,0.0,0.0,0.0,0.0,0.0,0.0,0.0,0.0,0.0,0.0,0.0,0.0,0.0,0.0,0.0,0.0,0.0,0.0,0.0,0.0,0.0,0.0,0.0,0.0,0.0,0.0,0.0,0.0,0.0,0.0,0.0,0.0,0.0,0.0,0.0,0.0,0.0,0.0,0.0,0.0,0.0,0.0,0.0,0.0,0.0,0.0,0.0,0.0,0.0,0.0,0.0,0.0,0.0,0.0,0.0,0.0,0.0,0.0,0.0,0.0,0.0,0.0,0.0,0.0,0.0,0.0,0.0,0.0,0.0,0.0,0.0,0.0,0.0,0.0,0.0,0.0,0.0,0.0,0.0,0.0,0.0,0.0,0.0,0.0,0.0,0.0,0.0,0.0,0.0,0.0,0.0,0.0,0.0,0.0,0.0,0.0,0.0,0.0,0.0,0.0,0.0,0.0,0.0,0.0,0.0,0.0,0.0,0.0,0.0,0.0,0.0,0.0,0.0,0.0,0.0,0.0,0.0,0.0,0.0,0.0,0.0,0.0,0.0,0.0,0.0,0.0,0.0,0.0,0.0,0.0,0.0,0.0,0.0,0.0,0.0,0.0,0.0,0.0,0.0,0.0,0.0,0.0,0.0,0.0,0.0,0.0,0.0,0.0,0.0,0.0,0.0,0.0,0.0,0.0,0.0,0.0,0.0,0.0,0.0,0.0,0.0,0.0,0.0,0.0,0.0,0.0,0.0,0.0,0.0,0.0,0.0,0.0,0.0,0.0,0.0,0.0,0.0,0.0,0.0,0.0,0.0,0.0,0.0,0.0,0.0,0.0,0.0,0.0,0.0,0.0,0.0,0.0,0.0,0.0,0.0,0.0,0.0,0.0,0.0,0.0,0.0,0.0,0.0,0.0,0.0,0.0,0.0,0.0,0.0,0.0,0.0,0.0,0.0,0.0,0.0,0.0,0.0,0.0,0.0,0.0,0.0,0.0,0.0,0.0,0.0,0.0,0.0,0.0,0.0,0.0,0.0,0.0,0.0,0.0,0.0,0.0,0.0,0.0,0.0,0.0,0.0,0.0,0.0,4.4578,4.5274,0.0,0.0,0.0,0.0,0.0,0.0,0.0,0.0,0.0,0.0,0.0,0.0,0.0,0.0,0.0,0.0,0.0,0.0,0.0,0.0,0.0,0.0,0.0,0.0,0.0,0.0,0.0,0.0,0.0,0.0,0.0,0.0,0.0,0.0,0.0,0.0,0.0,4.8428,4.7655,4.6815,4.5974,4.7754,4.7964,4.6955,0.0,0.0,0.0,0.0,0.0,0.0,0.0,0.0,0.0,0.0,0.0,0.0,0.0,0.0,0.0,0.0,0.0,0.0,0.0,0.0,0.0,0.0,0.0,0.0,0.0,0.0,0.0,0.0,0.0,0.0,0.0,0.0,0.0,0.0,0.0,0.0,0.0,0.0,0.0,0.0,0.0,0.0,0.0,0.0,0.0,0.0,0.0,0.0,0.0,0.0,0.0,0.0,0.0,0.0,0.0,0.0,0.0,0.0,0.0,0.0,0.0,0.0,0.0,0.0,0.0,0.0,0.0,0.0,0.0,0.0,4.6332,4.5693,0.0,0.0,0.0,0.0,0.0,0.0,0.0,0.0,0.0,0.0,0.0,0.0,0.0,0.0,0.0,0.0,0.0,0.0,0.0,0.0,0.0,0.0,0.0,4.5703,4.594,4.6549,4.6733,4.7056,0.0,0.0,0.0,0.0,0.0,0.0,4.9018,4.8883,4.8738,4.8581,4.7157,4.6495,4.6642,4.8488,4.8029,4.5718,4.7263,0.0,0.0,0.0,0.0,0.0,0.0,0.0,0.0,0.0,0.0,0.0,0.0,0.0,0.0,0.0,0.0,0.0,0.0,0.0,0.0,0.0,0.0,0.0,0.0,0.0,0.0,0.0,0.0,0.0,0.0,0.0,0.0,0.0,0.0,0.0,0.0,0.0,0.0,0.0,0.0,0.0,0.0,0.0,0.0,0.0,0.0,0.0,0.0,0.0,0.0,0.0,0.0,0.0,0.0,0.0,0.0,0.0,0.0,0.0,0.0,0.0,0.0,0.0,5.1814,5.2281,5.2044,5.3289,5.305,5.1554,4.9888,4.7508,4.503,4.7559,0.0,0.0,0.0,0.0,0.0,0.0,0.0,0.0,0.0,0.0,0.0,0.0,0.0,0.0,0.0,0.0,0.0,0.0,0.0,0.0,0.0,4.5703,4.5737,4.5838,4.6413,4.6819,4.6921,0.0,0.0,0.0,0.0,0.0,4.9018,4.836,4.7667,4.6925,4.6222,4.6698,4.8288,4.9146,4.9655,4.9743,4.8721,4.9411,5.1191,0.0,0.0,0.0,0.0,0.0,0.0,0.0,0.0,0.0,0.0,0.0,0.0,0.0,0.0,0.0,0.0,0.0,0.0,0.0,0.0,0.0,0.0,0.0,0.0,0.0,0.0,0.0,0.0,0.0,0.0,0.0,0.0,0.0,0.0,0.0,0.0,0.0,0.0,0.0,0.0,0.0,4.414,4.4973,0.0,0.0,0.0,0.0,0.0,0.0,0.0,0.0,0.0,0.0,0.0,0.0,0.0,5.2389,5.3839,5.3134,5.275,5.2698,5.4302,5.4799,5.4301,5.5353,5.6222,5.6833,5.6059,0.0,4.879,4.8434,0.0,0.0,0.0,0.0,0.0,0.0,0.0,0.0,0.0,0.0,0.0,0.0,0.0,0.0,0.0,0.0,0.0,0.0,0.0,0.0,0.0,4.6861,4.7249,4.7312,4.9198,4.9274,4.675,4.8646,0.0,0.0,4.8173,4.836,4.836,4.7946,4.7735,4.7779,4.9396,5.0524,5.1189,5.2268,5.2918,5.3132,5.2072,5.1309,5.068,4.8409,0.0,0.0,0.0,0.0,0.0,0.0,0.0,0.0,0.0,0.0,0.0,0.0,0.0,0.0,0.0,0.0,0.0,0.0,0.0,0.0,0.0,0.0,0.0,0.0,0.0,0.0,0.0,0.0,0.0,0.0,0.0,0.0,0.0,0.0,0.0,0.0,0.0,0.0,0.0,4.5661,4.7425,4.5228,4.8197,4.9357,0.0,0.0,0.0,0.0,0.0,0.0,0.0,0.0,0.0,5.305,5.3444,5.3931,5.452,5.5401,5.6262,5.7148,5.824,5.8915,5.9273,5.9714,6.0387,6.114,6.0889,5.9186,5.6288,5.2873,5.0643,4.9489,0.0,0.0,0.0,0.0,5.1543,5.1492,0.0,0.0,0.0,0.0,0.0,0.0,0.0,0.0,0.0,0.0,0.0,0.0,4.7523,4.8215,4.8872,4.9621,5.1448,5.1184,4.7878,4.9006,4.9091,4.7417,4.7361,4.7447,4.7616,4.782,4.8597,4.9941,5.2841,5.4588,5.5239,5.6226,5.6885,5.7184,5.6346,5.4518,5.1892,4.9559,4.8713,4.877,0.0,0.0,0.0,0.0,0.0,0.0,0.0,0.0,0.0,0.0,0.0,0.0,0.0,0.0,0.0,0.0,0.0,0.0,0.0,0.0,0.0,0.0,0.0,0.0,0.0,0.0,0.0,0.0,0.0,0.0,0.0,0.0,0.0,0.0,0.0,0.0,0.0,4.8339,4.9294,4.5828,4.9305,5.0478,0.0,0.0,0.0,0.0,0.0,0.0,5.3318,5.3867,5.4441,5.5101,5.6213,5.6968,5.7318,5.8959,6.0613,6.2245,6.2672,6.3375,6.4262,6.4412,6.4714,6.5157,6.5007,6.4329,6.2894,5.7615,5.4346,5.2641,5.2235,5.2579,5.337,5.407,5.3935,5.3418,0.0,0.0,0.0,0.0,0.0,0.0,0.0,0.0,0.0,0.0,0.0,4.5153,4.9713,4.9466,4.9953,5.2395,5.1697,5.1126,5.1163,4.76,4.651,4.8803,4.6921,4.6143,4.6819,4.8219,5.0353,5.3253,5.5156,5.7656,6.0715,6.0775,6.1493,6.2659,6.1343,5.9577,5.7239,5.1831,5.0892,5.2672,4.8866,0.0,0.0,0.0,0.0,0.0,0.0,0.0,0.0,0.0,0.0,0.0,0.0,0.0,0.0,0.0,0.0,0.0,0.0,0.0,0.0,0.0,0.0,0.0,0.0,0.0,0.0,0.0,0.0,0.0,0.0,0.0,0.0,0.0,0.0,0.0,0.0,0.0,0.0,4.88,5.1062,0.0,0.0,0.0,0.0,5.1749,5.2293,5.2988,5.3836,5.5796,5.7649,5.9253,6.1282,6.3407,6.5519,6.5124,6.576,6.7417,6.7442,6.7769,6.8346,6.8829,6.908,6.908,6.8553,6.7744,6.6366,6.1364,5.8687,5.7547,5.5505,5.5429,5.6219,5.4073,5.4177,5.5206,0.0,0.0,0.0,0.0,0.0,0.0,0.0,0.0,4.3132,4.4432,4.5722,4.7846,5.1316,5.2614,5.3979,5.5728,5.6094,5.522,5.2833,5.0636,4.9161,4.8497,4.67,4.6704,4.8802,5.0842,5.3599,5.7074,5.9861,6.2271,6.4276,6.4276,6.4515,6.4934,6.4007,6.2977,6.1489,5.5712,5.2833,5.1901,4.9413,4.827,0.0,0.0,0.0,0.0,0.0,0.0,0.0,0.0,0.0,0.0,0.0,0.0,0.0,0.0,0.0,0.0,0.0,0.0,0.0,0.0,0.0,0.0,0.0,0.0,0.0,0.0,0.0,0.0,0.0,0.0,0.0,0.0,0.0,0.0,0.0,0.0,0.0,5.4176,5.6805,0.0,5.2377,5.2099,5.2978,5.4892,5.5232,5.6682,5.9727,6.1788,6.3651,6.5351,6.6873,6.817,6.93,6.9125,6.9325,6.9903,6.9903,7.0003,7.0204,7.0405,7.0305,6.9953,6.9752,6.925,6.8396,6.6659,6.4234,6.1601,6.0455,6.0258,6.0581,6.0125,6.0519,6.1059,0.0,0.0,0.0,0.0,0.0,0.0,0.0,0.0,4.2902,4.4591,4.6733,4.9572,5.3396,5.5806,5.7938,5.9927,5.9503,5.7911,5.5186,5.1926,4.9526,4.8166,4.7331,4.8336,5.1455,5.4344,5.7684,6.1433,6.4066,6.5922,6.7029,6.6789,6.667,6.664,6.5981,6.5443,6.4724,6.0657,5.7031,5.3809,5.0964,5.0209,5.0524,0.0,0.0,0.0,0.0,0.0,0.0,0.0,0.0,0.0,0.0,0.0,0.0,0.0,0.0,0.0,0.0,0.0,0.0,0.0,0.0,0.0,0.0,0.0,0.0,0.0,0.0,0.0,0.0,0.0,0.0,0.0,0.0,0.0,0.0,5.5325,5.7091,5.8097,6.0645,6.0647,5.6437,5.6086,5.7066,5.9438,6.0005,6.1799,6.5395,6.698,6.8396,6.9702,7.0606,7.1359,7.1937,7.1736,7.1836,7.2213,7.2012,7.2037,7.2213,7.2213,7.2012,7.1661,7.1661,7.1359,7.0811,7.1012,6.9501,6.689,6.5358,6.5007,6.5358,6.5559,6.5961,6.593,0.0,0.0,0.0,0.0,0.0,0.0,4.1204,4.1813,4.2984,4.4973,4.6816,5.0178,5.6094,5.8866,6.1583,6.4815,6.1435,5.8854,5.8167,5.1055,4.7179,4.7919,4.8825,5.1015,5.4629,5.8547,6.2381,6.6131,6.7479,6.8466,6.9064,6.8437,6.8107,6.8107,6.7449,6.7119,6.7059,6.64,6.3558,5.9,5.3964,5.3362,5.5038,0.0,0.0,0.0,0.0,0.0,0.0,0.0,0.0,0.0,0.0,0.0,0.0,0.0,0.0,0.0,0.0,0.0,0.0,0.0,0.0,0.0,0.0,0.0,0.0,0.0,0.0,0.0,0.0,0.0,0.0,0.0,0.0,0.0,5.3875,5.7229,5.9663,6.032,6.22,6.2532,6.0313,6.1648,6.3409,6.536,6.6538,6.8165,7.0325,7.1004,7.151,7.2037,7.259,7.3167,7.372,7.3142,7.337,7.4523,7.3971,7.3971,7.4523,7.4523,7.4498,7.4473,7.4473,7.4146,7.3669,7.4197,7.4096,7.3293,7.0054,6.9406,7.0213,6.9641,6.9651,6.9043,0.0,0.0,0.0,0.0,0.0,0.0,4.1136,4.1373,4.2587,4.555,4.909,5.3396,5.8829,6.238,6.5144,6.6999,6.3109,5.9908,5.8412,5.2051,4.8492,4.8838,5.0596,5.4084,5.9395,6.2279,6.5411,6.8884,7.0171,7.0919,7.1098,7.0889,7.0831,7.0802,7.0111,6.9842,6.9782,6.9153,6.8166,6.6461,6.0265,5.7209,5.6069,0.0,0.0,0.0,0.0,0.0,0.0,0.0,0.0,0.0,0.0,0.0,0.0,0.0,0.0,0.0,0.0,0.0,0.0,0.0,0.0,0.0,0.0,0.0,0.0,0.0,0.0,0.0,0.0,0.0,0.0,0.0,5.5559,5.7047,5.7835,5.9078,6.1195,6.4704,6.6644,6.7453,6.6803,6.7598,6.8486,6.9446,7.0907,7.2213,7.3217,7.4548,7.5352,7.5502,7.6055,7.6406,7.6557,7.6004,7.6105,7.6783,7.623,7.6256,7.6808,7.6808,7.6356,7.5652,7.5652,7.5075,7.4197,7.4347,7.4322,7.4096,7.3192,7.1724,7.013,6.96,6.6576,6.2388,0.0,0.0,0.0,0.0,0.0,0.0,4.1035,4.0933,4.1999,4.5551,5.0366,5.5198,5.9836,6.4235,6.6909,6.7119,6.276,5.8988,5.6674,5.2088,4.9802,5.0544,5.4222,5.8456,6.3211,6.6042,6.8854,7.1607,7.2355,7.2714,7.2714,7.2714,7.2595,7.2295,7.2206,7.2146,7.2146,7.1757,7.1457,7.0829,6.64,6.3308,6.099,5.7561,5.6644,5.6829,5.4391,5.3999,5.4306,5.2281,0.0,0.0,0.0,0.0,0.0,0.0,0.0,0.0,0.0,0.0,0.0,0.0,0.0,0.0,0.0,0.0,0.0,0.0,0.0,0.0,0.0,0.0,0.0,0.0,5.9681,6.2126,6.4039,6.3932,6.4995,6.8636,7.0305,7.1184,7.1184,7.1887,7.2565,7.3164,7.4345,7.5201,7.5753,7.6707,7.7335,7.7561,7.7662,7.7812,7.8038,7.7486,7.7385,7.7712,7.7385,7.7385,7.7712,7.7712,7.736,7.6782,7.6782,7.6256,7.5452,7.5452,7.4589,7.3281,0.0,0.0,0.0,0.0,6.5186,6.0961,0.0,0.0,0.0,0.0,0.0,0.0,4.0865,4.0506,4.1505,4.5391,5.0855,5.586,5.9678,6.4634,6.7178,6.6011,6.123,5.705,5.4018,5.1879,5.1586,5.3422,5.9052,6.3572,6.67,6.9871,7.2385,7.424,7.424,7.424,7.424,7.424,7.3911,7.3373,7.3971,7.424,7.424,7.424,7.3881,7.3253,7.1966,6.9997,6.7268,6.23,6.1339,6.2297,5.9443,5.7484,5.6032,5.5136,0.0,0.0,0.0,0.0,0.0,0.0,0.0,0.0,0.0,0.0,0.0,0.0,0.0,0.0,0.0,0.0,0.0,0.0,0.0,0.0,0.0,0.0,0.0,0.0,6.3731,6.6646,7.0952,7.0455,7.033,7.2163,7.3368,7.4071,7.4146,7.5101,7.5904,7.6431,7.6983,7.7461,7.7963,7.8088,0.0,0.0,0.0,7.8415,7.8992,7.8314,7.8038,7.8164,7.8038,7.8013,7.8063,7.8063,7.7836,7.7406,7.7736,7.7385,7.6533,7.6808,7.4679,7.1209,6.991,6.9715,6.9808,6.6969,6.4368,6.2104,0.0,0.0,0.0,0.0,0.0,0.0,4.0269,4.0168,4.1643,4.5903,5.0688,5.5333,5.9618,6.3378,6.5473,6.5203,6.0666,5.6528,5.3471,5.3521,5.548,5.9492,6.419,6.8233,7.1487,7.3791,7.5377,7.624,7.624,7.624,7.624,7.624,7.615,7.6031,7.618,7.624,7.624,7.624,7.615,7.5971,7.5228,7.2131,6.7727,6.559,6.4351,6.3431,6.1289,6.1289,6.191,5.9465,5.8962,5.8918,5.6268,5.3338,0.0,0.0,0.0,0.0,0.0,0.0,0.0,0.0,0.0,0.0,0.0,0.0,0.0,0.0,0.0,0.0,0.0,0.0,0.0,6.7191,6.9321,7.1383,7.4044,7.5301,7.5778,7.535,7.623,7.7084,7.7536,7.8189,7.8641,7.8741,7.9243,7.962,7.9721,8.0549,8.1051,8.1177,8.1076,8.1277,8.1855,8.0449,8.0173,8.1001,8.0147,0.0,8.0346,8.0346,7.8569,7.5644,7.8013,7.7109,7.4175,7.6104,7.3566,6.8175,6.5674,6.4746,6.4531,6.1687,6.0097,5.9303,0.0,0.0,0.0,0.0,0.0,0.0,3.9862,3.971,4.0929,4.4799,4.9066,5.2934,5.6091,5.9144,6.0529,5.9492,5.6541,5.4232,5.3039,5.6418,6.0324,6.4519,6.9047,7.2505,7.4775,7.6485,7.7502,7.7801,7.7472,7.7502,7.7801,7.7472,7.7502,7.7831,7.8125,7.8274,7.8274,7.8274,7.8274,7.8244,7.7622,7.5766,7.3137,7.047,6.8824,6.7747,6.6131,6.5533,6.5233,6.3435,6.263,6.1791,5.8684,5.6233,5.4613,0.0,0.0,0.0,0.0,0.0,0.0,0.0,0.0,0.0,0.0,0.0,0.0,0.0,0.0,5.9389,6.0424,0.0,6.7983,7.0649,7.3812,7.6161,7.6731,7.8314,7.8842,7.7461,7.8515,7.9469,7.9746,8.0549,8.1026,8.1026,8.1277,8.1453,8.1453,8.1955,8.2357,8.2633,8.2382,8.2508,8.3085,8.198,8.1704,8.2231,8.1704,8.1579,8.1855,8.1553,8.0283,7.8469,7.9645,7.7909,7.3939,7.1466,6.8603,6.5521,6.2495,6.13,6.1115,5.9698,5.9062,5.8831,0.0,0.0,0.0,0.0,0.0,0.0,0.0,3.9414,4.0379,4.3554,4.7165,5.0115,5.1995,5.4427,5.5029,5.2909,5.2734,5.3068,5.3932,6.0065,6.5425,6.9366,7.3735,7.6514,7.7526,7.8759,7.9357,7.9357,7.8849,7.8908,7.9573,7.9028,7.9058,7.9597,8.0135,8.0405,8.0405,8.0405,8.0405,8.0345,7.9776,7.9567,7.9178,7.5766,7.3851,7.2864,7.1577,6.9512,6.7328,6.7059,6.5413,6.3103,6.0873,5.9429,5.835,5.7473,5.7109,0.0,0.0,0.0,0.0,0.0,0.0,0.0,0.0,5.8292,5.8187,5.8871,6.0291,6.1784,6.3233,6.8075,7.2306,7.3649,7.7373,7.9895,7.925,8.0472,8.1001,7.9645,8.0675,8.1503,8.1503,8.2407,8.2985,8.2985,8.2985,8.2985,8.2985,8.3085,8.3361,8.3788,8.3386,8.3412,8.3989,8.3336,8.3035,8.316,8.3035,8.2985,8.2985,8.2407,8.1735,8.1025,7.9723,7.7222,7.3605,6.7016,6.4203,6.3693,6.0629,5.9355,5.918,5.918,5.918,5.918,0.0,0.0,0.0,0.0,0.0,0.0,0.0,0.0,4.0916,4.3573,4.5896,4.8028,4.9832,5.1439,5.1451,4.913,5.3245,5.6619,5.8122,6.4519,7.0299,7.4809,7.831,8.0195,8.0345,8.1063,8.1452,8.1452,8.1362,8.1729,8.2357,8.2268,8.2268,8.2357,8.2447,8.2477,8.2477,8.2477,8.2477,8.2477,8.2387,8.2357,8.2178,8.0524,7.8759,7.6963,7.5707,7.2445,6.8944,6.9991,6.7897,6.5024,6.6462,6.4522,6.1796,6.2509,5.9434,5.5954,5.6603,5.4607,5.3184,5.6728,5.6503,5.7013,0.0,6.2945,6.2281,6.5368,6.5897,6.6584,6.8979,7.2009,7.5092,7.7933,7.9752,8.0989,8.1405,8.2457,8.3135,8.296,8.311,8.3211,8.3211,8.3763,8.414,8.414,8.414,8.414,8.414,8.4567,8.4838,8.4913,8.4838,8.5089,8.5747,8.4667,8.4336,8.4838,8.4336,8.414,8.4085,8.3562,8.1604,7.8455,7.4301,7.1875,7.0619,6.6879,6.4791,6.3734,6.1209,5.9807,5.918,5.918,5.918,5.918,0.0,0.0,0.0,0.0,0.0,0.0,0.0,0.0,0.0,4.2088,4.3469,4.4718,4.5912,4.6963,4.7029,4.5581,5.1977,5.7176,5.9721,6.8121,7.4899,7.9148,8.211,8.3457,8.3098,8.3726,8.3876,8.3487,8.3098,8.3457,8.4444,8.3696,8.3726,8.4444,8.4055,8.4115,8.4513,8.4513,8.4722,8.5082,8.5082,8.5082,8.4902,8.3158,8.0794,7.7951,7.4719,7.1607,0.0,6.8704,6.7777,6.6879,6.7748,6.6275,6.4046,6.3205,6.0242,5.7077,5.6349,5.6798,5.7804,5.9298,6.1063,6.326,6.6325,6.6791,6.6954,6.8244,6.9661,7.1786,7.5414,7.8261,8.0684,8.2796,8.3962,8.424,8.2949,8.3763,8.4089,8.3135,8.3864,8.4411,8.4411,8.4913,8.532,8.532,8.532,8.532,8.532,8.5496,8.5591,8.5591,8.5591,8.5747,8.5998,8.5521,8.542,8.5591,8.542,8.532,8.527,8.4662,8.2327,7.8314,7.1952,6.9019,6.8456,6.4543,6.2686,6.2154,6.0886,6.0215,5.9863,5.9648,5.9414,5.918,0.0,0.0,0.0,0.0,0.0,0.0,0.0,0.0,0.0,0.0,4.1542,4.2354,4.3288,4.391,4.3944,4.3152,4.9904,5.5826,5.9757,6.8972,7.6604,8.1848,8.4564,8.5851,8.5551,8.6,8.6,8.5551,8.5034,8.5402,8.6509,8.5551,8.5611,8.6509,8.603,8.606,8.6509,8.6509,8.6808,8.7267,8.7267,8.6938,8.615,8.3816,8.0468,7.6576,7.3025,6.9685,6.6794,6.5941,6.5482,6.5391,6.6149,6.5746,6.4631,6.2656,6.0261,5.8119,5.7362,5.9278,6.1821,6.3384,6.5987,6.8588,7.0194,7.0677,7.0985,7.1777,7.3301,7.5948,8.066,8.3195,8.5027,8.6423,8.7457,8.7166,8.4547,8.4592,8.4341,8.2859,8.3336,8.3909,8.4416,8.5244,8.5822,8.5998,8.5998,8.5998,8.5998,8.6148,8.6199,8.6199,8.6349,8.6425,8.6425,8.6425,8.6349,8.6199,8.6199,8.5675,8.4663,8.317,8.0773,7.7482,7.0842,6.7992,6.7676,6.3394,6.1484,6.125,6.1035,6.0742,6.0372,6.0215,5.9883,5.9531,0.0,0.0,0.0,0.0,0.0,0.0,0.0,0.0,0.0,0.0,0.0,0.0,0.0,4.3423,4.3152,4.2401,4.7091,5.2482,5.8192,6.5843,7.3945,8.2387,8.5291,8.6958,8.7616,8.7646,8.7646,8.7616,8.7586,8.7915,8.8604,8.8544,8.8544,8.8604,8.8574,8.8574,8.8604,8.8604,8.8604,8.8634,8.8634,8.7467,8.5372,8.211,7.7413,7.2513,7.1719,6.7251,6.1787,6.2128,6.0507,5.8844,6.146,6.2745,6.2967,6.1488,5.9536,5.835,6.031,6.1074,6.2934,6.962,7.0265,7.0586,7.5689,7.4773,7.3898,7.7413,7.7417,7.8489,8.3934,8.5469,8.645,8.8064,8.9252,8.9046,8.6343,8.4993,8.3914,8.2809,8.1302,8.1001,8.2583,8.4215,8.534,8.5942,8.5998,8.5998,8.5998,8.65,8.6776,8.6776,8.7278,8.7529,8.7529,8.7529,8.7278,8.6776,8.6776,8.4849,8.1208,7.7579,7.5615,7.4856,7.0678,6.8942,6.8719,6.4651,6.2461,6.1719,6.2187,6.1543,6.0431,6.0898,6.0781,6.0332,0.0,0.0,0.0,0.0,0.0,0.0,0.0,0.0,0.0,0.0,0.0,0.0,0.0,0.0,0.0,0.0,4.729,5.1745,5.6007,6.4936,7.2609,7.8326,8.4206,8.7257,8.7018,8.8334,8.8783,8.8364,8.8364,8.8693,8.9363,8.8903,8.8933,8.9363,8.8873,8.8933,8.9363,8.9363,8.9591,8.983,8.8095,8.6988,8.5839,8.1291,7.5441,6.9207,0.0,6.1277,5.7089,5.6879,5.6129,5.5705,5.7999,5.8459,5.7903,5.6439,5.7545,5.9694,6.1933,6.5597,6.9899,7.4577,7.7313,7.9052,7.9689,8.0048,7.9959,7.8693,7.8415,7.9598,8.363,8.4722,8.5737,8.7881,8.8898,8.8675,8.6767,8.6174,8.4843,8.193,8.1729,8.1478,8.0574,8.2307,8.4341,8.6349,8.6525,8.6676,8.7027,8.7253,8.7354,8.7354,8.7504,8.7605,8.7605,8.7605,8.7354,8.6776,8.6425,8.5643,8.4162,7.8395,7.5654,7.5217,6.8968,6.611,6.581,6.4152,6.3105,6.2558,6.2754,6.2363,6.1719,6.1894,6.166,6.1133,0.0,0.0,0.0,0.0,0.0,0.0,0.0,0.0,0.0,0.0,0.0,0.0,0.0,0.0,0.0,0.0,0.0,4.9473,5.3058,6.0431,6.6915,7.2028,7.7321,8.0197,8.0182,8.1165,8.1914,8.232,8.3277,8.4564,8.615,8.6689,8.7257,8.7885,8.7706,8.7975,8.8614,8.8135,8.7716,8.7118,8.4147,8.2121,8.0233,7.4833,6.916,0.0,5.9085,5.5312,5.2366,5.2009,5.1815,5.2049,5.3646,5.447,5.4963,5.5565,5.8774,6.2876,6.6326,7.1437,7.6696,8.0398,8.2566,8.3695,8.3315,8.2757,8.1603,7.9025,7.8446,7.9202,8.1854,8.2198,8.3162,8.6342,8.7354,8.7452,8.6703,8.606,8.4513,8.1408,8.1127,8.0876,8.0047,8.1428,8.3336,8.5747,8.6274,8.6751,8.7278,8.768,8.7931,8.7931,8.8107,8.8207,8.8207,8.8207,8.7856,8.7077,8.5377,8.388,8.2405,7.6821,7.4348,7.4006,6.7987,6.585,6.6591,6.5018,6.4082,6.3651,6.3494,6.3223,6.2812,6.2656,6.2305,6.1777,0.0,0.0,0.0,0.0,0.0,0.0,0.0,0.0,0.0,0.0,0.0,0.0,0.0,0.0,0.0,0.0,0.0,0.0,4.9513,5.2786,5.7491,6.4026,6.5674,6.7048,6.8343,6.7707,6.8516,7.0841,7.342,7.6265,7.934,8.1893,8.3383,8.3936,8.4641,8.5279,8.5789,8.4492,8.2877,8.0806,7.7263,7.351,6.9437,6.3872,5.952,5.5962,5.2687,4.994,4.7921,4.7988,4.8078,4.8321,4.9084,5.136,5.4615,5.8864,6.3145,6.7689,7.3324,7.8328,8.2923,8.7026,8.6371,8.5074,8.6695,8.3406,7.9733,7.8746,7.7687,7.7366,7.8671,7.8368,7.9304,8.3544,8.5062,8.5809,8.6294,8.502,8.3316,8.144,7.9794,7.9418,8.0948,8.1629,8.2633,8.4315,8.542,8.6324,8.6927,8.8013,8.8616,8.8609,8.9119,8.9362,8.9362,8.9287,8.871,8.7598,8.3963,8.0377,7.6804,7.3484,7.196,7.1694,6.7908,6.7956,7.0474,6.7042,6.5351,6.488,6.4492,6.4082,6.3672,6.3223,6.2754,6.2305,0.0,0.0,0.0,0.0,0.0,0.0,0.0,0.0,0.0,0.0,0.0,0.0,0.0,0.0,0.0,0.0,0.0,0.0,4.7432,5.0279,5.364,5.7527,6.1926,6.4956,6.6464,6.7691,6.8916,7.0077,7.1343,7.1967,7.2105,7.4091,7.4319,7.3047,7.3935,7.4481,7.4602,7.4267,7.4271,7.4218,7.0758,6.8739,6.7324,6.2915,5.8583,5.4756,5.3436,5.0773,4.8056,4.9187,5.071,5.2284,5.3127,5.5333,5.8495,6.3084,6.7774,7.2859,7.9326,8.4295,8.8437,9.1979,9.3124,9.2987,9.1444,8.9393,8.6175,8.055,7.7185,7.4586,7.2572,7.5976,7.9357,8.0234,8.5516,8.9158,8.8051,8.7559,8.6499,8.432,8.3658,8.3286,8.2909,8.3361,8.4341,8.6023,8.6425,8.7354,8.9187,8.9538,8.9865,9.0291,9.004,8.989,8.989,8.9111,8.8534,8.8265,8.6439,8.5096,8.3904,7.7934,7.5169,7.4869,6.9205,6.7006,6.7336,6.6406,6.582,6.5371,6.4941,6.447,6.4082,6.3672,6.3223,6.2753,0.0,0.0,0.0,0.0,0.0,0.0,0.0,0.0,0.0,0.0,0.0,0.0,0.0,0.0,0.0,0.0,0.0,0.0,0.0,4.7081,4.8891,5.0542,5.3545,5.574,5.6868,5.8255,5.9845,6.1649,6.323,6.4466,6.5351,6.7207,6.7598,6.6798,6.7678,6.8214,6.8464,6.8212,6.7915,0.0,0.0,6.2378,6.1144,5.7211,5.4585,5.287,5.1866,5.1631,5.2131,5.4544,5.5402,5.5975,5.8812,6.1851,6.5407,7.1051,7.5507,7.9991,8.6199,9.0423,9.3541,9.5396,9.5555,9.4181,9.0003,8.7105,8.3135,7.5291,7.1786,6.9181,6.6157,6.9838,7.407,7.6272,8.2301,8.7112,8.839,8.8585,8.8046,8.6386,8.6425,8.6349,8.5747,8.6399,8.7429,8.886,8.8114,8.8283,9.0015,9.0283,9.0618,9.086,9.0367,9.0015,8.9764,8.9362,8.8961,8.8458,8.7863,8.581,8.2492,7.8563,7.5149,7.2,6.8411,6.6738,6.6504,6.6504,6.6348,6.6113,6.5621,6.5234,6.4824,6.4375,6.3848,6.3281,0.0,0.0,0.0,0.0,0.0,0.0,0.0,0.0,0.0,0.0,0.0,0.0,0.0,0.0,0.0,0.0,0.0,0.0,0.0,0.0,4.4499,4.4615,4.4499,4.4774,4.5516,4.6199,4.7943,5.0762,5.3306,5.5889,5.8623,6.048,6.1554,6.1977,6.27,6.3476,6.4145,6.3622,6.2476,6.0718,5.8165,5.6075,5.4093,0.0,5.022,5.1167,4.9898,5.2356,5.6901,6.1471,6.1575,6.0662,6.6047,7.0137,7.4221,8.0864,8.4599,8.7788,9.3059,9.6234,9.803,9.8149,9.6265,9.2718,8.6356,8.1807,7.6453,6.7609,6.4784,6.3119,6.0456,6.3294,6.787,7.3539,7.9017,8.4165,8.8855,8.956,8.9264,8.8267,8.8692,8.9036,8.9111,8.9965,9.0969,9.2049,9.0375,8.9621,9.0367,9.0869,9.112,9.1045,9.0534,9.004,8.9538,8.9881,8.9613,8.871,8.8458,8.474,7.8034,7.7419,7.3624,6.7486,6.7064,6.7151,6.7486,6.7064,6.7151,6.7427,6.6575,6.5937,6.5527,6.5056,6.4433,6.375,0.0,0.0,0.0,0.0,0.0,0.0,0.0,0.0,0.0,0.0,0.0,0.0,0.0,0.0,0.0,0.0,0.0,0.0,0.0,0.0,0.0,4.4567,4.3944,4.4246,4.565,4.6376,4.7313,4.8452,5.0142,5.0852,5.0631,5.2407,5.2739,5.1861,5.2819,5.3987,5.5214,5.5136,5.5383,5.5745,5.4655,5.4005,5.3551,5.2232,5.1894,0.0,5.1826,5.253,5.5044,6.464,6.8457,7.0095,7.5654,7.9658,8.3417,8.9028,9.1739,9.3917,9.8179,10.0004,10.0902,10.1501,10.0011,9.6507,8.8872,8.382,7.7698,6.6831,6.2895,6.0785,5.87,6.4021,7.0964,7.7795,8.4519,9.0121,9.3718,9.4153,9.3363,9.1298,9.1547,9.2049,9.2476,9.2727,9.3078,9.3731,9.3455,9.2903,9.2209,9.2225,9.2074,9.1647,9.1547,9.122,9.0609,9.0291,9.0015,8.9789,8.8433,8.5696,8.1822,7.8207,7.4496,7.0732,6.8075,6.8388,7.0649,6.7992,6.8493,7.0567,6.741,6.5937,6.5527,6.5056,6.4587,6.414,0.0,0.0,0.0,0.0,0.0,0.0,0.0,0.0,0.0,0.0,0.0,0.0,0.0,0.0,0.0,0.0,0.0,0.0,0.0,0.0,0.0,4.3978,4.4012,4.4553,4.5689,4.6819,4.7936,4.9052,0.0,4.9861,4.9407,5.0247,5.0508,5.0342,5.1173,5.2231,5.33,5.3668,5.3898,5.4025,5.4059,5.4059,5.3991,5.3213,5.2909,0.0,5.3348,5.458,5.7017,6.3589,7.0203,7.6788,8.3349,8.7706,9.1207,9.5456,9.7401,9.8897,10.2189,10.3296,10.3506,10.3506,10.0214,9.4491,8.4993,7.8757,7.1759,6.0599,5.7601,5.6663,5.5455,6.087,6.721,7.2548,7.8491,8.4393,8.9906,9.0829,9.1477,9.2902,9.3807,9.451,9.5062,9.5414,9.5564,9.5477,9.5477,9.4786,9.3139,9.2727,9.2325,9.1798,9.2049,9.1798,9.0944,9.0969,9.0693,9.0116,8.9287,8.6021,8.0644,7.8554,7.4627,6.9421,6.7845,6.7998,6.9098,6.7549,6.7781,6.9015,6.723,6.6289,6.5879,6.5621,6.5351,6.4961,0.0,0.0,0.0,0.0,0.0,0.0,0.0,0.0,4.3952,4.7175,4.7919,4.7413,4.5514,4.4093,0.0,0.0,0.0,0.0,0.0,0.0,0.0,0.0,0.0,0.0,4.5466,0.0,0.0,4.9406,4.971,0.0,0.0,0.0,0.0,0.0,5.23,5.3179,5.4228,5.4499,5.4363,0.0,0.0,5.4668,5.4769,0.0,0.0,0.0,0.0,5.6408,5.895,6.2191,6.9491,7.8477,8.5312,9.149,9.6724,9.9212,10.1214,10.3005,10.5188,10.5881,10.581,10.4702,9.9466,9.1649,8.0299,7.289,6.531,5.4365,5.2445,5.2825,5.2922,5.7525,6.2892,6.7771,7.2618,7.8451,8.6045,8.7947,8.9937,9.3733,9.5414,9.6493,9.6995,9.7498,9.7573,9.7096,9.6744,9.5665,9.3656,9.3053,9.2561,9.1974,9.2375,9.2149,9.1296,9.1622,9.1371,9.0467,9.0116,8.6031,7.8877,7.8592,7.4514,6.75,6.75,6.767,6.7886,6.7171,6.7277,6.7886,6.7171,6.6582,6.6211,6.6211,6.5937,6.5586,0.0,0.0,0.0,0.0,0.0,0.0,0.0,0.0,4.5075,5.0769,4.9983,4.8563,4.7684,4.6853,0.0,0.0,0.0,0.0,0.0,0.0,0.0,0.0,0.0,0.0,0.0,0.0,0.0,4.7105,4.8443,0.0,0.0,0.0,0.0,0.0,0.0,5.4566,5.6427,5.5141,0.0,0.0,0.0,0.0,0.0,0.0,0.0,0.0,0.0,5.6203,5.7775,6.2962,6.7106,7.0909,7.5804,8.6953,9.8215,9.808,10.1797,10.611,10.6972,10.7714,10.7485,10.5002,9.9466,9.1247,7.8498,7.0724,6.3084,5.215,5.0159,5.1016,5.3045,5.664,6.2218,7.1202,7.5875,8.0963,8.8443,9.1769,9.3643,9.4162,9.6142,9.7673,9.8176,9.8276,9.8276,9.8264,9.682,9.5402,9.4208,9.3631,9.3053,9.2561,9.2551,9.2561,9.2461,9.2059,9.1723,9.1622,9.0116,8.5862,7.9371,7.8451,7.411,6.75,6.75,6.8937,7.104,6.8095,6.8598,7.0958,6.8075,6.6582,6.6211,6.6211,6.5937,6.5586,0.0,0.0,0.0,0.0,0.0,0.0,0.0,0.0,4.5304,5.1377,5.1904,5.142,5.0626,4.9898,0.0,0.0,0.0,0.0,0.0,0.0,0.0,0.0,0.0,0.0,0.0,0.0,4.6264,4.7447,4.8056,0.0,0.0,0.0,0.0,0.0,0.0,5.4905,5.6105,5.5496,0.0,0.0,0.0,0.0,0.0,0.0,0.0,0.0,0.0,0.0,5.6995,5.8264,6.2224,6.6526,6.5959,7.4605,8.6193,9.2115,9.7547,10.2473,10.6382,10.8174,10.8383,10.569,9.7371,8.7464,7.8406,6.847,5.9246,5.2605,5.0621,5.0793,5.3078,5.5074,5.8356,6.4505,6.6759,7.0174,7.7202,8.08,8.4574,8.9591,9.302,9.6011,9.8644,9.8853,9.8767,9.844,9.7422,9.6393,9.5313,9.4058,9.3304,9.3078,9.2752,9.2576,9.2576,9.2375,9.2124,9.1773,8.8744,8.4697,7.9847,7.7067,7.3038,6.8301,6.8008,6.9484,7.1827,6.832,6.8806,7.1368,6.818,6.6821,6.6621,6.6621,6.6504,6.641,0.0,0.0,0.0,0.0,0.0,0.0,4.3297,4.3638,4.5569,5.1232,5.2469,5.2588,5.2063,5.0525,4.797,4.3992,0.0,0.0,0.0,0.0,0.0,0.0,0.0,0.0,0.0,0.0,4.6109,4.7582,4.7785,4.8935,0.0,0.0,5.2503,5.4262,0.0,0.0,0.0,0.0,0.0,0.0,0.0,0.0,0.0,0.0,0.0,0.0,0.0,0.0,0.0,0.0,0.0,6.1925,5.8201,6.3175,7.2665,8.4174,9.2328,9.8725,10.4014,10.7097,10.8114,10.5301,9.5521,8.4796,7.7702,6.7016,5.7249,5.2604,5.1014,5.1048,5.3112,5.4093,5.5848,5.9771,6.0796,6.3431,7.0141,7.3788,7.8437,8.5771,8.9642,9.3216,9.7019,9.8482,9.9029,9.8692,9.81,9.7409,9.6669,9.5062,9.3907,9.3405,9.3064,9.2727,9.2576,9.2576,9.1904,9.0457,8.7409,8.3485,7.8856,7.576,7.2855,7.0218,6.8791,7.0315,7.3434,6.8779,6.8806,7.1368,6.818,6.6938,6.6938,6.6938,6.6938,6.6938,0.0,0.0,0.0,0.0,0.0,0.0,0.0,0.0,4.6191,5.0626,5.1235,5.1235,5.1201,4.7954,4.6041,4.6684,0.0,0.0,0.0,0.0,0.0,0.0,0.0,0.0,0.0,0.0,4.5311,4.6819,4.7549,4.868,5.015,5.1623,5.2739,5.3551,0.0,0.0,0.0,0.0,0.0,0.0,0.0,0.0,5.8001,0.0,0.0,0.0,0.0,0.0,0.0,0.0,0.0,0.0,0.0,5.4481,5.9909,7.4666,8.678,9.6132,9.9871,10.4123,10.6618,10.3326,9.447,8.4284,7.5839,6.6645,5.8035,5.1463,5.071,5.1674,5.3213,5.4093,5.5848,5.9771,6.1556,6.4835,7.1527,7.5106,7.8891,8.4009,8.668,8.942,9.2847,9.6801,9.918,9.918,9.8678,9.8351,9.8351,9.6769,9.5137,9.3455,9.338,9.3129,9.2636,9.2576,9.0879,8.7429,8.6429,8.2467,7.5876,7.4887,7.4151,7.3521,6.9843,7.1661,7.6698,6.9738,6.8806,7.1368,6.818,6.6938,6.6938,6.6938,6.6938,6.6938,0.0,0.0,0.0,0.0,0.0,0.0,0.0,0.0,4.2831,4.7224,4.7893,4.8581,5.0129,4.7894,4.6404,4.6762,0.0,0.0,0.0,0.0,0.0,0.0,0.0,0.0,0.0,0.0,0.0,0.0,4.7022,4.868,5.1589,5.1048,5.2029,5.4228,5.3382,5.3585,0.0,0.0,0.0,0.0,5.5496,5.6596,5.8001,0.0,0.0,0.0,0.0,0.0,0.0,0.0,0.0,0.0,0.0,0.0,0.0,6.259,7.3404,8.4154,8.8451,9.2738,9.4728,8.9288,8.1628,7.4176,6.9435,6.1804,5.5111,5.2893,5.1776,5.1979,5.4515,5.4769,5.6539,6.2494,6.2939,6.436,6.9639,7.3926,7.8289,8.3021,9.0701,9.6084,9.7149,9.8432,9.918,9.918,9.9029,9.8778,9.844,9.7523,9.6267,9.4585,9.3807,9.2978,9.2049,9.0049,8.8154,8.6405,8.1476,7.7829,7.5306,7.2332,7.0927,7.0682,6.9269,7.0741,7.3903,6.922,6.9025,7.1368,6.818,6.6938,6.6938,6.6938,6.6938,6.6938,0.0,0.0,0.0,0.0,0.0,0.0,0.0,0.0,4.153,4.4519,4.5285,4.6512,4.9076,4.6373,4.5005,4.6558,0.0,0.0,0.0,0.0,0.0,0.0,0.0,0.0,0.0,0.0,0.0,0.0,0.0,0.0,5.3145,5.2248,5.2485,5.3687,5.3044,5.3044,0.0,0.0,0.0,0.0,5.5209,5.6494,5.8287,0.0,0.0,0.0,0.0,0.0,0.0,0.0,0.0,0.0,0.0,0.0,0.0,0.0,6.2649,7.1353,7.8694,8.4058,8.6509,8.2013,7.5531,6.9425,6.6184,5.9788,5.4195,5.3084,5.2317,5.2518,5.4644,5.4571,5.6092,6.1838,6.2063,6.3325,6.851,7.3269,7.8403,8.4261,9.2027,9.7004,9.727,9.8458,9.918,9.918,9.918,9.8954,9.844,9.7849,9.682,9.5162,9.4158,9.2608,9.0253,8.8154,8.5478,8.2132,7.7744,7.4808,7.3218,7.0593,7.0114,7.1162,6.9373,7.0908,0.0,6.9366,6.9027,7.1368,6.818,6.6938,6.6938,6.6938,6.6938,6.6938,0.0,0.0,0.0,0.0,0.0,0.0,0.0,0.0,0.0,0.0,0.0,4.4975,4.7796,4.3814,0.0,0.0,0.0,0.0,0.0,0.0,0.0,0.0,0.0,0.0,0.0,0.0,0.0,0.0,5.0067,5.1673,5.4668,0.0,5.389,5.2503,5.3247,5.3551,0.0,0.0,0.0,0.0,5.4906,5.6243,0.0,0.0,0.0,0.0,0.0,0.0,0.0,0.0,0.0,0.0,0.0,0.0,0.0,0.0,0.0,0.0,0.0,7.6896,8.0455,7.8912,7.3827,6.8289,6.4908,5.9702,0.0,5.2498,5.258,5.3375,5.4185,5.4058,5.5164,5.9234,6.0105,6.2359,6.8388,7.361,7.9721,8.761,9.1487,9.3748,9.4221,9.7284,9.918,9.918,9.918,9.8929,9.8452,9.7849,9.6719,9.4953,9.4191,9.1817,8.7553,8.6582,8.2759,7.62,7.5285,7.3263,7.0311,6.9655,7.1057,7.3768,7.0131,7.1825,7.6653,7.0004,6.8888,7.106,6.8075,6.6938,6.6938,6.6938,6.6938,6.6938,0.0,0.0,0.0,0.0,0.0,0.0,0.0,0.0,0.0,0.0,0.0,4.3294,4.4006,4.259,0.0,0.0,0.0,0.0,0.0,0.0,0.0,0.0,0.0,0.0,0.0,0.0,0.0,4.9255,4.983,5.1928,5.5428,5.5428,0.0,0.0,0.0,0.0,0.0,0.0,0.0,0.0,5.505,5.5192,0.0,0.0,0.0,0.0,5.6461,5.6596,0.0,0.0,0.0,0.0,0.0,0.0,0.0,0.0,5.2503,5.5138,5.9031,0.0,6.548,6.2259,6.0283,5.8752,0.0,5.5449,5.3991,5.3935,5.4522,5.5598,5.7498,5.7416,5.9033,6.4929,6.4594,6.567,7.1734,7.9213,8.6376,9.2661,9.6017,9.7294,9.6181,9.7965,9.918,9.918,9.8842,9.8703,9.9018,9.7673,9.5644,9.2944,9.1208,8.9156,8.6867,8.1559,7.8989,7.8982,7.3758,7.1853,7.2815,7.0179,6.9204,6.9751,7.119,7.1116,6.9992,7.075,6.9818,6.7969,6.7171,6.6938,6.6938,6.6938,6.6938,6.6938,0.0,0.0,0.0,0.0,0.0,0.0,0.0,0.0,0.0,0.0,0.0,0.0,0.0,0.0,0.0,0.0,0.0,0.0,0.0,0.0,0.0,0.0,0.0,0.0,0.0,0.0,0.0,0.0,0.0,5.3416,0.0,0.0,0.0,0.0,0.0,0.0,0.0,0.0,5.4674,5.4042,5.4502,0.0,0.0,0.0,0.0,0.0,5.5868,5.6037,0.0,5.7255,5.7018,5.5902,0.0,0.0,0.0,0.0,5.1251,5.2266,5.3737,5.69,5.9336,5.7627,5.6443,5.5597,5.5209,5.4262,5.3652,5.4191,5.5171,5.6408,5.7983,5.7691,5.8874,6.4062,6.4727,6.7839,7.7255,8.3827,8.9727,9.5325,9.7568,9.8452,9.7901,9.8678,9.918,9.918,9.8678,9.844,9.8427,9.7322,9.4842,9.0913,8.8171,8.5408,8.2656,7.837,7.5939,7.5438,7.1597,7.0375,7.1442,6.9612,6.8594,6.8377,7.1347,7.0682,6.7716,7.0773,6.9986,6.6938,6.6938,6.6938,6.6938,6.6938,6.6938,6.6938,0.0,0.0,0.0,0.0,0.0,0.0,0.0,0.0,0.0,0.0,0.0,0.0,0.0,0.0,0.0,0.0,0.0,0.0,0.0,0.0,0.0,0.0,0.0,0.0,0.0,0.0,0.0,0.0,0.0,0.0,0.0,0.0,0.0,0.0,0.0,0.0,0.0,0.0,5.5004,5.4381,5.3761,0.0,0.0,0.0,0.0,0.0,0.0,0.0,0.0,5.8457,5.8017,5.6427,5.619,0.0,0.0,0.0,0.0,0.0,5.2976,5.5945,5.8425,5.813,5.6943,5.5799,5.5522,5.4682,5.4122,5.4501,5.5776,5.7118,5.8131,5.7855,5.86,6.1958,6.4629,7.0604,8.3093,8.7419,9.1215,9.6449,9.7723,9.8345,9.8769,9.9029,9.918,9.9079,9.8591,9.8025,9.7509,9.6315,9.3457,8.865,8.5009,8.1126,7.7115,7.5759,7.3668,7.0851,6.9846,6.9441,6.9449,6.8905,6.8476,6.8161,7.0977,7.0375,6.7618,7.0526,6.9824,6.6938,6.6938,6.6938,6.6938,6.6938,6.6938,6.6938,0.0,0.0,0.0,0.0,0.0,0.0,0.0,0.0,0.0,0.0,0.0,0.0,0.0,0.0,0.0,0.0,0.0,0.0,0.0,0.0,0.0,0.0,0.0,0.0,0.0,0.0,0.0,0.0,0.0,0.0,6.1163,6.3565,6.2448,0.0,0.0,0.0,0.0,0.0,5.3764,5.3653,5.3554,0.0,0.0,0.0,0.0,0.0,0.0,0.0,0.0,5.5513,5.5226,5.4702,5.3416,0.0,0.0,0.0,0.0,0.0,5.7814,6.0057,6.0083,5.5075,5.5259,5.6212,5.4619,5.5329,5.6493,5.7159,5.847,6.0122,6.2177,6.3476,6.4935,6.7198,7.1623,7.7686,8.6083,8.9196,9.2148,9.6285,9.8067,9.8521,9.7196,9.8351,9.9004,9.8527,9.8025,9.7673,9.7484,9.3297,8.9436,8.6039,8.1407,7.7007,7.2953,7.2004,7.2482,7.43,7.0966,7.0482,7.237,6.9571,6.7851,6.7304,7.0443,6.9967,6.7269,7.0402,6.9824,6.6938,6.6938,6.6938,6.6938,6.6938,6.6938,6.6938,0.0,0.0,0.0,0.0,0.0,0.0,0.0,0.0,0.0,0.0,0.0,0.0,0.0,0.0,0.0,0.0,0.0,0.0,0.0,0.0,0.0,0.0,0.0,0.0,0.0,0.0,0.0,0.0,0.0,5.9438,6.4275,6.3632,6.1569,5.8324,0.0,0.0,0.0,0.0,5.4349,5.2889,0.0,0.0,0.0,0.0,0.0,0.0,0.0,0.0,0.0,0.0,5.619,5.5141,5.4837,0.0,0.0,0.0,0.0,0.0,5.6359,5.7815,5.8276,5.7223,5.9144,6.0724,5.8463,5.8059,5.837,5.9088,5.9608,6.0535,6.2623,6.6008,7.0242,7.5756,7.9001,8.2777,8.843,9.1154,9.3617,9.6592,9.7875,9.8446,9.8077,9.8753,9.8954,9.8427,9.7938,9.7322,9.6656,9.2326,8.8147,8.4261,7.9899,7.5602,7.1308,7.043,7.0812,7.2347,6.9923,6.9355,7.0368,6.8614,6.7505,6.7064,7.032,6.9906,6.7151,7.0361,6.9824,6.6938,6.6938,6.6938,6.6938,6.6938,6.6938,6.6938,0.0,0.0,0.0,0.0,0.0,0.0,0.0,0.0,0.0,0.0,0.0,0.0,0.0,0.0,0.0,0.0,0.0,0.0,0.0,0.0,0.0,0.0,0.0,0.0,0.0,0.0,5.1235,5.6477,5.849,6.2178,6.7286,6.3903,6.0825,0.0,0.0,0.0,0.0,0.0,5.4483,5.2585,0.0,0.0,0.0,0.0,0.0,0.0,0.0,0.0,0.0,0.0,0.0,0.0,0.0,0.0,0.0,5.2875,5.257,5.3078,5.5277,5.6529,5.7836,6.0709,6.2604,6.3658,6.3337,6.1857,6.1037,6.27,6.28,6.2917,6.4126,6.9534,7.5996,8.2615,8.5656,8.8201,9.1254,9.3477,9.5483,9.7336,9.7986,9.8511,9.9122,9.9105,9.8778,9.8264,9.7573,9.6769,9.5765,9.1024,8.6643,8.3048,7.8381,7.4185,7.0566,6.9661,6.9453,6.9805,6.8711,6.8125,6.8008,6.7656,6.7265,6.7045,6.9513,6.9202,6.7064,6.9533,6.9098,6.6938,6.6938,6.6938,6.6938,6.6938,6.6938,6.6855,0.0,0.0,0.0,0.0,0.0,0.0,0.0,0.0,0.0,0.0,0.0,0.0,0.0,0.0,0.0,0.0,0.0,0.0,0.0,0.0,0.0,0.0,0.0,0.0,0.0,5.1322,5.3534,5.8743,6.2381,6.5764,6.8876,6.6474,6.3057,5.8847,0.0,0.0,0.0,0.0,5.278,5.3169,5.2599,0.0,0.0,0.0,0.0,0.0,0.0,0.0,0.0,0.0,0.0,0.0,0.0,0.0,5.2604,5.3247,5.3416,5.4329,5.8558,6.0575,6.1958,6.3994,6.1949,6.1135,6.7551,6.6579,6.5565,6.9973,7.0966,7.0695,6.967,7.6763,8.3163,8.4401,9.0646,9.5371,9.5499,9.6578,9.7777,9.8897,9.9124,9.9122,9.918,9.8767,9.8201,9.7585,9.6581,9.5765,9.5162,8.7787,8.3264,8.2554,7.5609,7.1264,7.0156,6.9277,6.8867,6.8887,6.8418,6.7949,6.7558,6.75,6.7265,6.6938,6.7151,6.7127,6.6938,6.7151,6.7127,6.6938,6.6938,6.6938,6.6938,6.6938,6.6938,6.6816,0.0,0.0,0.0,0.0,0.0,0.0,0.0,0.0,0.0,0.0,0.0,0.0,0.0,0.0,0.0,0.0,0.0,0.0,0.0,0.0,0.0,0.0,0.0,5.1569,5.2256,5.5206,5.9047,6.3849,6.8064,6.9789,6.9083,6.5862,0.0,0.0,0.0,0.0,0.0,0.0,5.4509,5.4796,5.3975,5.3559,0.0,0.0,0.0,0.0,0.0,0.0,0.0,0.0,5.3822,5.3585,5.2739,5.3365,5.4109,5.252,5.2757,5.3957,5.6089,5.8893,6.1747,6.3933,6.3737,6.4608,7.0754,6.9905,6.9198,7.4007,7.4966,7.5935,7.9182,8.141,8.4503,8.9686,9.3361,9.5966,9.7285,9.81,9.8753,9.913,9.918,9.9094,9.8703,9.8541,9.7849,9.6581,9.6142,9.5238,9.3641,8.6659,8.2333,8.1462,7.4414,7.043,7.0097,6.8984,6.8418,6.8418,6.7715,6.7441,6.75,6.7207,6.7031,6.6938,6.6938,6.6938,6.6938,6.6938,6.6938,6.6938,6.6938,6.6938,6.6938,6.6938,6.6938,6.6855,0.0,0.0,0.0,0.0,0.0,0.0,0.0,0.0,0.0,0.0,0.0,0.0,0.0,0.0,0.0,0.0,0.0,0.0,0.0,0.0,0.0,0.0,0.0,5.2158,5.3262,5.8972,6.3322,6.6136,7.1312,7.2005,6.8419,0.0,0.0,0.0,0.0,0.0,0.0,0.0,0.0,0.0,5.5499,5.4804,0.0,0.0,0.0,0.0,0.0,0.0,0.0,0.0,5.3145,5.3094,5.2469,5.3365,5.4312,5.2723,5.2875,5.3619,5.4126,5.6515,5.953,6.2515,6.4618,6.7942,7.5454,7.3657,7.2383,7.9317,7.9755,8.0118,8.4241,8.4871,8.6448,9.1637,9.5209,9.7603,9.8504,9.8954,9.918,9.918,9.918,9.9018,9.8427,9.8089,9.7322,9.5991,9.5238,9.3754,9.1185,8.5252,8.1062,7.91,7.3109,6.9805,6.9687,6.8535,6.7969,6.7949,6.727,6.7031,6.7265,6.7055,6.6938,6.6938,6.6938,6.6938,6.6875,6.6762,6.6504,6.6289,6.6406,6.6465,6.6527,6.6621,6.668,6.6515,0.0,0.0,0.0,0.0,0.0,0.0,0.0,0.0,0.0,0.0,0.0,0.0,0.0,0.0,0.0,0.0,0.0,0.0,0.0,0.0,0.0,0.0,0.0,5.2224,5.5462,6.2277,6.5451,6.4668,7.1334,7.1937,6.6865,6.6204,0.0,0.0,0.0,0.0,0.0,0.0,0.0,0.0,5.6888,5.6443,5.5533,0.0,0.0,0.0,0.0,0.0,0.0,0.0,5.1319,5.0658,5.3636,5.3551,5.2638,5.416,5.4093,5.3551,5.3518,5.4109,5.5714,5.9992,6.4212,7.0353,8.1965,7.808,7.5173,8.6588,8.5977,8.3399,8.3479,8.7232,9.0047,8.9162,9.6347,10.1394,9.9454,9.918,9.918,9.918,9.918,9.8954,9.844,9.7347,9.6493,9.5916,9.3832,9.1147,8.7763,8.3221,7.9056,7.5332,7.1402,6.9219,6.8808,6.7949,6.75,6.75,6.709,6.6938,6.6938,6.6938,6.6938,6.6938,6.6938,6.6938,6.6879,6.6387,6.5703,6.4938,6.541,6.5586,6.5644,6.6035,6.6148,6.5613,0.0,0.0,0.0,0.0,0.0,0.0,0.0,0.0,0.0,0.0,0.0,0.0,0.0,0.0,0.0,0.0,0.0,0.0,0.0,0.0,0.0,0.0,0.0,0.0,0.0,0.0,6.3828,7.1194,7.1608,6.9898,0.0,0.0,0.0,6.1515,0.0,0.0,0.0,0.0,0.0,0.0,5.7689,5.7204,5.6426,0.0,0.0,0.0,0.0,0.0,0.0,0.0,0.0,0.0,5.2097,5.3721,5.5344,5.4786,5.5175,5.5716,5.5192,5.8518,6.2643,6.482,7.0406,7.7254,8.4397,8.1793,8.0237,8.8572,8.8616,8.7593,8.8926,9.0786,9.2015,9.1561,9.4971,9.81,9.9057,9.918,9.9029,9.8678,9.8602,9.81,9.6769,9.6343,9.5414,9.3742,9.2988,9.0479,8.5685,8.1884,7.7976,7.3858,7.0384,6.8476,6.8359,6.7773,6.75,6.75,6.709,6.6938,6.6938,6.6938,6.6938,6.6938,6.6938,6.6699,6.6387,6.5937,6.5407,6.4938,6.541,6.541,6.4887,6.2873,6.2186,6.1718,0.0,0.0,0.0,0.0,0.0,0.0,0.0,0.0,0.0,0.0,0.0,0.0,0.0,0.0,0.0,0.0,0.0,0.0,0.0,0.0,0.0,0.0,0.0,0.0,0.0,5.7736,6.3021,0.0,0.0,0.0,0.0,0.0,0.0,6.4467,0.0,6.5963,0.0,0.0,6.0112,5.8547,5.9171,5.8767,5.7705,0.0,0.0,0.0,0.0,0.0,0.0,0.0,0.0,0.0,5.1505,5.3196,5.5074,5.5378,5.5243,5.5357,5.6924,6.037,6.458,6.9233,7.493,8.0696,8.5656,8.6889,8.7933,9.1269,9.1102,9.0496,9.0892,9.177,9.26,9.3087,9.5276,9.7422,9.8954,9.9004,9.8753,9.844,9.8,9.7247,9.6016,9.5313,9.4158,9.2401,9.0471,8.7276,8.2476,7.8844,7.5172,7.1278,6.9057,6.791,6.791,6.748,6.7148,6.6972,6.6914,6.6699,6.641,6.6762,6.6938,6.6875,6.668,6.6269,6.5621,6.541,6.5,6.4492,6.4902,6.4065,6.2437,6.0843,5.9414,5.7763,0.0,0.0,0.0,0.0,0.0,0.0,0.0,0.0,0.0,0.0,4.4901,0.0,0.0,0.0,0.0,0.0,0.0,0.0,0.0,0.0,4.8333,4.8406,5.0215,5.3702,5.8976,6.1887,6.2144,0.0,0.0,0.0,0.0,0.0,6.7714,6.8532,0.0,7.1636,6.6839,6.6728,6.3635,5.8939,6.0676,6.0419,5.8844,5.7484,0.0,0.0,0.0,0.0,0.0,0.0,0.0,0.0,5.1522,5.23,5.2976,5.5784,5.4987,5.4246,5.9076,6.1176,6.4328,7.3877,7.9043,8.2986,8.7365,9.2783,9.6162,9.3696,9.3149,9.2554,9.0692,9.1608,9.2987,9.4158,9.6594,9.8516,9.9018,9.8616,9.8264,9.8189,9.7247,9.6317,9.5665,9.4158,9.2802,9.1647,8.7437,8.3045,7.8814,7.5322,7.1785,6.8195,6.7676,6.7441,6.7441,6.7031,6.6621,6.6211,6.6582,6.6348,6.5667,6.6445,6.6797,6.6738,6.6289,6.5644,6.4821,6.4821,6.4375,6.3672,6.414,6.2168,5.9179,5.9318,5.7204,5.3827,0.0,0.0,0.0,0.0,0.0,0.0,0.0,0.0,0.0,0.0,0.0,0.0,0.0,0.0,0.0,0.0,0.0,0.0,0.0,0.0,4.86,4.927,5.2685,5.5721,5.8217,5.7714,5.6528,5.4755,0.0,0.0,0.0,0.0,0.0,6.6767,0.0,6.7912,6.2378,6.0106,5.7716,5.5684,5.8572,5.8756,5.7276,5.6978,5.6127,0.0,0.0,0.0,0.0,0.0,0.0,0.0,5.093,5.2249,5.3484,5.4702,5.7449,6.0637,6.3193,6.8086,7.4128,8.1433,8.8428,9.4361,9.7374,9.6782,9.4586,9.0953,9.3353,9.5345,9.3126,9.5829,9.784,9.5872,9.6769,9.7837,9.7924,9.7422,9.692,9.6493,9.584,9.4886,9.3466,9.2576,9.1471,8.994,8.8456,8.4728,7.7944,7.6844,7.3538,6.7358,6.7114,6.7055,6.7055,6.6562,6.6328,6.6211,6.5996,6.5762,6.5586,6.6113,6.6172,6.582,6.541,6.488,6.4433,6.4433,6.3904,6.3202,6.4023,6.1998,5.8474,5.6212,5.3198,4.9843,0.0,0.0,0.0,0.0,0.0,0.0,0.0,0.0,0.0,0.0,0.0,0.0,0.0,0.0,0.0,0.0,0.0,0.0,0.0,0.0,0.0,0.0,5.4436,5.6198,5.6271,5.5842,5.4263,5.1463,0.0,0.0,0.0,0.0,0.0,6.9206,0.0,6.8407,6.3584,6.1267,5.8446,5.5794,5.8646,5.8792,5.7336,5.6957,5.5574,5.3564,5.116,0.0,0.0,0.0,0.0,0.0,0.0,0.0,5.2689,5.416,5.6742,6.0307,6.5987,7.1635,7.8183,8.7803,9.4648,9.9191,9.954,9.7581,9.5182,9.337,9.442,9.5368,9.4413,9.6618,9.804,9.6517,9.7021,9.7498,9.7247,9.6669,9.6142,9.5564,9.456,9.3556,9.2652,9.1371,9.0116,8.9018,8.5323,8.1279,7.7089,7.4012,7.0629,6.7045,6.668,6.6562,6.6562,6.6113,6.582,6.5586,6.5586,6.5371,6.5,6.541,6.5351,6.4961,6.4531,6.4082,6.373,6.3906,6.3613,6.3105,6.3965,6.0944,5.6008,5.463,5.0913,4.6434,0.0,0.0,0.0,0.0,0.0,0.0,0.0,0.0,0.0,0.0,0.0,0.0,0.0,0.0,0.0,0.0,0.0,0.0,0.0,0.0,0.0,0.0,5.5379,5.6051,5.484,5.5181,5.3639,5.0004,0.0,0.0,0.0,0.0,0.0,7.1992,0.0,6.9257,6.564,6.3219,5.9942,5.6554,5.8731,5.8767,5.7483,0.0,0.0,5.2051,5.1065,4.9531,4.8211,4.9548,0.0,0.0,0.0,0.0,5.142,5.3416,5.4967,5.7975,6.6793,7.3659,8.1236,9.3534,9.8446,10.0003,9.9107,9.7053,9.5613,9.6737,9.5452,9.4233,9.4836,9.574,9.6393,9.6317,9.6769,9.692,9.6242,9.5665,9.5137,9.4585,9.3229,9.2225,9.2059,9.0291,8.8885,8.8265,8.1821,7.7507,7.6469,7.0813,6.7348,6.6821,6.6348,6.6055,6.5996,6.5586,6.5176,6.4824,6.5117,6.4844,6.4082,6.4375,6.4295,6.4082,6.373,6.334,6.2909,6.3398,6.3319,6.3006,6.3202,5.9351,5.3547,5.3336,4.9334,4.4008,0.0,0.0,0.0,0.0,0.0,0.0,0.0,0.0,0.0,0.0,4.4011,4.3653,0.0,0.0,0.0,0.0,0.0,0.0,4.7186,0.0,0.0,5.3104,5.484,5.5978,5.648,5.5207,5.3592,0.0,0.0,0.0,0.0,0.0,0.0,6.9972,0.0,0.0,6.2565,5.6999,5.4682,5.4803,5.5842,5.6099,0.0,0.0,0.0,0.0,5.0608,4.9758,4.9623,4.9896,4.9497,0.0,0.0,0.0,5.0439,5.1386,5.4401,5.8507,6.3408,7.5551,8.9155,9.9091,9.9087,9.7587,10.152,9.6833,9.2636,9.6248,9.5169,9.3656,9.4233,9.4886,9.5137,9.4635,9.5062,9.5062,9.3982,9.338,9.2827,9.23,9.1597,9.0768,8.9814,8.9036,8.8189,8.7103,8.3103,7.943,7.658,7.2631,6.919,6.6371,6.5879,6.5469,6.5056,6.4646,6.4433,6.4375,6.4082,6.3672,6.3143,6.2871,6.2871,6.3143,6.3085,6.2871,6.2539,6.293,6.3026,6.2768,6.0277,5.7184,5.3669,5.0833,4.7304,4.4008,0.0,0.0,0.0,0.0,0.0,0.0,0.0,0.0,0.0,0.0,0.0,4.3506,0.0,0.0,0.0,4.5259,4.57,4.6434,4.7672,4.894,5.0261,5.1783,5.3408,5.3775,5.2747,5.3371,5.226,0.0,0.0,0.0,0.0,6.4494,6.7739,0.0,0.0,0.0,0.0,5.6761,5.4609,5.5757,5.5658,5.6863,0.0,0.0,0.0,0.0,0.0,0.0,4.9273,4.9367,4.9203,4.9086,4.9492,0.0,0.0,0.0,5.4382,5.9523,7.0193,8.0357,9.0326,10.0504,10.0396,9.8685,10.23,9.8319,9.437,9.6169,9.4398,9.2878,9.3982,9.4409,9.4485,9.4233,9.4158,9.3893,9.3053,9.22,9.1446,9.0944,9.009,8.9362,8.8885,8.6412,8.4635,8.4148,7.8716,7.4854,7.3433,6.9944,6.7368,6.5879,6.5234,6.4785,6.459,6.3906,6.3553,6.3553,6.3398,6.3105,6.2656,6.248,6.248,6.2637,6.2402,6.2187,6.2012,6.248,6.1474,5.9481,5.865,5.5227,5.0497,4.9294,4.6771,4.3968,0.0,0.0,0.0,0.0,0.0,0.0,0.0,0.0,0.0,0.0,0.0,0.0,0.0,0.0,0.0,0.0,4.6104,4.6792,4.8223,4.8893,4.9527,5.0141,5.1536,5.1426,4.9564,5.1536,0.0,0.0,0.0,0.0,6.4763,6.699,7.1064,0.0,6.8713,6.5722,0.0,0.0,0.0,0.0,0.0,0.0,0.0,0.0,0.0,0.0,0.0,0.0,0.0,4.8841,4.8802,4.912,4.988,5.1116,0.0,0.0,0.0,5.9482,7.298,8.0504,8.7032,9.7529,9.9108,9.8822,10.1909,9.8889,9.5585,9.5933,9.3531,9.1798,9.3129,9.338,9.338,9.338,9.2903,9.2401,9.2059,9.102,9.0107,8.9764,8.8115,8.7014,8.6832,8.3084,8.0576,8.0435,7.438,7.0665,7.0665,6.7113,6.5117,6.5117,6.4375,6.3906,6.3808,6.3164,6.2812,6.2695,6.2695,6.2461,6.209,6.1972,6.1894,6.1894,6.166,6.1601,6.1719,6.1953,6.0054,5.7051,5.6764,5.3133,4.8022,4.747,4.5794,4.3754,0.0,0.0,0.0,0.0,0.0,0.0,0.0,0.0,0.0,0.0,0.0,0.0,0.0,0.0,4.4993,4.5847,4.6608,4.7406,4.8223,4.8333,4.837,4.8443,4.9307,0.0,4.961,5.0472,5.0435,0.0,0.0,0.0,6.6439,7.0367,7.6423,8.3728,7.6393,7.1462,6.8261,0.0,0.0,0.0,0.0,0.0,0.0,0.0,0.0,0.0,0.0,0.0,0.0,0.0,4.844,4.912,4.988,5.1116,5.23,0.0,0.0,0.0,6.4738,7.144,7.8705,8.8672,9.3059,9.6052,10.0177,9.7237,9.3916,9.5197,9.2663,9.0367,9.096,9.1036,9.1036,9.1036,9.0618,9.0266,9.0208,8.9287,8.8616,8.8616,8.5425,8.2963,8.2403,7.9016,7.666,7.6151,7.2172,6.98,6.98,6.599,6.3789,6.3789,6.334,6.2871,6.248,6.2422,6.2187,6.1777,6.1777,6.1543,6.1152,6.0723,6.049,6.0547,6.0957,6.1367,6.166,6.1308,5.9713,5.7153,5.3956,5.0872,4.7847,4.4858,4.3497,4.3167,0.0,0.0,0.0,0.0,0.0,0.0,0.0,0.0,0.0,0.0,0.0,0.0,0.0,4.4232,4.503,4.5847,4.7131,4.8003,4.826,4.8296,4.8296,4.8296,4.9123,4.9344,4.8783,5.0105,5.0141,0.0,0.0,5.5941,6.3429,6.7517,7.2899,7.8919,7.3707,7.1027,6.9765,5.9636,0.0,0.0,0.0,0.0,0.0,0.0,0.0,0.0,0.0,5.5481,5.5178,0.0,0.0,0.0,0.0,5.2976,5.3856,5.4346,5.575,5.8503,6.4896,6.9033,7.4052,8.4169,8.7987,9.0354,9.4627,9.3836,9.2251,9.244,9.064,8.9011,8.8835,8.9362,9.0015,9.0342,8.9639,8.9036,8.9036,8.8107,8.6613,8.4568,8.2614,8.0548,7.8274,7.4481,7.2059,7.1929,6.8172,6.5869,6.5869,6.3938,6.2891,6.2891,6.2129,6.1601,6.1133,6.1133,6.1035,6.0841,6.0841,6.0801,6.0664,6.0508,6.0372,6.0372,6.0548,6.0898,6.1308,6.1426,5.8495,5.3886,5.261,4.9082,4.4505,4.3413,4.302,4.31,0.0,0.0,0.0,0.0,0.0,0.0,0.0,0.0,0.0,0.0,0.0,0.0,0.0,0.0,4.5989,4.6663,4.7672,4.8406,4.871,4.8746,4.8857,4.914,4.9711,4.9858,4.9554,5.0912,5.0655,0.0,0.0,0.0,0.0,6.5534,7.1005,7.6717,7.1578,7.1101,0.0,0.0,6.141,6.2754,6.1379,6.3735,6.7658,6.407,0.0,0.0,0.0,5.9271,5.8398,5.692,0.0,0.0,0.0,5.4757,5.5108,5.5834,5.6765,5.8467,6.2792,6.5972,7.0327,7.971,8.2944,8.5309,9.0993,9.1352,9.045,9.0178,8.935,8.8459,8.7725,8.7755,8.8182,8.9111,8.8358,8.7705,8.7881,8.6625,8.4945,8.301,8.0052,7.7366,7.5224,7.0607,6.7671,6.7671,6.4911,6.3282,6.3282,6.2422,6.1914,6.1719,6.1152,6.0742,6.0372,6.0372,6.0372,6.0372,6.0273,6.0215,6.0215,6.0041,5.9982,5.9982,6.0156,6.0566,6.1055,6.0185,5.6744,5.1908,5.0811,4.7128,4.2576,4.2683,4.2726,4.2806,0.0,0.0,0.0,0.0,0.0,0.0,0.0,0.0,0.0,0.0,0.0,0.0,0.0,0.0,0.0,4.8381,4.8443,4.8783,4.9527,4.961,4.9968,5.0765,5.0802,5.1169,5.1987,5.2747,5.1977,4.9647,0.0,0.0,0.0,0.0,7.1262,7.7928,7.0895,7.2143,7.9302,7.5799,7.3546,7.1984,6.848,6.8433,7.0483,7.0377,7.0388,6.9942,6.5408,6.2459,6.0423,5.8895,0.0,0.0,0.0,0.0,0.0,5.6664,5.6867,5.7036,0.0,0.0,0.0,7.4773,7.7749,8.1084,8.9519,8.969,8.8168,8.852,8.867,8.8523,8.7636,8.6174,8.5591,8.7253,8.66,8.6098,8.66,8.4843,8.3608,8.4051,7.7878,7.3547,7.3352,6.7544,6.3772,6.3633,6.2891,6.2363,6.2363,6.1562,6.0859,6.0372,6.039,6.039,6.039,6.039,6.039,6.039,5.998,5.9805,5.9765,5.9355,5.918,5.9235,5.9629,6.0255,6.067,5.7528,5.4537,5.1665,4.8371,4.5077,4.2258,4.2552,4.2472,4.2258,0.0,0.0,0.0,0.0,0.0,0.0,0.0,0.0,0.0,0.0,0.0,0.0,0.0,0.0,0.0,5.1042,5.205,5.183,4.9757,4.961,4.9968,5.0765,5.0802,5.1169,5.1987,5.1646,5.1132,5.0472,5.0362,5.1893,5.4939,5.8253,6.3392,6.9853,6.9559,7.0674,7.2239,6.431,6.3392,6.7231,6.6407,6.879,7.2649,7.1364,7.3068,7.5657,7.2203,7.0857,7.0546,6.9645,6.6231,6.1867,0.0,0.0,0.0,0.0,5.8371,5.8457,5.8641,0.0,0.0,0.0,0.0,0.0,7.9316,8.1182,8.2389,8.4064,8.3549,8.3147,8.4411,8.4567,8.4662,8.5144,8.4667,8.424,8.4416,8.3537,8.2098,7.9933,7.7672,7.433,6.9574,6.7172,6.4905,6.2461,6.2012,6.1777,6.1503,6.0625,5.998,5.9531,5.9531,5.9531,5.9531,5.9531,5.9531,5.9531,5.9414,5.9355,5.9355,5.9238,5.918,5.9235,5.9629,5.8768,5.7104,5.6443,5.4537,5.1665,4.8371,4.5077,4.2218,4.2298,4.2298,4.2218,0.0,0.0,0.0,0.0,0.0,0.0,0.0,0.0,0.0,0.0,0.0,0.0,0.0,0.0,0.0,0.0,5.3225,5.2747,5.1206,5.0151,5.0115,5.1242,5.0986,5.1169,5.1987,5.1867,5.1316,5.0298,5.0325,5.0975,5.226,5.5023,5.9024,6.4016,6.5081,6.6109,6.6586,5.9575,6.0162,6.6119,6.997,7.3567,7.6597,7.6826,7.8653,8.0738,7.8136,7.6866,7.6276,7.5956,7.1405,6.5359,0.0,0.0,0.0,0.0,0.0,6.0047,0.0,0.0,6.1941,6.5561,0.0,0.0,7.5958,7.7622,7.8705,8.1478,8.1744,8.1573,8.204,8.2583,8.301,8.3236,8.2633,8.2357,8.306,8.2081,8.0617,7.8754,7.6814,7.3632,6.8621,6.6755,6.4621,6.1384,6.1133,6.0958,6.0566,6.0098,5.9629,5.918,5.9004,5.8887,5.8887,5.8887,5.8887,5.8887,5.9121,5.918,5.918,5.918,5.918,5.9163,5.808,5.6713,5.5195,5.2751,5.1074,4.9618,4.6325,4.3866,4.2218,4.2218,4.2218,4.2218,0.0,0.0,0.0,0.0,0.0,0.0,0.0,0.0,0.0,0.0,0.0,0.0,0.0,0.0,0.0,0.0,5.3775,5.2931,5.3324,5.1179,5.0482,5.195,5.1316,5.1279,5.1987,5.2784,5.2123,4.9867,5.2013,5.237,5.1132,5.3995,5.7005,5.9967,5.9269,6.0187,6.2132,5.9795,6.1862,6.7418,7.5783,7.9739,8.0982,8.4052,8.5174,8.4852,8.3068,8.1196,7.9533,7.9121,7.4692,6.8783,6.5936,0.0,0.0,0.0,6.152,0.0,0.0,0.0,0.0,6.759,6.6914,0.0,7.5773,7.6489,7.6178,7.9338,8.0862,8.129,7.9995,8.0167,8.0675,8.0979,8.0416,8.0559,8.226,8.065,7.9294,7.9294,7.6058,7.25,6.9353,6.671,6.3845,6.0579,6.0314,6.0215,5.9824,5.9765,5.9531,5.9121,5.8655,5.8421,5.8421,5.8421,5.8476,5.8535,5.8965,5.918,5.918,5.918,5.9012,5.8525,5.5722,5.4326,5.3602,4.794,4.6176,4.6689,4.3392,4.2111,4.2111,4.2111,4.2111,4.2111,0.0,0.0,0.0,0.0,0.0,0.0,0.0,0.0,0.0,0.0,0.0,0.0,0.0,0.0,0.0,0.0,0.0,5.6774,0.0,0.0,5.1657,5.1987,5.184,5.184,5.1987,5.2784,5.2627,5.1546,5.1987,5.2417,5.2737,5.3361,5.5049,5.7508,5.7324,5.7875,5.9134,6.2475,6.5428,6.8339,7.3571,7.7775,8.1322,8.5157,8.6173,8.5499,8.5114,8.5379,8.5336,8.1531,7.7578,7.3477,6.9154,6.5861,6.3503,6.3182,6.3079,0.0,0.0,0.0,0.0,6.5256,6.732,0.0,6.8439,7.034,7.2332,7.2953,7.356,7.4612,7.6577,7.7316,7.7393,7.6388,7.7498,7.9177,8.106,7.9821,7.8691,7.8691,7.7555,7.4663,6.9101,6.8368,6.5957,6.0337,5.9922,5.9865,5.9805,5.9473,5.9121,5.8652,5.8203,5.8043,5.8043,5.8043,5.8183,5.8535,5.8965,5.918,5.918,5.918,5.7813,5.5401,5.4757,5.1827,4.7359,4.6118,4.5892,4.6067,4.2786,4.1461,4.1461,4.1461,4.1461,4.1501,0.0,0.0,0.0,0.0,0.0,0.0,0.0,0.0,0.0,0.0,0.0,0.0,0.0,0.0,0.0,0.0,0.0,0.0,0.0,0.0,5.1987,5.1987,5.238,5.2784,5.3188,5.3177,5.3177,5.3188,5.2784,5.3004,5.3812,5.4216,5.484,5.5647,5.6859,5.6748,5.5904,6.037,6.4371,6.8444,7.744,8.2922,8.6257,9.1333,9.2379,9.1011,8.9994,8.9227,8.7946,8.2894,7.9667,7.6963,7.2157,6.9244,6.7568,6.7215,6.6608,6.5953,6.5299,6.5155,6.5425,6.6576,6.7387,0.0,0.0,6.9267,7.0281,7.1066,7.172,7.2562,7.4135,7.5159,7.5568,7.5092,7.608,7.7019,7.7457,7.7847,7.8013,7.7737,7.721,7.4571,6.8581,6.8202,6.5877,5.9941,5.9512,5.9512,5.9512,5.9121,5.8769,5.8535,5.7676,5.7324,5.7539,5.7324,5.7441,5.7836,5.8535,5.8831,5.8811,5.7455,5.5969,5.43,5.1159,4.8105,4.5234,4.3703,4.3199,4.3248,4.1833,4.1274,4.1274,4.1274,4.1274,4.1314,4.4705,0.0,0.0,0.0,0.0,0.0,0.0,0.0,0.0,0.0,0.0,0.0,0.0,0.0,0.0,0.0,0.0,0.0,0.0,0.0,5.25,5.1573,5.2747,5.3434,5.3445,5.3434,5.3654,5.4179,5.3654,5.3849,5.4656,5.5291,5.5438,5.5196,5.7443,5.7003,5.4855,5.87,6.3766,7.0284,8.2204,8.7657,8.9252,9.5639,9.674,9.4719,9.3622,9.185,8.9284,8.4138,8.1674,7.9918,7.4965,7.2788,7.1992,7.1436,7.0531,6.9477,6.8226,6.776,6.7861,6.8842,6.8673,6.8693,0.0,0.0,0.0,7.0973,7.1579,7.1997,7.2432,7.3272,7.3812,7.3688,7.43,7.428,7.2732,7.458,7.6093,7.6013,7.5689,7.3526,6.8616,6.7455,6.4833,5.9603,5.9327,5.9303,5.9196,5.8769,5.8476,5.8363,5.7226,5.6758,5.709,5.6758,5.6797,5.7226,5.8027,5.8421,5.8389,5.5615,5.4079,5.3309,4.7566,4.4743,4.4027,4.153,4.0481,4.0508,4.0989,4.1163,4.1163,4.1163,4.1163,4.1128,4.5475,4.624,0.0,0.0,0.0,0.0,0.0,0.0,0.0,0.0,0.0,0.0,0.0,0.0,0.0,0.0,0.0,0.0,6.6066,0.0,0.0,5.0058,5.2685,5.2931,5.0105,5.2821,5.3959,5.3324,5.3959,5.4693,5.5475,5.5548,5.6319,5.768,5.9232,5.9818,5.9784,6.3007,6.9227,7.7442,8.3085,8.3925,8.2629,9.0109,9.1199,8.8997,9.1093,9.1655,9.0666,8.6083,8.4167,8.2747,7.7584,7.6209,7.6049,7.3832,7.3328,7.321,7.2065,7.3138,7.368,7.0026,7.3375,7.5932,6.9692,0.0,7.2477,7.0706,0.0,7.0654,7.1342,0.0,0.0,6.8477,7.0139,7.0657,6.7598,6.8984,7.096,7.27,7.3031,7.2364,7.0454,6.6939,6.32,5.9501,5.9709,5.9761,5.9246,5.8769,5.8359,5.7969,5.7051,5.6601,5.666,5.6601,5.6797,5.7226,5.7715,5.8144,5.8389,5.5282,5.2557,5.0139,4.6596,4.3564,4.1013,4.0636,4.0481,4.0542,4.0548,4.0588,4.0588,4.0588,4.0588,4.0615,4.624,4.6658,4.7851,0.0,0.0,0.0,0.0,0.0,0.0,0.0,0.0,0.0,0.0,0.0,0.0,0.0,0.0,6.4921,0.0,0.0,0.0,0.0,5.528,5.5611,5.3775,5.462,5.517,5.5269,5.4693,5.506,5.6308,5.6308,5.6675,5.7437,6.0232,6.1492,6.1706,6.4959,6.9646,7.5319,8.0441,8.148,8.1189,9.2213,9.4419,9.1777,9.2507,9.2524,9.153,8.7356,8.5156,8.3696,8.0975,7.8282,7.6227,7.6595,7.5222,7.3219,7.1549,7.3151,7.4606,7.1738,7.3562,0.0,7.1895,0.0,7.1041,7.1379,0.0,0.0,0.0,0.0,0.0,0.0,6.8992,6.8233,6.5891,6.6606,6.8066,6.9976,6.9929,6.8689,6.5941,6.3922,6.1304,5.7555,5.845,5.8754,5.7737,5.7734,5.7676,5.748,5.666,5.6328,5.6582,5.6328,5.6426,5.6855,5.7285,5.7578,5.7629,5.3136,5.0512,4.9219,4.449,4.1697,4.0481,4.0481,4.0481,4.0481,4.0481,4.0481,4.0481,4.0481,4.0481,4.0542,4.6966,4.7043,4.7812,5.0697,5.1859,0.0,0.0,0.0,0.0,0.0,0.0,0.0,7.5652,7.4869,7.5027,7.7182,7.3368,6.9866,0.0,0.0,6.1006,0.0,5.7368,5.7489,5.6403,5.5646,5.5574,5.6161,5.4987,5.5464,5.7435,5.6994,5.7251,5.828,6.209,6.43,6.5386,6.913,7.3567,7.8358,8.2321,8.4214,8.5535,9.3314,9.5325,9.3984,9.3505,9.3002,9.2039,8.8316,8.625,0.0,8.3644,8.0959,7.8557,7.9629,7.8179,7.5557,7.2925,7.4502,7.6174,7.3393,7.387,0.0,0.0,0.0,0.0,7.2191,7.1853,0.0,0.0,0.0,7.0041,6.9619,0.0,6.663,6.4472,6.457,6.5389,6.6931,6.735,6.605,6.2398,6.2431,6.0878,5.6437,5.7554,5.7769,5.6319,5.664,5.6914,5.7031,5.6543,5.6387,5.6582,5.6387,5.6387,5.6582,5.6894,5.709,5.701,5.1452,4.9022,4.889,4.2959,4.0361,4.0361,4.0441,4.0441,4.0361,4.0441,4.0481,4.0481,4.0481,4.0481,4.0481,4.7582,4.7428,4.7466,4.9163,5.1088,5.405,5.9052,0.0,0.0,6.9187,6.8802,7.0601,7.7708,7.8438,8.1049,8.7632,8.3056,7.9074,7.7448,0.0,6.4806,0.0,0.0,5.7182,5.5392,5.4754,5.4436,5.4473,5.4436,5.6003,5.9086,5.7545,5.8474,6.1606,6.5562,6.9201,7.2671,7.739,8.4309,9.2046,9.2164,9.4467,9.7066,9.0552,9.0017,9.2638,9.2656,9.2613,9.2117,8.8944,8.7881,0.0,0.0,0.0,8.5321,8.3021,8.2985,8.2719,7.8502,0.0,0.0,7.483,0.0,0.0,0.0,0.0,7.4897,0.0,0.0,7.3826,7.1695,7.0703,6.9727,0.0,6.7527,0.0,0.0,6.2112,6.2395,6.317,6.565,6.589,6.2264,6.3884,6.2798,5.7022,5.7615,5.7388,5.5454,5.5742,5.6172,5.6582,5.6973,5.6992,5.6582,5.6973,5.6973,5.6582,5.6601,5.6816,5.6991,5.0912,4.8504,4.889,4.2716,4.004,4.0067,4.0361,4.0294,4.0067,4.0361,4.0481,4.0481,4.0481,4.0481,4.0481,4.7812,4.7466,4.7235,4.8355,4.9565,5.2101,5.7075,5.9916,6.4216,7.1768,7.3635,7.7307,8.5273,8.6082,8.7749,9.1954,8.8704,8.4921,8.1463,7.679,7.206,6.7294,6.4867,6.2735,6.0762,5.9161,5.7593,5.6003,5.6003,5.7104,5.9196,5.8107,5.9318,6.2535,6.5888,7.1011,7.7313,8.0083,8.51,9.1113,9.0267,9.3634,9.8449,9.2349,9.1314,9.3129,9.2729,9.2613,0.0,9.0836,8.8969,8.7264,8.7699,8.5493,8.2884,8.3819,8.3432,8.2311,0.0,0.0,8.3595,7.6889,0.0,0.0,0.0,0.0,0.0,0.0,0.0,7.3646,7.2868,7.05,0.0,0.0,0.0,6.4919,0.0,6.116,6.0331,6.1038,6.259,6.2279,5.8913,6.158,6.0825,5.4323,5.6019,5.6107,5.3299,5.4121,5.5,5.5723,5.6152,5.6445,5.6582,5.6719,5.6719,5.6582,5.6582,5.666,5.6582,5.0734,4.8356,4.8432,4.2528,3.9967,4.0007,4.0361,4.0294,4.0007,4.0361,4.0481,4.0481,4.0481,4.0481,4.0548,4.812,4.7466,4.7351,4.8779,4.9839,5.1921,5.6162,6.1182,6.7117,7.4362,7.8363,8.3585,9.1608,9.247,9.3616,9.638,9.4612,9.0632,8.4217,8.2362,7.9129,7.3707,7.1397,6.9223,6.7093,6.4236,6.1477,5.8796,5.8309,5.9049,6.0921,5.9208,6.0297,6.3831,6.6909,7.2866,8.0797,8.4175,8.9269,9.4915,9.252,9.4223,9.7699,9.2692,9.2045,9.3762,0.0,9.2254,9.2194,9.1776,9.0093,8.837,8.9648,8.7301,8.4333,8.5536,8.5212,8.4101,8.2569,8.4287,0.0,7.996,8.0222,0.0,7.596,0.0,7.64,0.0,0.0,0.0,0.0,0.0,0.0,0.0,0.0,6.4893,0.0,6.0404,5.883,5.9009,6.0265,6.0314,5.8289,5.9863,5.8936,5.3959,5.47,5.4484,5.2299,5.3054,5.4023,5.5058,5.5781,5.6308,5.6582,5.6738,5.6738,5.6582,5.6582,5.6582,5.6421,5.0598,4.8076,4.8056,4.2343,3.9893,3.986,4.0321,4.0294,4.0007,4.0361,4.0481,4.0481,4.0481,4.0481,4.0548,4.8432,4.762,4.7962,5.038,5.1629,5.3414,5.6497,6.3371,7.0524,7.6912,8.2782,8.9176,9.6518,9.755,9.8618,10.1006,10.0705,9.6252,8.6546,8.821,8.5851,7.7553,7.7409,7.6391,7.4006,6.9707,6.5987,6.2844,6.1287,6.1777,6.4103,6.0811,6.1398,6.5362,6.8678,7.4781,8.2983,8.9412,9.6462,10.2903,9.8575,9.6503,9.5566,9.1475,9.1874,9.4296,9.2297,9.1566,9.1566,9.1566,9.1105,9.0597,9.0597,9.0219,8.9512,8.8185,8.8274,8.8156,8.509,8.5187,8.5709,8.3792,8.334,0.0,0.0,0.0,7.9889,0.0,0.0,0.0,0.0,0.0,0.0,0.0,0.0,6.5522,6.2444,5.9756,5.7846,5.7184,5.877,5.9953,5.9989,5.8824,5.7369,5.5637,5.379,5.2606,5.2302,5.2539,5.3256,5.4609,5.5859,5.6543,5.6582,5.6811,5.6757,5.6368,5.6222,5.6169,5.5935,5.0081,4.7568,4.7551,4.1957,3.9559,3.964,4.0214,4.0294,4.0007,4.0361,4.0481,4.0481,4.0481,4.0481,4.0508,4.8317,4.9966,5.1654,5.1914,5.0991,5.2334,5.8652,6.3784,7.0417,8.0108,8.8272,9.5391,10.1299,10.3411,10.4208,10.3792,10.31,10.079,9.6256,9.4972,9.297,8.9738,8.6592,8.3891,8.1857,7.6152,7.1911,6.9294,6.4512,6.316,6.4921,6.163,6.163,6.4604,6.9009,7.4611,8.1156,8.8249,9.432,9.9023,9.6922,9.6109,9.5728,9.1714,9.1751,9.3594,9.1603,9.0866,9.0866,9.0866,9.0746,9.0597,9.0597,9.0477,9.0219,8.9412,8.9621,8.9853,8.8587,8.8827,8.8692,8.5836,8.5126,8.4338,0.0,0.0,0.0,0.0,0.0,0.0,0.0,0.0,0.0,6.7803,6.559,6.3505,6.2186,5.9756,5.7846,5.7184,5.7543,5.7713,5.7258,5.7293,5.6146,5.3163,5.3152,5.2547,5.0859,5.1656,5.279,5.4133,5.5137,5.5937,5.6582,5.4503,5.3381,5.3216,5.0751,4.961,4.9464,4.5478,4.3988,4.4232,4.0563,3.9199,3.964,4.0,4.0107,4.0007,4.0361,4.0481,4.0481,4.0481,4.0481,4.0508,4.924,5.2856,5.59,5.5742,5.7378,6.0115,6.4409,6.736,7.2624,8.2388,9.1281,9.7728,10.0395,10.5303,10.7779,10.6291,10.5479,10.3488,9.9841,9.9504,9.7971,9.4737,9.2997,9.0876,8.8141,8.2777,7.8095,7.4165,6.8486,6.5934,6.6292,6.2989,6.2768,6.5338,6.9472,7.4517,8.0598,8.9647,9.4965,9.7213,9.6056,9.5149,0.0,9.1649,9.1542,9.256,9.1112,9.0597,9.0597,9.0597,9.0597,9.0597,9.0597,9.0597,9.0507,9.019,9.0339,9.0507,9.019,9.0369,9.0145,8.8356,8.771,8.6731,8.3836,8.3659,8.3584,0.0,8.011,7.8319,0.0,0.0,0.0,6.5889,6.408,6.258,6.1325,5.9405,5.7726,5.6821,5.6731,5.6462,5.5833,5.5816,5.5167,5.3553,5.2967,5.2232,5.1165,5.1765,5.2754,5.399,5.4892,5.51,5.466,5.319,5.1619,4.9966,4.8079,4.7143,4.6922,4.3733,4.2555,4.2837,3.9938,3.8985,3.9393,3.9853,3.9967,4.0007,4.0361,3.9592,3.8288,3.8288,3.8288,3.8361,5.1053,5.5632,5.953,5.9861,6.6115,7.15,7.2637,7.4111,7.7863,8.5601,9.4184,9.9394,9.8911,10.5804,10.9911,10.8388,10.7509,10.5193,10.0789,10.2602,10.1623,9.6418,9.7737,9.6988,9.3508,8.8905,8.3737,7.8025,7.2317,6.879,6.7333,6.4237,6.4114,6.6659,6.9949,7.495,8.1471,9.13,9.5761,9.6146,9.528,9.378,9.2017,9.1352,9.1253,9.1375,9.0806,9.0597,9.0597,9.0597,9.0597,9.0597,9.0597,9.0597,9.0597,9.0597,9.0597,9.0597,9.0597,9.0597,9.0597,9.0597,9.0219,8.9218,8.6898,8.5452,8.4254,8.3115,8.0203,7.8124,0.0,0.0,6.8273,6.4854,6.3568,6.2453,6.0954,5.9359,5.7794,5.637,5.6099,0.0,5.5029,5.4491,5.4422,5.4912,5.293,5.1772,5.1988,5.2222,5.2606,5.3194,5.4195,5.3812,5.1872,5.1726,5.0092,4.7089,4.6362,4.5872,4.5549,4.2921,4.185,4.2005,3.9628,3.8766,3.914,3.9607,3.992,4.0007,4.0361,3.8458,3.5474,3.5474,3.4933,3.4222,5.378,5.6599,5.9023,5.9349,6.7363,7.5898,8.2355,8.6367,9.036,9.5151,10.2919,10.8104,10.8829,11.0285,11.0892,11.0012,10.8591,10.7204,10.5709,10.551,10.4427,10.2212,10.192,10.0811,9.8885,9.2275,8.6518,8.1831,7.3528,6.8196,6.5668,6.371,6.4114,6.6659,7.055,7.7105,8.5323,8.7525,9.0288,9.3161,9.2868,9.2178,9.1314,9.086,9.0707,9.0746,9.0627,9.0597,9.0597,9.0597,9.0597,9.0597,9.0597,9.0597,9.0597,9.0597,9.0597,9.0597,9.0597,9.0597,9.0597,9.0597,9.0507,9.0212,8.9238,8.8838,8.8165,8.6308,8.411,8.1443,7.7823,0.0,0.0,6.7019,6.4659,6.3115,6.3944,6.1526,5.8784,5.6394,5.5617,5.4836,5.3679,5.3952,5.3879,5.3145,5.2482,5.1617,5.0539,5.1477,5.1152,4.9117,5.0392,5.094,5.063,4.6791,4.5395,4.6404,4.1966,3.9669,3.9363,3.8856,3.8751,3.901,3.8291,3.8366,3.91,3.8953,3.9372,4.0007,4.0361,3.8458,3.5474,3.5474,3.1979,2.7646,5.8363,6.0749,6.4025,6.8138,7.5858,8.3937,9.1187,9.755,10.0785,9.8915,10.3096,10.6176,10.6298,11.039,11.2482,11.0993,11.0215,10.9302,10.8219,10.7001,10.6088,10.531,10.4193,10.2908,10.1388,9.57,8.9672,8.3413,7.5925,7.0094,6.5888,6.5118,6.5595,6.7343,7.2045,7.8212,8.5103,8.5968,8.8966,9.3064,9.2592,9.2186,9.1911,9.172,9.1195,9.0597,9.0597,9.0597,9.0597,9.0597,9.0597,9.0597,9.0597,9.0597,9.0597,9.0597,9.0597,9.0597,9.0597,9.0597,9.0597,9.0597,9.0088,8.9531,8.9232,8.8644,8.7454,8.4971,8.2908,7.9615,7.3128,6.8966,0.0,0.0,6.3257,6.2373,6.2816,6.1219,5.9435,5.7889,5.6492,5.5276,5.4378,5.3904,5.32,5.1972,5.2075,5.1503,4.9971,5.1333,5.1498,5.0119,5.1718,5.1296,4.8538,4.6781,4.4695,4.2348,3.9588,3.8103,3.7809,3.7809,3.7969,3.8321,3.8116,3.8397,3.8886,3.906,3.9519,4.0007,4.0361,3.7408,3.2927,3.2927,2.8636,2.3409,6.4069,6.6168,7.0137,7.8153,8.5318,9.2055,9.8395,10.6118,10.8998,10.2803,10.3607,10.4702,10.4602,11.0494,11.3801,11.2211,11.1703,11.0892,10.9708,10.8084,10.7103,10.7103,10.5682,10.4295,10.3009,9.8578,9.2354,8.4379,7.8161,7.23,6.6875,6.6456,6.7116,6.8848,7.355,7.8815,8.4213,8.5593,8.9188,9.3944,9.2973,9.2673,9.2793,9.2494,9.1746,9.0776,9.0657,9.0597,9.0597,9.0597,9.0597,9.0597,9.0597,9.0597,9.0597,9.0597,9.0597,9.0597,9.0597,9.0597,9.0597,9.0597,8.9771,8.8813,8.8544,8.7556,8.5804,8.2611,7.9995,7.6125,6.9195,6.7107,0.0,0.0,6.229,6.1876,6.1758,6.1101,6.0242,5.9278,5.7224,5.5701,5.5195,5.3334,5.1834,5.1119,5.1679,5.1339,4.9676,5.1073,5.1424,5.0165,5.2367,5.1046,4.5853,4.6684,4.4583,3.9442,3.8735,3.824,3.7929,3.7969,3.8143,3.837,3.829,3.8397,3.8651,3.9265,3.9666,3.99,3.9503,3.5684,3.0388,2.9704,2.5667,2.085,7.1093,7.1971,7.4546,8.4035,9.1348,9.758,10.2692,10.9712,11.361,11.1514,11.1404,11.2284,11.4317,11.4006,11.3902,11.4412,11.2583,11.1298,11.1196,10.9099,10.7915,10.7915,10.6494,10.531,10.4498,10.01,9.3796,8.5627,7.9016,7.319,6.8161,6.629,6.7648,7.1785,7.4375,7.9008,0.0,8.6151,8.9887,9.4915,9.3261,9.2943,9.3361,9.2165,9.1626,9.1446,9.0806,9.0597,9.0597,9.0597,9.0597,9.0597,9.0597,9.0597,9.0597,9.0597,9.0597,9.0597,9.0597,9.0597,9.0597,9.0597,9.01,8.9303,8.8065,8.7227,8.5536,8.1411,7.7029,7.2957,6.9858,6.7814,6.6446,0.0,6.407,6.2984,6.4105,6.3282,6.1681,5.9401,5.6768,5.506,5.4704,5.1081,4.9284,5.0453,5.1239,5.0917,4.9246,5.021,4.8756,4.4164,4.7538,4.7205,4.2602,4.2893,4.266,4.194,3.9743,3.8504,3.8281,3.8504,3.8651,3.8651,3.8428,3.8321,3.837,3.8945,3.9313,3.9369,3.6576,3.3428,3.0149,2.7101,2.3669,2.0539,8.1717,8.2005,8.474,9.4987,9.8723,10.2819,11.0085,11.3717,11.55,11.5306,11.4409,11.4308,11.5695,11.5323,11.4883,11.468,11.3902,11.3192,11.2718,11.1501,11.0486,11.008,10.8591,10.7306,10.5986,10.2096,9.6249,8.8475,8.2394,7.6333,7.0414,6.9214,7.1025,7.5423,7.8937,8.3137,8.7667,8.8751,9.177,9.5685,9.3921,9.3122,9.2943,9.2404,9.1716,9.0956,9.0687,9.0597,9.0597,9.0597,9.0597,9.0597,9.0597,9.0597,9.0597,9.0597,9.0597,9.0597,9.0597,9.0597,9.0507,9.016,8.9561,8.8723,8.7407,8.6569,8.4526,7.906,7.3453,6.8998,6.7295,6.5683,6.4676,6.4764,6.3253,6.2391,6.3374,6.308,6.1957,5.9722,5.7396,5.566,5.4964,5.1023,4.9254,5.0987,5.0901,5.0212,4.8921,5.0026,4.9395,4.6517,4.7865,4.68,4.2907,4.2927,4.2076,4.036,3.9392,3.878,3.8544,3.8651,3.8718,3.866,3.8584,3.8544,3.8584,3.9159,3.8268,3.6509,3.5655,3.2101,2.7342,2.5981,2.3361,2.0476,9.049,9.0966,9.4099,10.4717,10.5573,10.7486,11.5589,11.6084,11.6001,11.7105,11.5888,11.5222,11.5693,11.5794,11.5628,11.5086,11.4816,11.4477,11.4004,11.2786,11.2008,11.1703,10.9911,10.8321,10.7204,10.3787,9.8816,9.2254,8.6424,8.0762,7.529,7.426,7.5983,8.0111,8.3779,8.7702,9.1581,9.1986,9.4037,9.6815,9.4511,9.3182,9.2583,9.2374,9.1746,9.0866,9.0657,9.0597,9.0597,9.0597,9.0597,9.0597,9.0597,9.0597,9.0597,9.0597,9.0597,9.0597,9.0597,9.0597,9.0477,9.007,8.9322,8.8334,8.7028,8.603,8.3776,7.7897,7.2507,6.8575,6.7566,6.638,6.527,6.4587,0.0,6.2683,6.2264,6.2415,6.1796,5.967,5.7127,5.5534,5.5494,5.132,4.9351,5.0986,5.046,4.9622,4.867,4.9825,4.9697,4.7871,4.8002,4.6458,4.2998,4.2803,4.1503,3.91,3.902,3.8905,3.8718,3.8718,3.8758,3.8838,3.8758,3.8758,3.8865,3.9199,3.7428,3.452,3.3958,3.0361,2.534,2.4393,2.2547,2.0476,9.6031,9.7543,10.111,11.161,11.1516,11.181,11.7587,11.6404,11.5419,11.7009,11.64,11.5831,11.5794,11.5794,11.5794,11.5831,11.512,11.468,11.468,11.2583,11.1703,11.2517,10.9606,10.7982,10.8016,10.5107,10.1418,9.6815,9.0892,8.6522,8.3607,0.0,8.2516,8.6087,8.8244,9.2061,9.677,9.5614,9.6513,9.8374,9.4959,9.3182,9.2524,9.1865,9.1626,9.1506,9.0836,9.0597,9.0597,9.0597,9.0597,9.0597,9.0597,9.0597,9.0597,9.0597,9.0597,9.0597,9.0597,9.0597,9.0597,9.0597,8.9651,8.8334,8.7028,8.5671,8.3357,7.8572,7.5267,7.3064,7.251,7.1417,6.9687,6.682,0.0,6.4619,6.1304,6.1487,6.1184,5.9063,5.5501,5.4086,5.6163,5.1599,4.8982,5.0131,4.9856,4.9248,4.8445,4.9487,4.8831,4.5999,4.682,4.559,4.1961,4.18,4.0869,3.91,3.8806,3.8718,3.8718,3.8718,3.8865,3.906,3.8838,3.8846,3.906,3.8838,3.6982,3.4108,3.0893,2.7897,2.4906,2.1722,2.0539,2.0476,10.3788,10.5417,10.7497,11.1387,11.2392,11.3728,11.7104,11.6477,11.6181,11.7703,11.6708,11.5794,11.5794,11.5794,11.5794,11.5794,11.5594,11.5388,11.5388,11.4816,11.4105,11.3293,11.1399,10.9809,10.8794,10.5918,10.2874,9.9996,9.519,9.0757,8.6855,8.6706,8.8278,9.1335,9.4034,9.7258,10.0488,9.7866,9.7807,9.9049,9.4696,9.2524,9.1895,9.1686,9.1285,9.0866,9.0687,9.0597,9.0597,9.0597,9.0597,9.0597,9.0597,9.0597,9.0597,9.0597,9.0597,9.0597,9.0597,9.0597,9.0388,8.9531,8.8993,8.8095,8.5851,8.2505,7.9279,7.7318,7.4698,7.2549,7.1914,7.01,6.818,6.681,6.4992,6.3254,6.1826,6.1267,5.9916,5.7103,5.4624,5.345,5.422,5.0997,4.9506,5.1186,5.02,4.8926,4.7587,4.8328,4.8358,4.7343,4.5167,4.3366,4.1902,4.0006,3.8908,3.8544,3.8865,3.8905,3.8718,3.8718,3.8865,3.91,3.8838,3.8846,3.91,3.8993,3.5814,3.0933,3.0067,2.6493,2.1752,2.0755,2.0388,2.0476,10.8004,10.942,11.0789,11.1716,11.2382,11.3713,11.6,11.5617,11.5516,11.6787,11.6317,11.5794,11.5794,11.5794,11.5794,11.5794,11.5794,11.5794,11.5794,11.549,11.4883,11.3699,11.1906,11.0384,10.92,10.6189,10.3922,10.2198,9.7853,9.4272,9.1529,9.2008,9.3594,9.6176,9.8307,10.0608,10.2713,10.0086,9.9033,9.8717,9.5165,9.2738,9.1195,9.1195,9.0956,9.0597,9.0597,9.0597,9.0597,9.0597,9.0597,9.0597,9.0597,9.0597,9.0597,9.0597,9.0597,9.0597,9.0597,9.0417,9.007,8.9262,8.8484,8.7227,8.4594,8.1281,7.8602,7.7959,7.6039,7.4383,7.3918,7.2168,7.0164,6.817,6.6107,6.3922,6.1465,6.0407,5.8919,5.6354,5.4523,5.3806,5.4687,5.2547,5.1212,5.1402,5.0831,4.9404,4.6939,4.8044,4.8618,4.8331,4.4611,4.2592,4.2681,3.9101,3.7635,3.8321,3.8651,3.874,3.8718,3.8611,3.8758,3.91,3.8838,3.8846,3.91,3.8993,3.5811,3.1013,3.0055,2.6509,2.1914,2.0748,2.0354,2.0476,10.9099,11.0221,11.1521,11.2211,11.1788,11.2107,11.4526,11.4213,11.3902,11.468,11.5391,11.5794,11.5794,11.5794,11.5794,11.5794,11.5794,11.5794,11.5794,11.5086,11.4376,11.3598,11.1501,10.9978,10.92,10.6324,10.4396,10.3585,9.9319,9.7255,9.7289,9.7255,9.8341,10.0373,10.1115,10.2299,10.3622,10.2104,10.0004,9.7647,9.6142,9.3556,9.0597,9.0597,9.0597,9.0597,9.0597,9.0597,9.0597,9.0597,9.0597,9.0597,9.0597,9.0597,9.0597,9.0597,9.0597,9.0597,9.0597,9.016,8.9692,8.9662,8.8105,8.589,8.3315,8.1759,8.0614,7.9896,7.8699,7.7801,7.7741,7.6513,7.4225,7.0341,6.8381,6.5581,6.0377,5.9002,5.8022,5.6563,5.4969,5.4845,5.6958,5.5596,5.3568,5.111,5.1603,5.0359,4.6615,4.8503,4.9473,4.896,4.4912,4.3115,4.3926,3.9005,3.7128,3.8321,3.8321,3.8437,3.866,3.8397,3.8584,3.91,3.8838,3.8846,3.906,3.8838,3.6804,3.3606,3.0557,2.7567,2.4492,2.1415,2.0383,2.0442,10.9286,10.9898,11.0406,11.0115,11.0321,11.1311,11.3625,11.4188,11.4714,11.5388,11.5729,11.5794,11.5794,11.5794,11.5794,11.5794,11.5794,11.5794,11.5794,11.5086,11.4376,11.3598,11.1501,10.9978,10.92,10.6798,10.4904,10.3585,10.1386,10.0608,10.1183,10.0574,10.0878,10.1995,10.2198,10.3077,10.4196,10.131,9.9454,9.8292,9.5298,9.269,9.0597,9.0597,9.0597,9.0597,9.0597,9.0597,9.0597,9.0597,9.0597,9.0597,9.0597,9.0597,9.0597,9.0597,9.0597,9.0597,9.0597,9.016,8.9602,8.9052,8.7018,8.4624,8.2537,8.1392,8.0464,7.9267,7.837,7.7652,7.7108,7.3864,7.0632,6.8715,6.4509,6.0862,5.9243,5.7397,5.5963,5.5423,5.46,5.4771,5.6501,5.4692,5.3083,5.2391,5.1347,4.9847,4.777,4.8997,4.9658,4.9351,4.5217,4.3247,4.3686,3.9106,3.7301,3.8321,3.8321,3.8437,3.866,3.8397,3.8584,3.91,3.8838,3.8846,3.906,3.8838,3.6804,3.3571,3.0486,2.7351,2.4276,2.1182,2.0085,2.0207,10.9816,10.9408,10.9187,10.9203,10.9809,11.0992,11.3293,11.4207,11.4985,11.5729,11.5794,11.5794,11.5794,11.5794,11.5794,11.5794,11.5794,11.5794,11.5794,11.5086,11.4207,11.309,11.1298,10.9809,10.8693,10.6798,10.5208,10.4092,10.3313,10.2908,10.3009,10.2603,10.2603,10.3009,10.3009,10.3618,10.46,10.2994,10.1026,9.8612,9.7064,9.4472,9.1506,9.1165,9.1046,9.1016,9.0717,9.0597,9.0597,9.0597,9.0597,9.0597,9.0597,9.0597,9.0597,9.0597,9.0597,9.0597,9.0597,8.995,8.8884,8.7257,8.5342,8.3397,8.1721,8.0823,8.0045,7.8998,7.8041,7.7227,7.6868,7.3248,6.9837,6.8244,6.3796,6.0107,5.8941,5.7147,5.6022,5.6326,5.6304,5.6363,5.6646,5.5917,5.4521,5.2371,5.1741,5.0667,4.8835,4.9717,4.9697,4.8506,4.5196,4.3073,4.2403,3.9149,3.7782,3.8321,3.8321,3.8437,3.866,3.8397,3.8504,3.8886,3.874,3.8798,3.8886,3.874,3.6741,3.3478,3.0381,2.7241,2.403,2.0952,1.9834,1.9908,11.0003,10.9115,10.8515,10.9101,10.9978,11.1298,11.3293,11.4308,11.5086,11.5693,11.5794,11.5794,11.5794,11.5794,11.5794,11.5794,11.5794,11.5794,11.5794,11.4985,11.3902,11.2618,11.0993,10.9505,10.7982,10.6595,10.5479,10.4903,10.4802,10.4429,10.382,10.382,10.382,10.382,10.382,10.4226,10.487,10.5411,10.2995,9.8906,9.9462,9.6812,9.2524,9.1865,9.1626,9.1494,9.0836,9.0597,9.0597,9.0597,9.0597,9.0597,9.0597,9.0597,9.0597,9.0597,9.0537,9.0447,9.0447,8.9441,8.7796,8.5342,8.3726,8.2447,8.1093,8.0195,7.9477,7.8789,7.7592,7.6659,7.6659,7.3309,6.99,6.7973,6.3858,6.0385,5.8707,5.7168,5.6706,5.797,5.8282,5.8052,5.7211,5.7236,5.5742,5.1995,5.2055,5.1561,4.9801,5.041,4.9544,4.6829,4.4853,4.275,4.0471,3.9039,3.8321,3.8321,3.8321,3.8437,3.866,3.8397,3.8437,3.8718,3.8718,3.8718,3.866,3.8169,3.6316,3.3385,2.9866,2.6734,2.3815,2.0764,1.9671,1.959,10.8701,10.9198,10.9787,10.9305,11.079,11.2517,11.3496,11.4816,11.5695,11.5831,11.5794,11.5794,11.5794,11.5794,11.5794,11.5794,11.5794,11.5794,11.5794,11.4511,11.3395,11.2482,11.052,10.8896,10.7982,10.6595,10.5716,10.5614,10.4971,10.4599,10.4498,10.4498,10.4498,10.4498,10.4498,10.4904,10.5614,10.5073,10.2798,9.959,9.9072,9.6366,9.2524,9.1865,9.1626,9.1494,9.0836,9.0597,9.0597,9.0597,9.0597,9.0597,9.0597,9.0597,9.0597,9.0597,9.0249,8.9872,8.9872,8.8424,8.6629,8.5103,8.3726,8.2447,8.1093,7.9836,7.8759,7.81,7.6933,7.6036,7.6036,7.1891,6.7959,6.6309,6.1016,5.7024,5.6881,5.5724,5.5822,5.8365,5.7341,5.6916,5.8118,5.4791,5.2588,5.2785,5.107,5.02,5.0566,5.0742,4.8939,4.4829,4.4328,4.2161,3.8014,3.8213,3.8321,3.8321,3.8321,3.8437,3.866,3.8397,3.8437,3.8718,3.8718,3.8718,3.8499,3.5775,3.4322,3.3278,2.7442,2.4777,2.379,2.0635,1.9379,1.9271,10.9874,10.9404,10.9126,10.9202,11.0723,11.2279,11.3429,11.4511,11.5391,11.5693,11.5794,11.5794,11.5794,11.5794,11.5794,11.5794,11.5794,11.5794,11.5794,11.441,11.3293,11.2482,11.0825,10.92,10.7982,10.69,10.6392,10.6392,10.6121,10.5682,10.531,10.531,10.531,10.531,10.531,10.5682,10.6392,10.5986,10.3726,10.0288,9.9968,9.7115,9.3062,9.2404,9.1925,9.1494,9.0836,9.0597,9.0597,9.0597,9.0597,9.0597,9.0597,9.0597,9.0537,9.0219,8.989,8.9542,8.8813,8.7407,8.591,8.4953,8.3187,8.1542,8.0943,7.9477,7.816,7.7861,7.6784,7.5573,7.4497,7.0618,6.6927,6.499,6.0432,5.7333,5.7821,5.7311,5.7555,5.9377,5.829,5.7161,5.6667,5.3974,5.2068,5.1521,5.0719,5.0488,5.1113,5.1133,4.9021,4.4375,4.1805,3.9628,3.7595,3.8093,3.8388,3.8504,3.8504,3.8584,3.8718,3.8584,3.8584,3.8602,3.6875,3.6125,3.5891,3.27,3.029,2.8415,2.5513,2.3192,2.1256,1.9807,1.9115,1.885,11.0714,10.9819,10.8897,10.9405,11.1069,11.2805,11.3703,11.4477,11.5188,11.5693,11.5794,11.5794,11.5794,11.5794,11.5794,11.5794,11.5794,11.5794,11.5794,11.441,11.3192,11.2314,11.0486,10.8997,10.7813,10.7204,10.69,10.69,10.69,10.6595,10.6088,10.6088,10.6088,10.6088,10.6088,10.6392,10.69,10.69,10.4487,10.08,10.08,9.7904,9.3511,9.3032,9.2434,9.1746,9.1046,9.0836,9.0806,9.0657,9.0597,9.0597,9.0597,9.0597,9.0477,8.986,8.9482,8.8993,8.7975,8.6599,8.5342,8.4833,8.2739,8.0794,8.0794,7.9118,7.7592,7.7592,7.6163,7.4474,7.2959,6.9267,6.586,6.3884,6.0447,5.824,5.8907,5.8914,5.9272,6.0549,5.8892,5.7036,5.536,5.33,5.1535,5.0279,5.0469,5.0879,5.1358,5.1377,4.917,4.4259,3.9769,3.7529,3.7809,3.8116,3.8397,3.8718,3.8718,3.8718,3.8718,3.8718,3.8298,3.7458,3.499,3.3501,3.2571,2.9405,2.6593,2.4171,2.3486,2.1496,1.904,1.9081,1.8864,1.8474,10.9296,11.0391,11.1,11.0288,11.322,11.541,11.4695,11.5222,11.5693,11.5794,11.5794,11.5794,11.5794,11.5794,11.5794,11.5794,11.5794,11.5794,11.5794,11.441,11.2989,11.1501,10.8693,10.7103,10.7001,10.69,10.69,10.69,10.69,10.69,10.6798,10.6798,10.6798,10.6798,10.6798,10.6798,10.69,10.69,10.4487,10.08,10.08,9.7904,9.3571,9.3541,9.3092,9.2434,9.1776,9.1536,9.1404,9.0806,9.0597,9.0597,9.0597,9.0597,9.0477,8.986,8.8813,8.7826,8.7736,8.627,8.4773,8.4714,8.2739,8.0794,8.0794,7.8789,7.6868,7.6868,7.4368,7.2157,7.2014,6.7819,6.4076,6.2955,6.01,5.8207,5.8766,5.8813,5.9554,6.1634,5.7956,5.5382,5.5789,5.1823,4.949,5.0164,5.0215,5.0586,5.1338,5.1377,4.9089,4.3999,3.9654,3.7529,3.7809,3.8116,3.8397,3.8718,3.8718,3.8718,3.8718,3.8718,3.7096,3.4217,3.3994,3.2217,2.9307,2.6087,2.4597,2.4092,2.0986,1.9511,1.9149,1.8943,1.8687,1.8454,11.1086,11.1413,11.1514,11.1699,11.3711,11.5028,11.4188,11.4613,11.5289,11.5693,11.5794,11.5794,11.5794,11.5794,11.5794,11.5794,11.5794,11.5794,11.5794,11.441,11.2718,11.079,10.92,10.8084,10.761,10.7103,10.69,10.69,10.69,10.69,10.69,10.69,10.69,10.69,10.69,10.69,10.69,10.69,10.4487,10.08,10.08,9.7904,9.3571,9.3571,9.2913,9.1955,9.1716,9.1315,9.0926,9.0687,9.0597,9.0597,9.0597,9.0597,9.0388,8.9382,8.8125,8.7077,8.7077,8.591,8.4714,8.4714,8.3038,8.1302,8.0883,7.9357,7.745,7.5376,7.3639,7.1626,6.8652,6.6236,6.4113,6.2293,6.087,6.0002,6.0054,6.045,6.0569,5.9927,5.7291,5.5068,5.3859,5.0803,4.9265,5.0117,5.0176,5.0547,5.1338,4.8414,4.5006,4.1401,3.8375,3.6981,3.7261,3.7742,3.8143,3.8437,3.8624,3.8718,3.866,3.6617,3.5061,3.3665,2.9627,2.7202,2.5829,2.2548,2.1205,2.1078,1.9782,1.9203,1.904,1.8888,1.8606,1.8375,11.2874,11.2788,11.2401,11.2878,11.4586,11.5519,11.4193,11.4579,11.5222,11.5693,11.5794,11.5794,11.5794,11.5794,11.5794,11.5794,11.5794,11.5794,11.5794,11.441,11.2617,11.0418,10.9572,10.8896,10.8388,10.7881,10.761,10.761,10.761,10.7475,10.7272,10.7509,10.7407,10.69,10.7103,10.7103,10.69,10.69,10.4487,10.08,10.08,9.7904,9.3571,9.3571,9.2883,9.1895,9.1686,9.1285,9.0866,9.0657,9.0597,9.0597,9.0597,9.0328,8.9801,8.8693,8.7586,8.6728,8.6728,8.5851,8.4983,8.4773,8.3397,8.1871,8.1003,7.9746,7.7889,7.4719,7.3075,7.0941,6.6841,6.511,6.3752,6.2001,6.1429,6.1167,6.1169,6.1672,6.1209,5.901,5.7033,5.4961,5.2634,5.0276,4.9265,5.0117,5.0176,5.0193,5.0179,4.5997,4.2365,3.9651,3.7375,3.6366,3.6647,3.7422,3.7969,3.8321,3.8584,3.8718,3.8588,3.5353,3.3372,3.2114,2.6572,2.3628,2.2488,2.0143,1.9203,1.9203,1.9149,1.9081,1.8959,1.8708,1.8498,1.8287,11.4384,11.4386,11.3905,11.3691,11.6301,11.7501,11.5084,11.5323,11.5794,11.5794,11.5794,11.5794,11.5794,11.5794,11.5794,11.5794,11.5794,11.5794,11.5831,11.441,11.2617,11.0418,10.9606,10.9201,10.9201,10.9201,10.9201,10.9201,10.9201,10.8794,10.7982,10.8794,10.8422,10.69,10.7712,10.761,10.69,10.69,10.4487,10.08,10.08,9.7935,9.3601,9.3571,9.3182,9.2524,9.1865,9.1626,9.1506,9.0806,9.0597,9.0597,9.0597,8.9741,8.8574,8.7915,8.7227,8.6728,8.6728,8.621,8.5551,8.4893,8.3726,8.2447,8.1093,7.9776,7.8037,7.5253,7.2574,6.986,6.7151,6.4563,6.2606,6.2094,6.1567,6.1391,6.1943,6.2019,6.1358,5.9511,5.7306,5.4961,5.259,5.0276,4.9285,5.0117,5.0243,4.9358,4.7496,4.4782,4.2048,3.9373,3.6861,3.5778,3.6126,3.7235,3.7956,3.8321,3.8584,3.866,3.8588,3.5353,3.2147,2.8989,2.5642,2.2317,1.9353,1.9257,1.9203,1.9183,1.904,1.8993,1.8938,1.8477,1.8321,1.8267,11.5288,11.57,11.5514,11.5421,11.6999,11.729,11.4404,11.5019,11.5794,11.5794,11.5794,11.5794,11.5794,11.5794,11.5794,11.5794,11.5794,11.5594,11.5086,11.4105,11.309,11.1873,11.0621,10.9708,10.92,10.9201,10.9201,10.9201,10.9201,10.9099,10.8794,10.9099,10.8998,10.849,10.8185,10.7915,10.7576,10.7103,10.4487,10.08,10.08,9.8176,9.4259,9.375,9.3182,9.2524,9.1865,9.1285,9.0866,9.0657,9.0597,9.0507,9.01,8.9681,8.9183,8.8035,8.7556,8.7287,8.6808,8.6578,8.612,8.4983,8.4085,8.2978,8.1212,7.9327,7.6931,7.3363,7.0751,6.8225,6.5149,6.3978,6.3375,6.3224,6.3048,6.3124,6.3651,6.3768,6.2177,5.8008,5.6897,5.4738,5.0388,4.9584,4.957,5.0137,5.0723,4.9151,4.4782,4.3774,4.1195,3.6569,3.5883,3.5778,3.6126,3.6834,3.7342,3.7692,3.7956,3.8183,3.8211,3.2779,2.9828,2.8748,2.3149,2.0029,1.8959,1.8918,1.8776,1.8586,1.864,1.8599,1.8498,1.8247,1.8158,1.8124,11.6391,11.6108,11.5715,11.6819,11.799,11.7892,11.5001,11.5613,11.6217,11.5802,11.5794,11.5794,11.5794,11.5794,11.5794,11.5794,11.5794,11.5391,11.4308,11.4105,11.3395,11.2076,11.1501,11.079,11.0114,11.0114,11.0114,11.0114,11.0114,11.0114,11.0114,11.0114,10.9877,10.9606,10.9099,10.8692,10.8422,10.7678,10.4987,10.1184,10.0896,9.8301,9.4528,9.384,9.3182,9.2524,9.1865,9.1165,9.0597,9.0597,9.0597,9.0477,8.986,8.9542,8.9123,8.8005,8.7496,8.7197,8.6818,8.6728,8.6459,8.5372,8.4594,8.3347,8.0563,7.8724,7.6304,7.1703,6.9749,6.788,6.4872,6.4329,6.4254,6.4028,6.4002,6.4145,6.4471,6.3648,6.1441,5.719,5.5822,5.357,4.9302,4.9101,4.9512,5.0137,5.0957,4.9032,4.3571,4.3318,4.0785,3.5349,3.5364,3.5605,3.5899,3.6246,3.6754,3.7382,3.7676,3.7264,3.6162,3.1007,2.8059,2.6702,2.1403,1.9027,1.885,1.8728,1.8565,1.8409,1.8386,1.8389,1.8301,1.8145,1.8091,1.7903,11.7487,11.6104,11.52,11.7895,11.9103,11.8904,11.639,11.67,11.6924,11.5879,11.5794,11.5794,11.5794,11.5794,11.5794,11.5794,11.5693,11.5188,11.3902,11.4308,11.3699,11.1771,11.2314,11.2314,11.1602,11.1501,11.1501,11.1501,11.1602,11.1602,11.1602,11.1501,11.1095,11.0486,11.0384,10.9911,10.92,10.8388,10.5581,10.1793,10.1088,9.8301,9.4528,9.384,9.3182,9.2524,9.1865,9.1165,9.0597,9.0597,9.0597,9.0477,8.986,8.9333,8.8723,8.7945,8.7287,8.6878,8.6758,8.6728,8.6469,8.5674,8.4978,8.3429,7.9577,7.7871,7.5667,7.0456,6.9214,6.831,6.5765,6.5283,6.5132,6.4672,6.4572,6.4597,6.4647,6.2513,5.9937,5.715,5.4592,5.1998,4.9222,4.8972,4.9324,5.0164,5.0918,4.8995,4.3522,4.3302,4.0785,3.5349,3.5191,3.5338,3.5631,3.5578,3.6193,3.7315,3.7569,3.6103,3.3136,2.9927,2.6844,2.3775,2.043,1.8959,1.8905,1.862,1.8498,1.8464,1.8335,1.8287,1.8267,1.8124,1.8077,1.7596,11.7088,11.7378,11.7493,11.7493,11.9211,11.9512,11.6494,11.7184,11.7509,11.5981,11.5794,11.5794,11.5794,11.5794,11.5794,11.5794,11.5289,11.5019,11.5323,11.441,11.3902,11.4004,11.3598,11.3293,11.3124,11.2618,11.2314,11.2314,11.282,11.3124,11.309,11.2482,11.2212,11.2009,11.079,11.0215,11.0012,10.8625,10.5581,10.1793,10.1088,9.8301,9.4528,9.384,9.3182,9.2524,9.1865,9.1165,9.0597,9.0597,9.0597,9.0477,8.986,8.992,8.9849,8.8185,8.7975,8.8035,8.6998,8.6728,8.6241,8.424,8.3238,8.2129,7.978,7.641,7.3103,7.0471,6.861,6.7041,6.5544,6.5283,6.5258,6.5132,6.5107,6.5258,6.5685,6.3676,6.1059,5.812,5.5328,5.2518,4.9647,4.9375,4.9609,5.0137,5.0644,4.8566,4.3106,4.3119,4.0785,3.5349,3.5191,3.5338,3.5631,3.5578,3.5992,3.6687,3.6754,3.5438,3.2798,2.9636,2.6586,2.3589,2.0255,1.8674,1.8464,1.8389,1.8233,1.8023,1.8111,1.8077,1.8004,1.7935,1.7914,1.7174,11.7418,11.7476,11.7716,11.8806,11.9992,11.9996,11.7494,11.7797,11.769,11.5988,11.5794,11.5794,11.5794,11.5794,11.5794,11.5794,11.5388,11.5222,11.5289,11.4917,11.4511,11.4207,11.4105,11.4004,11.3598,11.3598,11.3431,11.2989,11.309,11.3395,11.4105,11.2989,11.272,11.2989,11.1908,11.0993,11.0215,10.9099,10.5981,10.1793,10.1088,9.8301,9.4558,9.4199,9.3451,9.2554,9.2194,9.1404,9.0597,9.0597,9.0597,9.0537,9.0249,9.016,8.998,8.8933,8.8454,8.8065,8.7347,8.6928,8.6151,8.3782,8.2094,8.0265,7.7371,7.4704,7.206,6.9558,6.8119,6.7116,6.6262,6.6086,6.6011,6.5735,6.5685,6.5785,6.6061,6.3001,6.0064,5.83,5.4556,5.1343,4.9397,4.9394,4.9629,4.9844,5.0273,4.8799,4.4831,4.3557,4.1226,3.7287,3.5862,3.5271,3.5418,3.5418,3.5645,3.6032,3.4907,3.2915,3.0136,2.7069,2.4063,2.1106,1.9354,1.8464,1.8321,1.8247,1.8111,1.8024,1.7989,1.7935,1.7915,1.7915,1.6969,1.5112,11.769,11.7316,11.7389,12.0193,12.0912,12.0585,11.8979,11.8583,11.7988,11.6391,11.5979,11.5794,11.5794,11.5794,11.5794,11.5794,11.5729,11.5425,11.4917,11.5323,11.512,11.4004,11.4579,11.4613,11.4004,11.4579,11.4511,11.3801,11.3228,11.36,11.4883,11.3431,11.2989,11.3598,11.2786,11.1806,11.0418,10.9607,10.6379,10.1992,10.112,9.8238,9.4439,9.4558,9.3721,9.2434,9.2554,9.1746,9.0597,9.0597,9.0597,9.0597,9.0597,9.0279,8.9801,8.9602,8.8723,8.7826,8.7586,8.6838,8.553,8.3174,8.0753,7.7961,7.4201,7.2918,7.1624,6.8543,6.7869,6.7668,6.7191,6.6965,6.6714,6.6312,6.6187,6.6112,6.6112,6.1817,5.8568,5.8165,5.3333,4.9746,4.8991,4.9199,4.9414,4.9414,4.9824,4.8824,4.5967,4.3802,4.1362,3.8627,3.6342,3.5151,3.5191,3.5191,3.5311,3.5511,3.2519,2.9822,2.7281,2.4382,2.1361,1.8477,1.8335,1.8287,1.8267,1.8111,1.8057,1.8036,1.7914,1.7915,1.7915,1.7915,1.596,1.2996,11.7084,11.7797,11.8483,11.9603,12.1009,12.1606,12.06,11.9893,11.9092,11.8121,11.6702,11.5794,11.5794,11.5794,11.5794,11.5794,11.5222,11.5086,11.5628,11.512,11.5019,11.5526,11.5628,11.5628,11.549,11.5628,11.5289,11.4615,11.4513,11.4816,11.5591,11.4105,11.3496,11.3598,11.2786,11.2008,11.1196,10.981,10.6714,10.2703,10.1383,9.7966,9.378,9.4379,9.3421,9.1835,9.2404,9.1746,9.0597,9.0597,9.0597,9.0597,9.0597,9.0537,9.0238,8.9142,8.8693,8.8304,8.7137,8.5306,8.3091,8.0752,7.8064,7.5202,7.216,7.1388,7.0791,6.8868,6.812,6.7769,6.7693,6.689,6.6363,6.6789,6.6438,6.6112,6.6112,6.1531,5.8187,5.812,5.3089,4.9414,4.8952,4.8952,4.8991,4.8991,4.9355,4.7477,4.2533,4.2294,4.0143,3.5571,3.5025,3.495,3.5191,3.5191,3.5217,3.5205,3.0009,2.7395,2.7136,2.4231,2.1229,1.8335,1.8199,1.8124,1.8111,1.8004,1.7956,1.7956,1.7915,1.7915,1.7915,1.7915,1.596,1.2996,11.7108,11.8195,11.9187,11.948,12.0581,12.1071,12.0293,12.0181,11.9592,11.7897,11.7406,11.681,11.5906,11.5794,11.5794,11.5794,11.5526,11.5492,11.5831,11.5526,11.5492,11.5831,11.5794,11.5794,11.5794,11.5794,11.5591,11.5323,11.4883,11.5086,11.5831,11.4714,11.4004,11.3598,11.3293,11.2211,11.0689,10.9708,10.6581,10.2319,10.1184,9.8113,9.4139,9.405,9.3272,9.2105,9.1656,9.1075,9.0597,9.0597,9.0597,9.0597,9.0597,9.0597,9.0477,8.995,8.9262,8.827,8.6362,8.457,8.2309,7.8665,7.6814,7.508,7.2193,7.1309,7.0706,6.9306,6.8854,6.8578,6.8321,6.7593,6.7041,6.7034,6.6488,6.6112,6.6112,6.1461,5.6924,5.3663,5.1042,4.9355,4.8952,4.8913,4.8913,4.8913,4.9043,4.761,4.4093,4.2599,4.0377,3.7165,3.5568,3.491,3.5191,3.5191,3.5191,3.5138,3.1029,2.8381,2.6804,2.2282,1.9463,1.8179,1.8036,1.7968,1.8004,1.7901,1.7915,1.7915,1.7915,1.7915,1.7915,1.7915,1.708,1.545]},{"header":{"parameterUnit":"m.s-1","parameterCategory":1,"la1":30.6,"la2":28.766,"lo1":-90.7593,"lo2":-88.6598,"dy":0.0162,"dx":0.0183,"nx":116,"ny":114,"refTime":"2023-11-15T18:00:00:Z","depth":0,"parameterNumber":3,"parameterNumberName":"V-component_of_WINDS"},"data":[0.0,0.0,0.0,0.0,0.0,0.0,0.0,0.0,0.0,0.0,0.0,0.0,0.0,0.0,0.0,0.0,0.0,0.0,0.0,0.0,0.0,0.0,0.0,0.0,0.0,0.0,0.0,0.0,0.0,0.0,0.0,0.0,0.0,0.0,0.0,0.0,0.0,0.0,0.0,0.0,0.0,0.0,0.0,0.0,0.0,0.0,0.0,0.0,0.0,0.0,0.0,0.0,0.0,0.0,0.0,0.0,0.0,0.0,0.0,0.0,0.0,0.0,0.0,0.0,0.0,0.0,0.0,0.0,0.0,0.0,0.0,0.0,0.0,0.0,0.0,0.0,0.0,0.0,0.0,0.0,0.0,0.0,0.0,0.0,0.0,0.0,0.0,0.0,0.0,0.0,0.0,0.0,0.0,0.0,0.0,0.0,0.0,0.0,0.0,0.0,0.0,0.0,0.0,0.0,0.0,0.0,0.0,0.0,0.0,0.0,0.0,0.0,0.0,0.0,0.0,0.0,0.0,0.0,0.0,0.0,0.0,0.0,0.0,0.0,0.0,0.0,0.0,0.0,0.0,0.0,0.0,0.0,0.0,0.0,0.0,0.0,0.0,0.0,0.0,0.0,0.0,0.0,0.0,0.0,0.0,0.0,0.0,0.0,0.0,0.0,0.0,0.0,0.0,0.0,0.0,0.0,0.0,0.0,0.0,0.0,0.0,0.0,0.0,0.0,0.0,0.0,0.0,0.0,0.0,0.0,0.0,0.0,0.0,0.0,0.0,0.0,0.0,0.0,0.0,0.0,0.0,0.0,0.0,0.0,0.0,0.0,0.0,0.0,0.0,0.0,0.0,0.0,0.0,0.0,0.0,0.0,0.0,0.0,0.0,0.0,0.0,0.0,0.0,0.0,0.0,0.0,0.0,0.0,0.0,0.0,0.0,0.0,0.0,0.0,0.0,0.0,0.0,0.0,0.0,0.0,0.0,0.0,0.0,0.0,0.0,0.0,0.0,0.0,0.0,0.0,0.0,0.0,0.0,0.0,0.0,0.0,0.0,0.0,0.0,0.0,0.0,0.0,0.0,0.0,0.0,0.0,0.0,0.0,0.0,0.0,0.0,0.0,0.0,0.0,0.0,0.0,0.0,0.0,0.0,0.0,0.0,0.0,0.0,0.0,0.0,0.0,0.0,0.0,0.0,0.0,0.0,0.0,0.0,0.0,0.0,0.0,0.0,0.0,0.0,0.0,0.0,0.0,0.0,0.0,0.0,0.0,0.0,0.0,0.0,0.0,0.0,0.0,0.0,0.0,0.0,0.0,0.0,0.0,0.0,0.0,0.0,0.0,0.0,0.0,0.0,0.0,0.0,0.0,0.0,0.0,0.0,0.0,0.0,0.0,0.0,0.0,0.0,0.0,0.0,0.0,0.0,0.0,0.0,0.0,0.0,0.0,0.0,0.0,0.0,0.0,0.0,0.0,0.0,0.0,0.0,0.0,0.0,0.0,0.0,0.0,0.0,0.0,0.0,0.0,0.0,0.0,0.0,0.0,0.0,0.0,0.0,0.0,0.0,0.0,0.0,0.0,0.0,0.0,0.0,0.0,0.0,0.0,0.0,0.0,0.0,0.0,0.0,0.0,0.0,0.0,0.0,0.0,0.0,0.0,0.0,0.0,0.0,0.0,0.0,0.0,0.0,0.0,0.0,0.0,0.0,0.0,0.0,0.0,0.0,0.0,0.0,0.0,0.0,0.0,0.0,0.0,0.0,0.0,0.0,0.0,0.0,0.0,0.0,0.0,0.0,0.0,0.0,0.0,0.0,0.0,0.0,0.0,0.0,0.0,0.0,0.0,0.0,0.0,0.0,0.0,0.0,0.0,0.0,0.0,0.0,0.0,0.0,0.0,0.0,0.0,0.0,0.0,0.0,0.0,0.0,0.0,0.0,0.0,0.0,0.0,0.0,0.0,0.0,0.0,0.0,0.0,0.0,0.0,0.0,0.0,0.0,0.0,0.0,0.0,0.0,0.0,0.0,0.0,0.0,0.0,0.0,0.0,0.0,0.0,0.0,0.0,0.0,0.0,0.0,0.0,0.0,0.0,0.0,0.0,0.0,0.0,0.0,0.0,0.0,0.0,0.0,0.0,0.0,0.0,0.0,0.0,0.0,0.0,0.0,0.0,0.0,0.0,0.0,0.0,0.0,0.0,0.0,0.0,0.0,0.0,0.0,0.0,0.0,0.0,0.0,0.0,0.0,0.0,0.0,0.0,0.0,0.0,0.0,0.0,0.0,0.0,0.0,0.0,0.0,0.0,0.0,0.0,0.0,0.0,0.0,0.0,0.0,0.0,0.0,0.0,0.0,0.0,0.0,0.0,0.0,0.0,0.0,0.0,0.0,0.0,0.0,0.0,0.0,0.0,0.0,0.0,0.0,0.0,0.0,0.0,0.0,0.0,0.0,0.0,0.0,0.0,0.0,0.0,0.0,0.0,0.0,0.0,0.0,0.0,0.0,0.0,0.0,0.0,0.0,0.0,0.0,0.0,0.0,0.0,0.0,0.0,0.0,0.0,0.0,0.0,0.0,0.0,0.0,0.0,0.0,0.0,0.0,0.0,0.0,0.0,0.0,0.0,0.0,0.0,0.0,0.0,0.0,0.0,0.0,0.0,0.0,0.0,0.0,0.0,0.0,0.0,0.0,0.0,0.0,0.0,0.0,0.0,0.0,0.0,0.0,0.0,0.0,0.0,0.0,0.0,0.0,0.0,0.0,0.0,0.0,0.0,0.0,0.0,0.0,0.0,0.0,0.0,0.0,0.0,0.0,0.0,0.0,0.0,0.0,0.0,0.0,0.0,0.0,0.0,0.0,0.0,0.0,0.0,0.0,0.0,0.0,0.0,0.0,0.0,0.0,0.0,0.0,0.0,0.0,0.0,0.0,0.0,0.0,0.0,0.0,0.0,0.0,0.0,0.0,0.0,0.0,0.0,0.0,0.0,0.0,0.0,0.0,0.0,0.0,0.0,0.0,0.0,0.0,0.0,0.0,0.0,0.0,0.0,0.0,0.0,0.0,0.0,0.0,0.0,0.0,0.0,0.0,0.0,0.0,0.0,0.0,0.0,0.0,0.0,0.0,0.0,0.0,0.0,0.0,0.0,0.0,0.0,0.0,0.0,0.0,0.0,0.0,0.0,0.0,0.0,0.0,0.0,0.0,0.0,0.0,0.0,0.0,0.0,0.0,0.0,0.0,0.0,0.0,0.0,0.0,0.0,0.0,0.0,0.0,0.0,0.0,0.0,0.0,0.0,0.0,0.0,0.0,0.0,0.0,0.0,0.0,0.0,0.0,0.0,0.0,0.0,0.0,0.0,0.0,0.0,0.0,0.0,0.0,0.0,0.0,0.0,0.0,0.0,0.0,0.0,0.0,0.0,0.0,0.0,0.0,0.0,0.0,0.0,0.0,0.0,0.0,0.0,0.0,0.0,0.0,0.0,0.0,0.0,0.0,0.0,0.0,0.0,0.0,0.0,0.0,0.0,0.0,0.0,0.0,0.0,0.0,0.0,0.0,0.0,0.0,0.0,0.0,0.0,0.0,0.0,0.0,0.0,0.0,0.0,0.0,0.0,0.0,0.0,0.0,0.0,0.0,0.0,0.0,0.0,0.0,0.0,0.0,0.0,0.0,0.0,0.0,0.0,0.0,0.0,0.0,0.0,0.0,0.0,0.0,0.0,0.0,0.0,0.0,0.0,0.0,0.0,0.0,0.0,0.0,0.0,0.0,0.0,0.0,0.0,0.0,0.0,0.0,0.0,0.0,0.0,0.0,0.0,0.0,0.0,0.0,0.0,0.0,0.0,0.0,0.0,0.0,0.0,0.0,0.0,0.0,0.0,0.0,0.0,0.0,0.0,0.0,0.0,0.0,0.0,0.0,0.0,0.0,0.0,0.0,0.0,0.0,0.0,0.0,0.0,0.0,0.0,0.0,0.0,0.0,0.0,0.0,0.0,0.0,0.0,0.0,0.0,0.0,0.0,0.0,0.0,0.0,0.0,0.0,0.0,0.0,0.0,0.0,0.0,0.0,0.0,0.0,0.0,0.0,0.0,0.0,0.0,0.0,0.0,0.0,0.0,0.0,0.0,0.0,0.0,0.0,0.0,0.0,0.0,0.0,0.0,0.0,0.0,0.0,0.0,0.0,0.0,0.0,0.0,0.0,0.0,0.0,0.0,0.0,0.0,0.0,0.0,0.0,0.0,0.0,0.0,0.0,0.0,0.0,0.0,0.0,0.0,0.0,0.0,0.0,0.0,0.0,0.0,0.0,0.0,0.0,0.0,0.0,0.0,0.0,0.0,0.0,0.0,0.0,0.0,0.0,0.0,0.0,0.0,0.0,0.0,0.0,0.0,0.0,0.0,0.0,0.0,0.0,0.0,0.0,0.0,0.0,0.0,0.0,0.0,0.0,0.0,0.0,0.0,0.0,0.0,0.0,0.0,0.0,0.0,0.0,0.0,0.0,0.0,0.0,0.0,0.0,0.0,0.0,0.0,0.0,0.0,0.0,0.0,0.0,0.0,0.0,0.0,0.0,0.0,0.0,0.0,0.0,0.0,0.0,0.0,0.0,0.0,0.0,0.0,0.0,0.0,0.0,0.0,0.0,0.0,0.0,0.0,0.0,0.0,0.0,0.0,0.0,0.0,0.0,0.0,0.0,0.0,0.0,0.0,0.0,0.0,0.0,0.0,0.0,0.0,0.0,0.0,0.0,0.0,0.0,0.0,0.0,0.0,0.0,0.0,0.0,0.0,0.0,0.0,0.0,0.0,0.0,0.0,0.0,0.0,0.0,0.0,0.0,0.0,0.0,0.0,0.0,0.0,0.0,0.0,0.0,0.0,0.0,0.0,0.0,0.0,0.0,0.0,0.0,0.0,0.0,0.0,0.0,0.0,0.0,0.0,0.0,0.0,0.0,0.0,0.0,0.0,0.0,0.0,0.0,0.0,0.0,0.0,0.0,0.0,0.0,0.0,0.0,0.0,0.0,0.0,0.0,0.0,0.0,0.0,0.0,0.0,0.0,0.0,0.0,0.0,0.0,0.0,0.0,0.0,0.0,0.0,0.0,0.0,0.0,0.0,0.0,0.0,0.0,0.0,0.0,0.0,0.0,0.0,0.0,0.0,0.0,0.0,0.0,0.0,0.0,0.0,0.0,0.0,0.0,0.0,0.0,0.0,0.0,0.0,0.0,0.0,0.0,0.0,0.0,0.0,0.0,0.0,0.0,0.0,0.0,0.0,0.0,0.0,0.0,0.0,0.0,0.0,0.0,0.0,0.0,0.0,0.0,0.0,0.0,0.0,0.0,0.0,0.0,0.0,0.0,0.0,0.0,0.0,0.0,0.0,0.0,0.0,0.0,0.0,0.0,0.0,0.0,0.0,0.0,0.0,0.0,0.0,0.0,0.0,0.0,0.0,0.0,0.0,0.0,0.0,0.0,0.0,0.0,0.0,0.0,0.0,0.0,0.0,0.0,0.0,0.0,0.0,0.0,0.0,0.0,0.0,0.0,0.0,0.0,0.0,0.0,0.0,0.0,0.0,0.0,0.0,0.0,0.0,0.0,0.0,0.0,0.0,0.0,0.0,0.0,0.0,0.0,0.0,0.0,0.0,0.0,0.0,0.0,0.0,0.0,0.0,0.0,0.0,0.0,0.0,0.0,0.0,0.0,0.0,0.0,0.0,0.0,0.0,0.0,0.0,0.0,0.0,0.0,0.0,0.0,0.0,0.0,0.0,0.0,0.0,0.0,0.0,0.0,0.0,0.0,0.0,0.0,0.0,0.0,0.0,0.0,0.0,0.0,0.0,0.0,0.0,0.0,0.0,0.0,0.0,0.0,0.0,0.0,0.0,0.0,0.0,0.0,0.0,0.0,0.0,0.0,0.0,0.0,0.0,0.0,0.0,0.0,0.0,0.0,0.0,0.0,0.0,0.0,0.0,0.0,0.0,0.0,0.0,0.0,0.0,0.0,0.0,0.0,0.0,0.0,0.0,0.0,0.0,0.0,0.0,0.0,0.0,0.0,0.0,0.0,0.0,0.0,0.0,0.0,0.0,0.0,0.0,0.0,0.0,3.9396,3.799,0.0,0.0,0.0,0.0,0.0,0.0,0.0,0.0,0.0,0.0,0.0,0.0,0.0,0.0,0.0,0.0,0.0,0.0,0.0,0.0,0.0,0.0,0.0,0.0,0.0,0.0,0.0,0.0,0.0,0.0,0.0,0.0,0.0,0.0,0.0,0.0,0.0,2.7995,2.8387,2.8794,2.9253,3.0459,2.9609,2.7109,0.0,0.0,0.0,0.0,0.0,0.0,0.0,0.0,0.0,0.0,0.0,0.0,0.0,0.0,0.0,0.0,0.0,0.0,0.0,0.0,0.0,0.0,0.0,0.0,0.0,0.0,0.0,0.0,0.0,0.0,0.0,0.0,0.0,0.0,0.0,0.0,0.0,0.0,0.0,0.0,0.0,0.0,0.0,0.0,0.0,0.0,0.0,0.0,0.0,0.0,0.0,0.0,0.0,0.0,0.0,0.0,0.0,0.0,0.0,0.0,0.0,0.0,0.0,0.0,0.0,0.0,0.0,0.0,0.0,0.0,4.4693,4.1779,0.0,0.0,0.0,0.0,0.0,0.0,0.0,0.0,0.0,0.0,0.0,0.0,0.0,0.0,0.0,0.0,0.0,0.0,0.0,0.0,0.0,0.0,0.0,2.6387,2.6523,2.6875,2.6947,2.7168,0.0,0.0,0.0,0.0,0.0,0.0,2.8301,2.8223,2.8317,2.8509,2.9575,3.103,3.2887,3.4268,3.232,2.7742,2.8433,0.0,0.0,0.0,0.0,0.0,0.0,0.0,0.0,0.0,0.0,0.0,0.0,0.0,0.0,0.0,0.0,0.0,0.0,0.0,0.0,0.0,0.0,0.0,0.0,0.0,0.0,0.0,0.0,0.0,0.0,0.0,0.0,0.0,0.0,0.0,0.0,0.0,0.0,0.0,0.0,0.0,0.0,0.0,0.0,0.0,0.0,0.0,0.0,0.0,0.0,0.0,0.0,0.0,0.0,0.0,0.0,0.0,0.0,0.0,0.0,0.0,0.0,0.0,5.4008,5.4913,5.5083,5.6648,5.6765,5.5649,5.309,4.8662,4.3342,4.4935,0.0,0.0,0.0,0.0,0.0,0.0,0.0,0.0,0.0,0.0,0.0,0.0,0.0,0.0,0.0,0.0,0.0,0.0,0.0,0.0,0.0,2.6387,2.6406,2.6465,2.6797,2.7031,2.709,0.0,0.0,0.0,0.0,0.0,2.8301,2.7956,2.8289,2.9357,3.1435,3.3348,3.5083,3.583,3.5994,3.5604,3.3799,3.2782,3.226,0.0,0.0,0.0,0.0,0.0,0.0,0.0,0.0,0.0,0.0,0.0,0.0,0.0,0.0,0.0,0.0,0.0,0.0,0.0,0.0,0.0,0.0,0.0,0.0,0.0,0.0,0.0,0.0,0.0,0.0,0.0,0.0,0.0,0.0,0.0,0.0,0.0,0.0,0.0,0.0,0.0,3.3527,3.1931,0.0,0.0,0.0,0.0,0.0,0.0,0.0,0.0,0.0,0.0,0.0,0.0,0.0,4.9606,5.1596,5.3483,5.4625,5.5109,5.9066,6.0727,6.044,6.3887,6.5973,6.6838,6.5855,0.0,5.0194,4.7183,0.0,0.0,0.0,0.0,0.0,0.0,0.0,0.0,0.0,0.0,0.0,0.0,0.0,0.0,0.0,0.0,0.0,0.0,0.0,0.0,0.0,2.8192,2.9132,2.9028,3.1607,3.1922,2.8824,3.0214,0.0,0.0,2.7812,2.7956,2.7956,2.8737,3.0778,3.412,3.6676,3.8812,4.0626,4.1529,4.2093,4.2263,4.0958,3.8227,3.4466,3.1889,0.0,0.0,0.0,0.0,0.0,0.0,0.0,0.0,0.0,0.0,0.0,0.0,0.0,0.0,0.0,0.0,0.0,0.0,0.0,0.0,0.0,0.0,0.0,0.0,0.0,0.0,0.0,0.0,0.0,0.0,0.0,0.0,0.0,0.0,0.0,0.0,0.0,0.0,0.0,3.1972,3.5333,3.3049,3.6775,3.783,0.0,0.0,0.0,0.0,0.0,0.0,0.0,0.0,0.0,4.8029,5.3561,5.6955,5.7957,6.1394,6.3663,6.4808,6.7071,6.845,6.9018,7.0694,7.1966,7.2864,7.2565,6.9298,6.3692,5.6823,5.2043,4.8952,0.0,0.0,0.0,0.0,5.1263,5.2743,0.0,0.0,0.0,0.0,0.0,0.0,0.0,0.0,0.0,0.0,0.0,0.0,2.8379,3.0753,3.2463,3.296,3.5899,3.5798,3.1204,3.1977,3.1049,2.748,2.7344,2.7428,2.7526,3.0136,3.3909,3.88,4.175,4.4254,4.6351,4.7179,4.7732,4.7983,4.728,4.3657,3.7832,3.4782,3.3051,3.2051,0.0,0.0,0.0,0.0,0.0,0.0,0.0,0.0,0.0,0.0,0.0,0.0,0.0,0.0,0.0,0.0,0.0,0.0,0.0,0.0,0.0,0.0,0.0,0.0,0.0,0.0,0.0,0.0,0.0,0.0,0.0,0.0,0.0,0.0,0.0,0.0,0.0,3.4679,3.8168,3.4534,3.9793,4.1936,0.0,0.0,0.0,0.0,0.0,0.0,4.6553,5.1735,5.5158,5.6317,6.1818,6.5174,6.6009,6.9491,7.2235,7.418,7.4689,7.5527,7.6669,7.6849,7.7208,7.7652,7.7472,7.6664,7.4706,6.5698,5.9503,5.5594,5.4091,5.3974,5.4786,5.6174,5.7649,5.9132,0.0,0.0,0.0,0.0,0.0,0.0,0.0,0.0,0.0,0.0,0.0,2.887,3.2322,3.3957,3.5713,3.7937,3.7302,3.5882,3.3744,3.0986,2.9063,2.8283,2.709,2.6641,2.7031,3.2105,3.709,4.1794,4.5165,4.8272,5.0946,5.0996,5.1599,5.2519,5.1473,4.846,4.3921,3.9996,3.8003,3.701,3.219,0.0,0.0,0.0,0.0,0.0,0.0,0.0,0.0,0.0,0.0,0.0,0.0,0.0,0.0,0.0,0.0,0.0,0.0,0.0,0.0,0.0,0.0,0.0,0.0,0.0,0.0,0.0,0.0,0.0,0.0,0.0,0.0,0.0,0.0,0.0,0.0,0.0,0.0,3.7913,4.679,0.0,0.0,0.0,0.0,4.9485,5.0498,5.2413,5.5749,6.0824,6.452,6.6387,7.1514,7.5398,7.7909,7.7526,7.837,8.0345,8.0375,8.0764,8.1452,8.2118,8.2417,8.2417,8.1789,8.0734,7.883,7.0359,6.5898,6.3982,5.9068,5.7902,5.8984,5.9011,6.0236,6.1989,0.0,0.0,0.0,0.0,0.0,0.0,0.0,0.0,2.4902,2.562,2.8259,3.1109,3.3725,3.7833,4.1046,4.2617,4.4122,4.3337,3.9452,3.6369,3.3434,3.0599,2.7852,2.8376,3.257,3.7151,4.1923,4.6892,4.9896,5.2251,5.3934,5.3934,5.4135,5.4486,5.3768,5.232,5.0071,4.4415,4.1,3.9066,3.5124,3.252,0.0,0.0,0.0,0.0,0.0,0.0,0.0,0.0,0.0,0.0,0.0,0.0,0.0,0.0,0.0,0.0,0.0,0.0,0.0,0.0,0.0,0.0,0.0,0.0,0.0,0.0,0.0,0.0,0.0,0.0,0.0,0.0,0.0,0.0,0.0,0.0,0.0,4.8354,5.5216,0.0,5.1809,5.1534,5.2978,5.592,5.8521,6.1654,6.5539,7.0767,7.4526,7.6516,7.9169,8.1242,8.2589,8.238,8.2619,8.3307,8.3307,8.3427,8.3666,8.3906,8.3786,8.3367,8.3128,8.2529,8.1512,7.848,7.5209,7.1807,6.9545,6.8939,6.9384,6.9779,7.0625,7.1807,0.0,0.0,0.0,0.0,0.0,0.0,0.0,0.0,2.4988,2.6661,3.0168,3.3871,3.7475,4.258,4.6448,4.815,4.9105,4.7473,4.249,3.8511,3.4558,3.0538,2.9147,3.1502,3.8031,4.1983,4.6452,5.1548,5.3758,5.5315,5.6244,5.6043,5.5942,5.5917,5.5365,5.4913,5.425,4.9669,4.608,4.3042,3.8622,3.569,3.3719,0.0,0.0,0.0,0.0,0.0,0.0,0.0,0.0,0.0,0.0,0.0,0.0,0.0,0.0,0.0,0.0,0.0,0.0,0.0,0.0,0.0,0.0,0.0,0.0,0.0,0.0,0.0,0.0,0.0,0.0,0.0,0.0,0.0,0.0,4.8412,5.4355,5.5677,6.1713,6.4259,6.0389,6.0343,6.1937,6.5221,6.8122,7.1327,7.4981,7.8771,8.1512,8.3068,8.4145,8.5043,8.5731,8.5492,8.5611,8.606,8.5821,8.5851,8.606,8.606,8.5821,8.5402,8.5402,8.5043,8.4483,8.4722,8.2828,7.9716,7.7891,7.7472,7.7891,7.813,7.8609,7.9449,0.0,0.0,0.0,0.0,0.0,0.0,2.3789,2.4141,2.5541,2.8789,3.2364,3.713,4.3678,4.8095,5.1674,5.4446,5.1607,4.7553,4.2552,3.6924,3.1973,2.8016,3.103,3.5971,4.2825,4.631,5.0459,5.5491,5.6559,5.7387,5.7951,5.7361,5.7085,5.7085,5.6533,5.6319,5.6269,5.5717,5.3331,4.9343,4.2973,3.9983,3.8807,0.0,0.0,0.0,0.0,0.0,0.0,0.0,0.0,0.0,0.0,0.0,0.0,0.0,0.0,0.0,0.0,0.0,0.0,0.0,0.0,0.0,0.0,0.0,0.0,0.0,0.0,0.0,0.0,0.0,0.0,0.0,0.0,0.0,4.451,5.5508,6.2393,5.9665,6.6338,7.0215,6.7798,6.9223,7.2463,7.7635,7.9297,8.1145,8.3718,8.4525,8.5222,8.5851,8.6509,8.7197,8.7856,8.7167,8.7536,8.8813,8.8155,8.8155,8.8813,8.8813,8.8783,8.8753,8.8753,8.8364,8.7796,8.8424,8.8304,8.7347,8.3487,8.2806,8.3863,8.3272,8.3467,8.4223,0.0,0.0,0.0,0.0,0.0,0.0,2.375,2.3887,2.5368,2.9264,3.4294,3.9873,4.6014,5.108,5.4662,5.6219,5.2955,4.9165,4.5278,3.8604,3.3718,3.1301,3.609,4.136,4.6875,5.0771,5.4402,5.7801,5.888,5.9508,5.9659,5.9483,5.9369,5.9344,5.883,5.8604,5.8554,5.8027,5.7198,5.5705,4.99,4.5608,4.2492,0.0,0.0,0.0,0.0,0.0,0.0,0.0,0.0,0.0,0.0,0.0,0.0,0.0,0.0,0.0,0.0,0.0,0.0,0.0,0.0,0.0,0.0,0.0,0.0,0.0,0.0,0.0,0.0,0.0,0.0,0.0,5.119,5.7359,5.7898,6.3215,6.879,7.3457,7.7259,7.924,7.8563,7.9322,8.072,8.2671,8.4504,8.606,8.7257,8.8843,8.9801,8.998,9.0638,9.1057,9.1237,9.0579,9.0698,9.1506,9.0848,9.0878,9.1536,9.1536,9.0997,9.0059,9.0059,8.9471,8.8424,8.8604,8.8574,8.8304,8.7227,8.7884,8.936,8.8684,8.9665,9.1307,0.0,0.0,0.0,0.0,0.0,0.0,2.3691,2.3633,2.5361,3.0544,3.6009,4.1831,4.8077,5.3128,5.6143,5.6319,5.1908,4.7449,4.3438,3.7628,3.4912,3.6095,4.1372,4.655,5.1359,5.4866,5.7775,6.0085,6.0713,6.1014,6.1014,6.1014,6.0914,6.0663,6.0588,6.0537,6.0537,6.0211,5.996,5.9433,5.5717,5.161,4.7436,4.4719,4.2443,4.0536,3.8841,3.8651,3.8691,3.5722,0.0,0.0,0.0,0.0,0.0,0.0,0.0,0.0,0.0,0.0,0.0,0.0,0.0,0.0,0.0,0.0,0.0,0.0,0.0,0.0,0.0,0.0,0.0,0.0,5.9421,6.7208,7.1592,7.3303,7.61,8.1616,8.3786,8.4833,8.4833,8.5671,8.6479,8.7097,8.8503,8.9621,9.0279,9.1416,9.2165,9.2434,9.2554,9.2733,9.3002,9.2344,9.2224,9.2613,9.2224,9.2224,9.2613,9.2613,9.2194,9.1404,9.1404,9.0878,8.992,8.992,9.0283,9.0696,0.0,0.0,0.0,0.0,9.4075,9.5804,0.0,0.0,0.0,0.0,0.0,0.0,2.3594,2.3357,2.5497,3.2153,3.7331,4.296,4.9689,5.4175,5.6369,5.539,4.9583,4.3974,3.9292,3.6032,3.6584,4.1832,4.6867,5.1595,5.5968,5.8629,6.0738,6.2295,6.2295,6.2295,6.2295,6.2295,6.2019,6.1567,6.2069,6.2295,6.2295,6.2295,6.1994,6.1466,6.0387,5.7253,5.2851,4.9058,4.6855,4.5574,4.3785,4.2294,4.1038,4.0013,0.0,0.0,0.0,0.0,0.0,0.0,0.0,0.0,0.0,0.0,0.0,0.0,0.0,0.0,0.0,0.0,0.0,0.0,0.0,0.0,0.0,0.0,0.0,0.0,6.6502,7.4344,8.3905,8.3965,8.3816,8.6,8.7437,8.8274,8.8364,8.9501,9.0459,9.0986,9.1644,9.2314,9.2913,9.3062,0.0,0.0,0.0,9.3451,9.4139,9.3332,9.3002,9.3152,9.3002,9.2972,9.3032,9.3032,9.307,9.3174,9.295,9.2531,9.2021,9.174,9.253,9.3857,9.2879,9.2831,9.3591,9.5642,9.7365,9.8548,0.0,0.0,0.0,0.0,0.0,0.0,2.322,2.3162,2.5644,3.278,3.7294,4.2555,4.9639,5.3181,5.4999,5.4773,4.8853,4.318,3.8582,3.9966,4.2812,4.7005,5.2445,5.6874,5.9985,6.1918,6.3249,6.4044,6.4044,6.4044,6.4044,6.4044,6.3969,6.3868,6.3994,6.4044,6.4044,6.4044,6.3969,6.3818,6.3124,6.019,5.6016,5.4309,5.2988,5.1768,5.0131,5.0131,5.0358,4.6407,4.5397,4.5005,4.0647,3.653,0.0,0.0,0.0,0.0,0.0,0.0,0.0,0.0,0.0,0.0,0.0,0.0,0.0,0.0,0.0,0.0,0.0,0.0,0.0,6.5098,7.5238,8.3949,8.8144,8.9741,9.0309,8.97,9.0848,9.1865,9.2404,9.3182,9.3721,9.384,9.4439,9.4888,9.5007,9.5995,9.6593,9.6743,9.6623,9.6862,9.7551,9.5875,9.5546,9.6533,9.5516,0.0,9.5859,9.5859,9.6164,9.6603,9.4953,9.4481,9.4726,9.2527,9.3318,9.6131,9.748,9.8052,9.8427,10.0418,10.1014,10.0802,0.0,0.0,0.0,0.0,0.0,0.0,2.1954,2.2467,2.4867,3.061,3.4396,3.8591,4.3872,4.6625,4.7771,4.7005,4.3483,4.0451,3.8447,4.3194,4.8092,5.2597,5.7362,6.0839,6.2813,6.4178,6.5032,6.5283,6.5007,6.5032,6.5283,6.5007,6.5032,6.5308,6.5627,6.5753,6.5753,6.5753,6.5753,6.5727,6.5132,6.3576,6.1301,5.9131,5.775,5.6846,5.5491,5.4988,5.4555,5.1887,5.0773,4.9759,4.5182,4.1753,3.9,0.0,0.0,0.0,0.0,0.0,0.0,0.0,0.0,0.0,0.0,0.0,0.0,0.0,0.0,4.6819,5.0927,0.0,6.8355,7.356,8.1083,8.7516,9.1141,9.3332,9.396,9.2314,9.3571,9.4708,9.5037,9.5995,9.6563,9.6563,9.6862,9.7072,9.7072,9.767,9.8149,9.8478,9.8179,9.8329,9.9017,9.77,9.7371,9.8,9.7371,9.7222,9.7551,9.7192,9.7283,9.7552,9.6189,9.5996,9.6687,9.6252,9.7072,9.8757,10.0377,10.102,10.1086,10.211,10.2299,10.2027,0.0,0.0,0.0,0.0,0.0,0.0,0.0,2.1876,2.4113,2.8251,3.1292,3.4323,3.769,3.9725,4.0027,3.7958,3.8534,3.9134,3.9409,4.6717,5.3217,5.8076,6.1803,6.4203,6.5124,6.6086,6.6589,6.6589,6.6162,6.6212,6.6696,6.6312,6.6338,6.6789,6.7241,6.7467,6.7467,6.7467,6.7467,6.7417,6.694,6.6764,6.6438,6.3576,6.1969,6.114,6.006,5.8328,5.6495,5.6269,5.4888,5.2657,4.9404,4.7272,4.4976,3.9824,3.925,0.0,0.0,0.0,0.0,0.0,0.0,0.0,0.0,3.9318,4.1457,4.7779,5.2583,5.7175,6.2275,6.9198,7.6029,8.1706,8.6026,9.0007,9.3821,9.6009,9.6533,9.4917,9.6144,9.7132,9.7132,9.8209,9.8897,9.8897,9.8897,9.8897,9.8897,9.9017,9.9346,9.9855,9.9376,9.9406,10.0094,9.9316,9.8957,9.9107,9.8957,9.8897,9.8897,9.8209,9.8058,9.8291,9.7793,9.7846,9.8458,10.0296,10.0778,10.0825,10.2288,10.2806,10.2502,10.2502,10.2502,10.2502,0.0,0.0,0.0,0.0,0.0,0.0,0.0,0.0,2.4433,2.8364,3.0378,3.2739,3.6081,3.7458,3.6573,3.2711,3.9355,4.3445,4.2812,5.1666,5.8727,6.2772,6.571,6.7292,6.7417,6.802,6.8346,6.8346,6.8271,6.8503,6.9029,6.8954,6.8954,6.9029,6.9105,6.913,6.913,6.913,6.913,6.913,6.9055,6.9029,6.8879,6.7568,6.6086,6.458,6.3525,6.0788,5.7851,5.873,5.6972,5.4561,5.5521,5.2717,4.8498,4.5415,4.1039,3.6554,3.3592,3.3422,3.4579,3.6796,3.8337,4.0479,0.0,4.7648,5.0829,5.6387,6.0781,6.5218,7.05,7.722,8.3034,8.6363,9.1744,9.588,9.6908,9.8269,9.9077,9.8867,9.9047,9.9167,9.9167,9.9825,10.0274,10.0274,10.0274,10.0274,10.0274,10.0782,10.1218,10.1308,10.1218,10.1517,10.2189,10.0902,10.0619,10.1218,10.0619,10.0274,10.032,9.9586,9.9989,10.1098,10.1102,10.0881,10.0621,10.1886,10.1701,10.0891,10.3397,10.3719,10.2502,10.2502,10.2502,10.2502,0.0,0.0,0.0,0.0,0.0,0.0,0.0,0.0,0.0,2.5666,2.6703,2.7875,2.9567,3.0316,2.9925,2.7966,3.6776,4.3036,4.4393,5.504,6.2847,6.6413,6.8899,7.0029,6.9727,7.0255,7.038,7.0054,6.9727,7.0029,7.0857,7.0229,7.0255,7.0857,7.0531,7.0581,7.0836,7.0836,7.1012,7.1313,7.1313,7.1313,7.1162,6.9777,6.7794,6.5409,6.2697,6.0085,0.0,5.765,5.6872,5.6118,5.6784,5.4029,4.987,4.6185,4.2476,3.9503,3.9045,3.9219,4.01,4.259,4.5339,4.8651,5.341,5.5858,5.9497,6.7873,7.2451,7.6144,8.008,8.4848,8.8826,9.0653,9.3865,9.6694,9.8417,9.9825,10.0214,9.9077,9.9945,10.0709,10.0709,10.1308,10.168,10.168,10.168,10.168,10.168,10.189,10.2116,10.2116,10.2116,10.2189,10.2488,10.192,10.18,10.2116,10.18,10.168,10.162,10.1008,10.1214,10.2291,10.3597,10.403,10.3794,10.4301,10.4198,10.3698,10.4402,10.4295,10.3686,10.3314,10.2908,10.2502,0.0,0.0,0.0,0.0,0.0,0.0,0.0,0.0,0.0,0.0,2.3984,2.4453,2.5024,2.5352,2.5371,2.4945,3.3939,4.1121,4.4673,5.5852,6.4279,6.8603,7.0958,7.2037,7.1786,7.2163,7.2163,7.1786,7.1431,7.1661,7.259,7.1786,7.1836,7.259,7.2188,7.2213,7.259,7.259,7.2841,7.3145,7.3145,7.2869,7.2288,7.033,6.7148,6.3336,6.0398,5.7571,5.506,5.3697,5.3085,5.3012,5.3627,5.2005,4.898,4.4744,4.1561,3.985,4.1867,4.3217,4.4967,4.8746,5.3019,5.7424,6.1966,6.5048,6.9377,7.8074,8.2489,8.5467,8.7736,9.0394,9.2689,9.4005,9.5443,9.734,9.9982,10.0812,10.0513,9.8748,9.9316,10.011,10.0603,10.159,10.2279,10.2488,10.2488,10.2488,10.2488,10.2668,10.2728,10.2728,10.2907,10.2997,10.2997,10.2997,10.2907,10.2728,10.2728,10.3013,10.3392,10.3396,10.3501,10.3997,10.5773,10.647,10.6486,10.6688,10.6494,10.6088,10.5716,10.5208,10.47,10.4295,10.372,10.3111,0.0,0.0,0.0,0.0,0.0,0.0,0.0,0.0,0.0,0.0,0.0,0.0,0.0,2.5102,2.4945,2.4449,3.1614,3.8349,4.3504,5.326,6.1978,6.9055,7.1489,7.2966,7.3519,7.3544,7.3544,7.3519,7.3494,7.377,7.4347,7.4297,7.4297,7.4347,7.4322,7.4322,7.4347,7.4347,7.4347,7.4372,7.4372,7.3393,7.1636,6.8899,6.3672,5.768,5.7047,5.3314,4.8382,4.6393,4.4315,4.2949,4.5064,4.5954,4.5382,4.1425,3.7112,3.4628,3.9026,4.2171,4.6092,5.4028,6.0278,6.5607,7.0042,7.5924,8.1533,8.5412,8.896,9.1493,9.2101,9.2866,9.4034,9.5999,9.7401,9.9222,10.1993,10.1291,10.0004,9.8688,9.6892,9.6533,9.8419,10.0364,10.1817,10.2535,10.2488,10.2488,10.2488,10.3087,10.3416,10.3416,10.4014,10.4313,10.4313,10.4313,10.4014,10.3416,10.3416,10.4198,10.5832,10.7269,10.7614,10.6906,10.7802,10.8088,10.7998,10.8804,10.8185,10.69,10.7576,10.6595,10.4802,10.5479,10.5276,10.4498,0.0,0.0,0.0,0.0,0.0,0.0,0.0,0.0,0.0,0.0,0.0,0.0,0.0,0.0,0.0,0.0,3.0674,3.5813,3.9262,5.0506,5.8995,6.3356,6.9801,7.3217,7.3016,7.4121,7.4498,7.4146,7.4146,7.4423,7.4901,7.4598,7.4623,7.4901,7.4573,7.4623,7.4901,7.4901,7.5176,7.5377,7.392,7.2991,7.1868,6.5902,6.0211,5.4619,0.0,4.452,4.2631,4.1468,4.064,4.0426,4.2187,4.1411,3.9056,3.5139,3.5654,3.8396,4.2715,4.8208,5.4305,6.0661,6.5378,7.017,7.6787,8.0926,8.4813,9.0128,9.0008,8.8596,8.7361,8.7828,8.9074,9.1402,9.5227,9.9135,10.2606,10.2698,10.1112,9.7641,9.7401,9.7102,9.6025,9.8089,10.0513,10.2907,10.3117,10.3296,10.3715,10.3984,10.4104,10.4104,10.4284,10.4403,10.4403,10.4403,10.4104,10.3416,10.2997,10.3089,10.3699,10.6674,10.792,10.7797,11.0105,11.0708,11.0205,11.0004,10.9302,10.849,10.8693,10.8016,10.69,10.7204,10.6798,10.5885,0.0,0.0,0.0,0.0,0.0,0.0,0.0,0.0,0.0,0.0,0.0,0.0,0.0,0.0,0.0,0.0,0.0,3.2901,3.583,4.5075,5.2162,5.6022,6.1988,6.5451,6.6024,6.6981,6.7976,6.9074,6.9878,7.0958,7.2288,7.274,7.3217,7.3745,7.3594,7.382,7.4274,7.3872,7.3034,7.1735,6.9443,6.7171,6.4538,5.8269,5.2769,0.0,4.0513,3.6958,3.5529,3.5081,3.4949,3.5231,3.6355,3.5754,3.4553,3.4176,3.7443,4.251,4.8799,5.5063,6.1143,6.6866,7.1853,7.686,8.2411,8.5978,8.9151,9.2833,8.9254,8.4934,8.3205,8.104,8.0836,8.4848,8.8699,9.3371,9.9521,9.9768,9.8625,9.6804,9.6683,9.6384,9.5396,9.7042,9.9316,10.2189,10.2817,10.3386,10.4014,10.4493,10.4792,10.4792,10.5002,10.5121,10.5121,10.5121,10.4702,10.3775,10.3917,10.4279,10.5001,10.8197,10.958,10.9718,11.2177,11.2632,11.1376,11.1489,11.0993,11.0385,11.0114,10.9505,10.8794,10.8524,10.7915,10.7001,0.0,0.0,0.0,0.0,0.0,0.0,0.0,0.0,0.0,0.0,0.0,0.0,0.0,0.0,0.0,0.0,0.0,0.0,3.3122,3.7392,4.2154,4.7377,4.9153,5.1158,5.3696,5.3556,5.5359,5.9114,6.1266,6.3711,6.6427,6.8489,6.9812,7.043,7.0865,7.132,7.1746,7.074,6.7789,6.3631,6.1183,5.6725,5.103,4.6993,4.2211,3.7392,3.4626,3.1092,2.7702,2.7741,2.7898,2.818,2.8732,3.0102,3.2654,3.8456,4.2391,4.6958,5.671,6.2166,6.6553,7.2459,7.9144,8.4796,8.6601,9.0624,9.3769,9.2916,8.6375,8.0378,7.9101,7.284,7.0239,7.7312,7.9408,8.3774,9.4071,9.3805,9.3656,9.6521,9.52,9.4751,9.6578,9.7281,9.8478,10.0483,10.18,10.2877,10.3595,10.4774,10.5492,10.56,10.609,10.6498,10.6498,10.6408,10.572,10.4511,10.5912,10.7393,10.8927,11.1286,11.2278,11.2402,11.4002,11.3518,11.1695,11.3108,11.3192,11.2517,11.1703,11.0993,11.0283,10.9505,10.8693,10.7915,0.0,0.0,0.0,0.0,0.0,0.0,0.0,0.0,0.0,0.0,0.0,0.0,0.0,0.0,0.0,0.0,0.0,0.0,2.8606,3.324,3.7125,3.9815,4.5354,4.9003,5.0312,5.1474,5.2702,5.4076,5.4929,5.629,5.8065,5.7886,5.905,6.1226,6.0273,5.9911,6.0009,5.9739,5.8354,5.6054,5.3441,5.1447,4.942,4.3697,3.9515,3.6242,3.2866,2.9945,2.778,2.8398,3.0658,3.367,3.6215,3.8386,4.0816,4.5153,5.0322,5.6097,6.2605,6.8337,7.3389,7.7009,7.9887,8.254,8.4994,8.5856,8.524,8.1968,7.5272,6.8645,6.3995,6.3751,6.7255,7.6556,8.4128,9.2124,10.1403,10.2292,10.1501,10.0377,9.9811,9.9256,9.8808,9.9346,10.0513,10.2518,10.2997,10.4104,10.6288,10.6707,10.7096,10.7605,10.7306,10.7126,10.7126,10.6199,10.551,10.5073,10.451,10.4501,10.501,10.8506,11.0014,11.0218,11.3906,11.4897,11.3887,11.4297,11.4004,11.3226,11.2482,11.1806,11.0993,11.0283,10.9505,10.8828,0.0,0.0,0.0,0.0,0.0,0.0,0.0,0.0,0.0,0.0,0.0,0.0,0.0,0.0,0.0,0.0,0.0,0.0,0.0,2.8957,3.1072,3.2044,3.5947,3.8758,4.0144,4.1361,4.3033,4.5203,4.6415,4.8029,5.0033,5.03,5.1403,5.3193,5.258,5.2461,5.2713,5.24,5.0657,0.0,0.0,4.3374,4.1097,3.6623,3.4274,3.3037,3.0628,3.0717,3.2378,3.521,3.7106,3.8967,4.2729,4.5455,4.8399,5.4089,5.8993,6.3841,6.9958,7.4788,7.849,8.0047,8.1792,8.2959,8.2292,8.1227,7.872,7.3186,6.4992,5.8114,5.5944,5.757,6.2497,7.2617,8.2211,9.1597,10.09,10.213,10.2182,10.2723,10.2997,10.2907,10.2189,10.2967,10.4194,10.5899,10.4894,10.5211,10.7276,10.7714,10.7994,10.8403,10.7695,10.7276,10.6977,10.6498,10.6019,10.5421,10.4595,10.5027,10.642,10.863,11.05,11.2206,11.4703,11.5594,11.5188,11.5188,11.4917,11.4511,11.3803,11.2989,11.2279,11.1501,11.0587,10.9606,0.0,0.0,0.0,0.0,0.0,0.0,0.0,0.0,0.0,0.0,0.0,0.0,0.0,0.0,0.0,0.0,0.0,0.0,0.0,0.0,2.5659,2.5693,2.5659,2.6506,2.8442,2.9044,3.1246,3.5174,3.7195,3.9498,4.2057,4.3489,4.467,4.5548,4.5816,4.6277,4.6818,4.6277,4.3645,3.9761,3.7954,3.4912,3.123,0.0,2.9031,2.9579,2.8809,3.2162,3.7885,4.405,4.5304,4.5093,4.9827,5.3032,5.6567,6.425,6.7898,7.0851,7.7483,8.075,8.2257,8.2357,8.3959,8.4126,7.9044,7.637,7.271,6.4721,5.5148,4.8707,5.0281,5.2059,5.6761,6.7534,7.6975,8.6681,9.7287,9.8706,10.0232,10.4612,10.5582,10.6109,10.6199,10.7216,10.8413,10.97,10.7586,10.6688,10.7695,10.8293,10.8593,10.8503,10.8014,10.7306,10.6707,10.7235,10.6797,10.572,10.5421,10.6891,10.9779,10.9927,11.1896,11.543,11.5721,11.558,11.543,11.5721,11.558,11.5329,11.4876,11.4207,11.3496,11.2822,11.1602,11.0418,0.0,0.0,0.0,0.0,0.0,0.0,0.0,0.0,0.0,0.0,0.0,0.0,0.0,0.0,0.0,0.0,0.0,0.0,0.0,0.0,0.0,2.5698,2.5371,2.5707,2.6789,2.7249,2.8044,2.9185,3.024,3.1622,3.3274,3.2747,3.4045,3.6737,3.5627,3.5564,3.6329,3.6235,3.4986,3.3124,3.2435,3.1692,3.0918,3.0156,2.9961,0.0,2.9922,3.1876,3.6089,4.6534,5.1821,5.5196,6.1812,6.5738,6.8917,7.3961,7.6383,7.8284,8.22,8.3914,8.4667,8.5169,8.4572,8.2243,7.5904,7.0568,6.3694,5.2332,4.5748,4.1,3.7486,4.2626,5.1854,6.5351,7.4366,8.5149,10.072,10.2976,10.4375,10.8085,10.9101,10.97,11.0208,11.0508,11.0927,11.1705,11.1375,11.0717,10.9769,10.9909,10.973,10.9221,10.9101,10.8712,10.8103,10.7605,10.7276,10.7007,10.5391,10.5825,10.8212,10.8887,11.0706,11.3194,11.4993,11.4807,11.32,11.4997,11.4699,11.3205,11.4297,11.4207,11.3496,11.2822,11.2009,11.1095,0.0,0.0,0.0,0.0,0.0,0.0,0.0,0.0,0.0,0.0,0.0,0.0,0.0,0.0,0.0,0.0,0.0,0.0,0.0,0.0,0.0,2.5391,2.541,2.5723,2.6412,2.7031,2.7676,2.832,0.0,2.926,2.9944,2.9451,3.0236,3.1994,3.1474,3.1617,3.2264,3.2486,3.2026,3.1191,3.1211,3.1211,3.1172,3.0723,3.0547,0.0,3.0801,3.3242,3.7426,4.4165,5.2423,6.1217,6.9244,7.3594,7.6532,8.0097,8.1729,8.2985,8.5747,8.6676,8.6851,8.6851,8.4089,7.8937,6.9829,6.2506,5.432,4.258,3.7675,3.515,3.3983,4.1154,5.036,5.9871,6.9979,8.1587,9.5782,9.9558,10.3282,11.0105,11.1794,11.2632,11.3291,11.3709,11.3889,11.3911,11.3911,11.2961,11.0876,11.0508,11.0029,10.94,10.97,10.94,10.8383,10.8413,10.8084,10.7396,10.6408,10.7419,11.0111,11.0511,11.2216,11.4825,11.5899,11.5583,11.429,11.5394,11.5212,11.4295,11.4992,11.4816,11.4105,11.3803,11.3192,11.2515,0.0,0.0,0.0,0.0,0.0,0.0,0.0,0.0,2.2064,2.5018,2.6836,2.7409,2.6245,2.5425,0.0,0.0,0.0,0.0,0.0,0.0,0.0,0.0,0.0,0.0,2.625,0.0,0.0,2.8489,2.8664,0.0,0.0,0.0,0.0,0.0,3.0195,3.0703,3.1309,3.1465,3.1387,0.0,0.0,3.1562,3.1621,0.0,0.0,0.0,0.0,3.4145,3.7964,4.1358,5.0026,6.0901,6.9316,7.5335,7.9733,8.2057,8.362,8.5194,8.8068,8.8943,8.8785,8.7856,8.3462,7.6308,6.4519,5.5993,4.7342,3.5984,3.1942,3.1078,3.3029,3.9953,4.7393,5.3727,6.3824,7.5594,8.9102,9.4725,10.1098,11.109,11.3709,11.4996,11.5595,11.6193,11.6283,11.5714,11.5295,11.4009,11.1615,11.0897,11.0188,10.961,11.0089,10.9819,10.8802,10.9191,10.8892,10.7815,10.7396,10.9008,11.2387,11.211,11.3788,11.6913,11.6913,11.6182,11.5105,11.5614,11.5507,11.5105,11.5614,11.5323,11.468,11.468,11.4207,11.3598,0.0,0.0,0.0,0.0,0.0,0.0,0.0,0.0,2.3809,2.7244,2.8027,2.8073,2.7565,2.7051,0.0,0.0,0.0,0.0,0.0,0.0,0.0,0.0,0.0,0.0,0.0,0.0,0.0,2.7162,2.7969,0.0,0.0,0.0,0.0,0.0,0.0,3.1504,3.2578,3.1836,0.0,0.0,0.0,0.0,0.0,0.0,0.0,0.0,0.0,3.2653,3.4372,4.1182,4.553,4.9306,5.6348,6.6797,7.6562,7.7494,8.016,8.3838,8.8672,9.0283,9.0191,8.8107,8.3462,7.6058,6.3142,5.4452,4.5886,3.4518,3.0512,2.9528,3.0935,3.353,3.8643,4.8537,5.5063,6.5562,8.4758,9.2574,10.031,11.0983,11.4577,11.6403,11.7001,11.7121,11.7121,11.6977,11.5385,11.3821,11.2273,11.1585,11.0897,11.0188,11.0298,11.0188,11.0068,10.959,10.9311,10.9191,10.7396,10.8793,11.3091,11.178,11.3306,11.6913,11.6913,11.5299,11.3001,11.5027,11.4591,11.3007,11.4993,11.5323,11.468,11.468,11.4207,11.3598,0.0,0.0,0.0,0.0,0.0,0.0,0.0,0.0,2.4375,2.8736,2.9628,2.9687,2.9266,2.8809,0.0,0.0,0.0,0.0,0.0,0.0,0.0,0.0,0.0,0.0,0.0,0.0,2.6744,2.7428,2.778,0.0,0.0,0.0,0.0,0.0,0.0,3.1699,3.2433,3.2081,0.0,0.0,0.0,0.0,0.0,0.0,0.0,0.0,0.0,0.0,3.3155,3.5529,4.0024,4.4504,4.3451,5.1035,6.2193,7.1807,7.7159,8.151,8.8281,9.0768,9.0944,8.8684,8.1704,7.242,6.112,5.1479,4.226,3.2871,2.9818,2.9289,3.0644,3.1797,3.4847,4.189,4.6312,5.4334,7.0126,7.7603,8.7102,10.2497,10.7125,11.1304,11.7169,11.7809,11.7576,11.7187,11.6103,11.4876,11.359,11.2094,11.1196,11.0927,11.0538,11.0328,11.0328,11.0089,10.9789,10.9371,10.9589,11.113,11.3902,11.4391,11.5898,11.83,11.7793,11.5927,11.329,11.5121,11.4512,11.2702,11.4886,11.5591,11.5391,11.5391,11.5188,11.4881,0.0,0.0,0.0,0.0,0.0,0.0,2.0739,2.2595,2.5194,2.9467,3.0293,3.04,3.0059,2.9207,2.7695,2.5367,0.0,0.0,0.0,0.0,0.0,0.0,0.0,0.0,0.0,0.0,2.6621,2.7506,2.7624,2.8288,0.0,0.0,3.0312,3.1328,0.0,0.0,0.0,0.0,0.0,0.0,0.0,0.0,0.0,0.0,0.0,0.0,0.0,0.0,0.0,0.0,0.0,3.9403,3.4497,3.843,4.7755,6.257,7.1086,7.7306,8.4889,8.9072,9.0718,8.8358,7.9532,6.8897,5.9153,4.8914,3.9254,3.1451,2.9453,2.9473,3.0664,3.123,3.3103,3.7986,4.154,4.8234,6.1376,6.8358,7.801,9.3808,9.8473,10.3982,11.3219,11.659,11.8018,11.7486,11.6911,11.6216,11.5206,11.3291,11.1914,11.1316,11.0786,11.0508,11.0328,11.0328,11.0381,11.0714,11.1502,11.321,11.5679,11.6521,11.7302,11.8173,11.8106,11.6019,11.2674,11.4892,11.4512,11.2702,11.4886,11.5794,11.5794,11.5794,11.5794,11.5794,0.0,0.0,0.0,0.0,0.0,0.0,0.0,0.0,2.6635,2.9266,2.9618,2.9618,2.9598,2.7721,2.6582,2.6953,0.0,0.0,0.0,0.0,0.0,0.0,0.0,0.0,0.0,0.0,2.6128,2.7031,2.7487,2.8105,2.8918,2.9805,3.0449,3.0918,0.0,0.0,0.0,0.0,0.0,0.0,0.0,0.0,3.3445,0.0,0.0,0.0,0.0,0.0,0.0,0.0,0.0,0.0,0.0,3.1494,3.5598,4.8837,6.0693,7.0972,7.7678,8.4694,8.9463,8.6701,7.7185,6.6221,5.7343,4.7155,3.7509,3.0389,2.9277,2.9872,3.0723,3.123,3.3103,3.7986,4.2158,4.9357,6.2521,6.9579,7.6936,8.6615,8.9956,9.4952,10.3684,11.284,11.8198,11.8198,11.76,11.7211,11.7211,11.5325,11.338,11.1375,11.1286,11.0986,11.0278,11.0328,11.1478,11.3811,11.251,11.4291,11.8815,11.7408,11.6394,11.5823,11.7396,11.5101,11.0431,11.4221,11.4512,11.2702,11.4886,11.5794,11.5794,11.5794,11.5794,11.5794,0.0,0.0,0.0,0.0,0.0,0.0,0.0,0.0,2.2954,2.442,2.5499,2.6446,2.736,2.6072,2.5623,2.6896,0.0,0.0,0.0,0.0,0.0,0.0,0.0,0.0,0.0,0.0,0.0,0.0,2.7148,2.8105,2.9785,2.9473,3.0039,3.1309,3.082,3.0937,0.0,0.0,0.0,0.0,3.2081,3.2676,3.3445,0.0,0.0,0.0,0.0,0.0,0.0,0.0,0.0,0.0,0.0,0.0,0.0,3.7887,4.8125,5.9199,6.6049,7.1,7.3346,6.9525,6.2636,5.5264,4.9299,4.1933,3.5194,3.1117,2.9931,3.0048,3.1514,3.1621,3.347,3.9526,4.2904,4.7516,5.5332,6.5765,7.6266,8.6158,10.0623,11.0776,11.3622,11.653,11.8198,11.8198,11.8018,11.7719,11.7187,11.6223,11.4727,11.2722,11.1794,11.0807,10.97,11.1699,11.2705,11.2479,11.5287,11.717,11.8206,11.8907,11.9069,11.8806,11.8777,11.672,11.3394,11.563,11.5018,11.2702,11.4886,11.5794,11.5794,11.5794,11.5794,11.5794,0.0,0.0,0.0,0.0,0.0,0.0,0.0,0.0,2.0706,2.1443,2.2455,2.3667,2.5174,2.4108,2.4024,2.5907,0.0,0.0,0.0,0.0,0.0,0.0,0.0,0.0,0.0,0.0,0.0,0.0,0.0,0.0,3.0684,3.0128,3.0264,3.0996,3.0625,3.0625,0.0,0.0,0.0,0.0,3.1875,3.2617,3.3652,0.0,0.0,0.0,0.0,0.0,0.0,0.0,0.0,0.0,0.0,0.0,0.0,0.0,3.8391,4.6836,5.5487,6.1212,6.4013,6.0894,5.4939,4.8838,4.501,3.8827,3.3496,3.2093,3.1474,3.1595,3.2834,3.3482,3.5178,3.9395,4.2109,4.6485,5.4618,6.4326,7.5137,8.735,10.3107,11.3077,11.3261,11.6303,11.8198,11.8198,11.8198,11.7929,11.7187,11.6612,11.5385,11.341,11.2213,11.1472,11.1081,11.2705,11.3821,11.4484,11.718,11.8707,11.919,11.9993,11.9776,11.902,11.8807,11.671,0.0,11.5588,11.488,11.2702,11.4886,11.5794,11.5794,11.5794,11.5794,11.5794,0.0,0.0,0.0,0.0,0.0,0.0,0.0,0.0,0.0,0.0,0.0,2.1212,2.283,2.1904,0.0,0.0,0.0,0.0,0.0,0.0,0.0,0.0,0.0,0.0,0.0,0.0,0.0,0.0,2.8906,2.9796,3.1562,0.0,3.1113,3.0312,3.0742,3.0918,0.0,0.0,0.0,0.0,3.154,3.2349,0.0,0.0,0.0,0.0,0.0,0.0,0.0,0.0,0.0,0.0,0.0,0.0,0.0,0.0,0.0,0.0,0.0,5.3969,5.9059,5.786,5.1814,4.5521,4.3268,3.7215,0.0,3.3043,3.3497,3.3922,3.4395,3.6163,3.7736,3.8101,4.0541,4.6672,5.8927,6.6061,7.5735,9.112,10.0279,10.5498,10.5914,11.3403,11.8198,11.8198,11.8198,11.7899,11.733,11.6612,11.5521,11.3789,11.3001,11.2881,11.3715,11.3475,11.5092,11.8608,11.8173,11.9116,12.1018,12.0495,11.8992,11.6915,11.7588,11.5504,11.1791,11.4516,11.4508,11.2896,11.4993,11.5794,11.5794,11.5794,11.5794,11.5794,0.0,0.0,0.0,0.0,0.0,0.0,0.0,0.0,0.0,0.0,0.0,1.8572,1.8992,1.9578,0.0,0.0,0.0,0.0,0.0,0.0,0.0,0.0,0.0,0.0,0.0,0.0,0.0,2.8437,2.8769,2.998,3.2042,3.2042,0.0,0.0,0.0,0.0,0.0,0.0,0.0,0.0,3.0084,3.0475,0.0,0.0,0.0,0.0,3.2598,3.2676,0.0,0.0,0.0,0.0,0.0,0.0,0.0,0.0,3.0312,3.2075,3.5469,0.0,4.1016,3.9093,3.7168,3.5477,0.0,3.2703,3.1329,3.181,3.2276,3.2913,3.3996,3.6008,3.7835,3.8773,4.4291,5.0962,5.8089,7.6829,9.4367,10.6712,11.2174,11.4422,11.3112,11.6106,11.8198,11.8198,11.7665,11.7629,11.7875,11.6403,11.6412,11.843,11.6217,11.45,11.3208,11.6613,11.7382,11.5593,11.8902,11.9289,11.7097,11.8696,11.8815,11.7678,11.6172,11.5484,11.5484,11.4471,11.4493,11.5101,11.5614,11.5794,11.5794,11.5794,11.5794,11.5794,0.0,0.0,0.0,0.0,0.0,0.0,0.0,0.0,0.0,0.0,0.0,0.0,0.0,0.0,0.0,0.0,0.0,0.0,0.0,0.0,0.0,0.0,0.0,0.0,0.0,0.0,0.0,0.0,0.0,3.084,0.0,0.0,0.0,0.0,0.0,0.0,0.0,0.0,2.8803,3.1005,2.9209,0.0,0.0,0.0,0.0,0.0,3.2296,3.2394,0.0,3.3098,3.2961,3.2316,0.0,0.0,0.0,0.0,2.959,3.0176,3.1064,3.2851,3.4258,3.3313,3.2628,3.214,3.1875,3.1328,3.1289,3.2602,3.3397,3.4145,3.5012,3.7824,3.9851,3.945,4.7081,5.6798,6.7602,8.3281,9.7919,10.9417,11.2487,11.4511,11.6416,11.76,11.8198,11.8198,11.76,11.7187,11.73,11.5984,11.621,11.8079,11.7807,11.7419,11.7227,11.8686,11.8914,11.7705,11.9897,11.9623,11.73,11.8621,11.8808,11.7985,11.5296,11.5201,11.6698,11.4089,11.4207,11.5794,11.5794,11.5794,11.5794,11.5794,11.5794,11.5794,0.0,0.0,0.0,0.0,0.0,0.0,0.0,0.0,0.0,0.0,0.0,0.0,0.0,0.0,0.0,0.0,0.0,0.0,0.0,0.0,0.0,0.0,0.0,0.0,0.0,0.0,0.0,0.0,0.0,0.0,0.0,0.0,0.0,0.0,0.0,0.0,0.0,0.0,2.8253,3.1199,2.8773,0.0,0.0,0.0,0.0,0.0,0.0,0.0,0.0,3.375,3.3496,3.2578,3.2441,0.0,0.0,0.0,0.0,0.0,3.0586,3.2708,3.4501,3.4156,3.3167,3.2337,3.2502,3.185,3.1801,3.3891,3.5022,3.5822,3.6412,4.0369,4.282,4.0718,5.0835,6.4839,8.1745,8.9347,9.7071,10.7589,10.9489,11.2017,11.7318,11.8018,11.8198,11.8078,11.7366,11.6822,11.6336,11.5807,11.5926,11.6712,11.8766,12.0699,12.2516,12.0508,11.9922,12.0884,12.052,11.9671,11.8491,11.8898,11.8605,11.7614,11.4698,11.4701,11.6529,11.3691,11.3802,11.5794,11.5794,11.5794,11.5794,11.5794,11.5794,11.5794,0.0,0.0,0.0,0.0,0.0,0.0,0.0,0.0,0.0,0.0,0.0,0.0,0.0,0.0,0.0,0.0,0.0,0.0,0.0,0.0,0.0,0.0,0.0,0.0,0.0,0.0,0.0,0.0,0.0,0.0,3.5312,3.6699,3.6055,0.0,0.0,0.0,0.0,0.0,2.8851,3.082,2.8663,0.0,0.0,0.0,0.0,0.0,0.0,0.0,0.0,3.2051,3.1845,3.1582,3.084,0.0,0.0,0.0,0.0,0.0,3.3379,3.6938,3.9018,3.496,3.3326,3.2947,3.3923,3.3286,3.2698,3.3418,3.427,3.5238,3.6443,4.1964,4.5785,4.4267,5.9701,7.7601,9.3841,10.1596,10.7773,11.3485,11.5713,11.6506,11.5834,11.7211,11.7989,11.742,11.6822,11.6403,11.6306,11.6505,11.7881,12.0622,12.1404,12.2492,12.4315,12.2698,12.0779,11.8473,11.9728,11.847,11.5395,11.7376,11.7522,11.5989,11.3696,11.3897,11.5783,11.3492,11.3802,11.5794,11.5794,11.5794,11.5794,11.5794,11.5794,11.5794,0.0,0.0,0.0,0.0,0.0,0.0,0.0,0.0,0.0,0.0,0.0,0.0,0.0,0.0,0.0,0.0,0.0,0.0,0.0,0.0,0.0,0.0,0.0,0.0,0.0,0.0,0.0,0.0,0.0,3.4316,3.7109,3.6738,3.5547,3.3589,0.0,0.0,0.0,0.0,2.6508,3.0267,0.0,0.0,0.0,0.0,0.0,0.0,0.0,0.0,0.0,0.0,3.2441,3.1836,3.166,0.0,0.0,0.0,0.0,0.0,3.2539,3.461,3.6769,3.8597,3.994,4.0671,3.99,4.0418,4.0587,3.911,4.0301,4.1507,4.1058,4.6703,5.4756,6.4916,7.5133,8.5905,9.7674,10.0793,10.42,11.0385,11.2221,11.4001,11.6625,11.7689,11.7929,11.73,11.6589,11.5984,11.5318,11.633,11.7776,11.9919,12.1,12.2171,12.351,12.1988,12.0816,11.9812,11.93,11.8183,11.6535,11.7214,11.6775,11.5721,11.3497,11.3798,11.558,11.3425,11.3802,11.5794,11.5794,11.5794,11.5794,11.5794,11.5794,11.5794,0.0,0.0,0.0,0.0,0.0,0.0,0.0,0.0,0.0,0.0,0.0,0.0,0.0,0.0,0.0,0.0,0.0,0.0,0.0,0.0,0.0,0.0,0.0,0.0,0.0,0.0,2.9618,3.2648,3.3769,3.5898,3.8848,3.6894,3.5117,0.0,0.0,0.0,0.0,0.0,2.4471,2.8812,0.0,0.0,0.0,0.0,0.0,0.0,0.0,0.0,0.0,0.0,0.0,0.0,0.0,0.0,0.0,3.0527,3.0351,3.0644,3.1914,3.3256,3.5703,4.1529,4.3734,4.4885,4.6335,4.7464,4.801,4.7194,4.8735,4.96,4.7831,5.3115,6.391,8.2615,8.812,9.3148,10.2017,10.19,10.3293,10.9416,11.051,11.2702,11.7737,11.8108,11.7719,11.6977,11.6283,11.5325,11.4128,11.6113,11.7627,11.8193,12.0408,12.1804,12.2224,12.0808,12.0296,12.0905,11.9011,11.7996,11.7793,11.7184,11.6507,11.5687,11.3992,11.4182,11.5721,11.4026,11.429,11.5794,11.5794,11.5794,11.5794,11.5794,11.5794,11.5797,0.0,0.0,0.0,0.0,0.0,0.0,0.0,0.0,0.0,0.0,0.0,0.0,0.0,0.0,0.0,0.0,0.0,0.0,0.0,0.0,0.0,0.0,0.0,0.0,0.0,2.8595,3.0947,3.3958,3.6016,3.7969,3.9766,3.8379,3.6406,3.3933,0.0,0.0,0.0,0.0,2.4717,2.5538,2.6692,0.0,0.0,0.0,0.0,0.0,0.0,0.0,0.0,0.0,0.0,0.0,0.0,0.0,3.0371,3.0742,3.084,3.1367,3.3809,3.7439,4.0718,4.1459,3.8335,3.8387,5.1077,5.1319,5.0652,5.6663,5.7981,5.7696,5.6355,6.106,7.0014,8.4862,9.2747,10.083,11.1692,11.4209,11.5498,11.7211,11.7479,11.7737,11.8198,11.7576,11.7031,11.6426,11.5228,11.4128,11.341,11.663,11.8089,11.749,12.1294,12.2813,12.1514,11.9992,11.9281,11.9315,11.8503,11.7691,11.7015,11.6913,11.6507,11.5794,11.558,11.5684,11.5794,11.558,11.5684,11.5794,11.5794,11.5794,11.5794,11.5794,11.5794,11.5729,0.0,0.0,0.0,0.0,0.0,0.0,0.0,0.0,0.0,0.0,0.0,0.0,0.0,0.0,0.0,0.0,0.0,0.0,0.0,0.0,0.0,0.0,0.0,2.3332,2.5452,3.0287,3.4134,3.691,3.9297,3.9585,3.7802,3.604,0.0,0.0,0.0,0.0,0.0,0.0,2.3243,2.5479,2.474,2.5082,0.0,0.0,0.0,0.0,0.0,0.0,0.0,0.0,3.1074,3.0937,3.0449,3.0849,3.1279,3.0361,3.0497,3.1152,3.2383,3.6667,4.0967,4.1767,4.2137,4.482,5.4414,5.8528,6.1559,6.5909,6.8694,6.9429,6.6736,7.4844,8.4319,9.1664,10.0998,10.9428,11.53,11.6911,11.7689,11.8138,11.8198,11.7964,11.7629,11.7306,11.6612,11.5228,11.4577,11.35,11.1474,11.5523,11.7311,11.6205,12.0105,12.1988,12.1412,11.9484,11.8503,11.8503,11.7285,11.6812,11.6913,11.6406,11.6101,11.5794,11.5794,11.5794,11.5794,11.5794,11.5794,11.5794,11.5794,11.5794,11.5794,11.5794,11.5794,11.5797,0.0,0.0,0.0,0.0,0.0,0.0,0.0,0.0,0.0,0.0,0.0,0.0,0.0,0.0,0.0,0.0,0.0,0.0,0.0,0.0,0.0,0.0,0.0,2.2679,2.4978,3.0699,3.5145,3.8184,4.1172,4.0428,3.6235,0.0,0.0,0.0,0.0,0.0,0.0,0.0,0.0,0.0,2.3308,2.3546,0.0,0.0,0.0,0.0,0.0,0.0,0.0,0.0,3.0684,3.0616,3.0293,3.0849,3.1397,3.0478,3.0527,3.0957,3.125,3.4421,3.8291,4.0938,4.4048,4.8968,5.8489,6.4595,6.99,7.5764,7.8119,7.8475,7.6436,8.4502,9.2705,9.6565,10.5973,11.3901,11.7133,11.7929,11.8198,11.8198,11.8198,11.7875,11.73,11.6768,11.5984,11.4398,11.35,11.2602,11.1481,11.4818,11.6579,11.6174,11.9303,12.0905,12.0702,11.8706,11.7725,11.7691,11.6369,11.6101,11.6507,11.5997,11.5794,11.5794,11.5794,11.5794,11.5831,11.549,11.5188,11.4816,11.5019,11.512,11.5084,11.5391,11.5492,11.5497,0.0,0.0,0.0,0.0,0.0,0.0,0.0,0.0,0.0,0.0,0.0,0.0,0.0,0.0,0.0,0.0,0.0,0.0,0.0,0.0,0.0,0.0,0.0,2.3013,2.6083,2.958,3.3304,3.7289,4.1133,4.039,3.5413,3.474,0.0,0.0,0.0,0.0,0.0,0.0,0.0,0.0,2.2804,2.338,2.343,0.0,0.0,0.0,0.0,0.0,0.0,0.0,2.9629,2.9211,3.0928,3.0918,3.0391,3.1269,3.123,3.0918,3.0898,3.1279,3.3023,3.8727,4.2551,4.8806,6.3607,6.8852,7.4033,8.6211,8.5883,8.3764,8.4949,8.8381,9.284,9.8591,10.6419,11.3229,11.761,11.8198,11.8198,11.8198,11.8198,11.7929,11.7187,11.6014,11.4996,11.4308,11.1824,11.131,11.3603,11.4807,11.611,11.768,11.9423,11.989,11.918,11.7691,11.6913,11.6913,11.6203,11.5794,11.5794,11.5794,11.5794,11.5794,11.5794,11.5794,11.5693,11.4985,11.3801,11.2618,11.3293,11.3598,11.3699,11.4376,11.4717,11.4799,0.0,0.0,0.0,0.0,0.0,0.0,0.0,0.0,0.0,0.0,0.0,0.0,0.0,0.0,0.0,0.0,0.0,0.0,0.0,0.0,0.0,0.0,0.0,0.0,0.0,0.0,3.1131,3.5885,3.6191,3.428,0.0,0.0,0.0,2.5323,0.0,0.0,0.0,0.0,0.0,0.0,2.1605,2.1673,2.1519,0.0,0.0,0.0,0.0,0.0,0.0,0.0,0.0,0.0,3.0078,3.1016,3.1953,3.1591,3.1855,3.2168,3.1905,3.719,4.2853,4.326,5.1624,6.2072,7.0974,7.4541,7.98,9.3335,9.4099,9.2002,9.0987,9.4732,9.889,10.1689,10.8533,11.4607,11.7791,11.8198,11.8018,11.76,11.751,11.6911,11.5325,11.4817,11.3709,11.1594,11.0696,11.0494,11.0913,11.2833,11.4388,11.5516,11.7574,11.8605,11.8402,11.7387,11.6913,11.6913,11.6203,11.5794,11.5794,11.5794,11.5794,11.5794,11.5794,11.5526,11.4985,11.4207,11.3431,11.2618,11.3293,11.3293,11.3099,11.4899,11.5583,11.5922,0.0,0.0,0.0,0.0,0.0,0.0,0.0,0.0,0.0,0.0,0.0,0.0,0.0,0.0,0.0,0.0,0.0,0.0,0.0,0.0,0.0,0.0,0.0,0.0,0.0,2.4137,2.728,0.0,0.0,0.0,0.0,0.0,0.0,2.4989,0.0,2.5776,0.0,0.0,2.3037,2.1309,2.1537,2.139,2.111,0.0,0.0,0.0,0.0,0.0,0.0,0.0,0.0,0.0,2.9774,3.0752,3.1797,3.1973,3.1894,3.2243,3.45,3.9863,4.5746,4.9783,5.9536,7.0846,8.1285,8.4736,8.8511,9.841,9.9202,9.822,9.8758,10.1921,10.4896,10.6496,11.1677,11.6103,11.7929,11.7989,11.7689,11.7187,11.6792,11.5894,11.4428,11.359,11.2213,11.0119,10.9995,11.0214,11.07,11.2601,11.4384,11.5889,11.709,11.7624,11.7624,11.6879,11.6304,11.6,11.5898,11.5526,11.4881,11.549,11.5794,11.5831,11.5492,11.4782,11.3803,11.3293,11.2583,11.1703,11.2414,11.2803,11.3222,11.4883,11.598,11.6811,0.0,0.0,0.0,0.0,0.0,0.0,0.0,0.0,0.0,0.0,1.6315,0.0,0.0,0.0,0.0,0.0,0.0,0.0,0.0,0.0,1.7622,1.7648,1.8277,1.9546,2.1502,2.2525,2.2619,0.0,0.0,0.0,0.0,0.0,2.8221,2.8694,0.0,2.7678,2.7985,2.5531,2.3319,2.1489,2.2084,2.1991,2.1636,2.268,0.0,0.0,0.0,0.0,0.0,0.0,0.0,0.0,2.9746,3.0195,3.0586,3.2207,3.1947,3.2434,3.8273,4.1118,4.5357,5.7654,6.6841,7.688,9.2164,9.6605,9.8498,10.1805,10.1989,10.2792,10.7012,10.8692,11.0084,11.2213,11.5116,11.7276,11.7875,11.7396,11.6977,11.6888,11.5894,11.4787,11.4009,11.2213,11.0597,10.9221,10.9188,11.0079,11.1907,11.3396,11.5299,11.782,11.7218,11.6812,11.6812,11.6101,11.5391,11.468,11.5323,11.4917,11.3596,11.5086,11.5695,11.5594,11.4816,11.3699,11.2415,11.2415,11.1501,11.0283,11.1095,11.2299,11.3683,11.4711,11.5998,11.7603,0.0,0.0,0.0,0.0,0.0,0.0,0.0,0.0,0.0,0.0,0.0,0.0,0.0,0.0,0.0,0.0,0.0,0.0,0.0,0.0,1.7689,1.7902,1.9143,2.0281,2.1189,2.0971,2.0575,1.9963,0.0,0.0,0.0,0.0,0.0,2.8255,0.0,2.774,2.6598,2.4743,2.2517,2.0267,2.1355,2.1422,2.0918,2.1162,2.0985,0.0,0.0,0.0,0.0,0.0,0.0,0.0,2.9442,3.0204,3.0879,3.1582,3.499,3.9097,4.1826,4.8902,5.7267,6.4413,7.5943,8.6845,9.2203,9.8164,10.3109,10.5091,10.5169,10.6008,10.9762,11.0117,11.0588,11.3374,11.5325,11.6469,11.6702,11.6103,11.5505,11.4996,11.4218,11.3081,11.1265,11.0328,10.9011,10.7186,10.6593,10.7598,11.0416,11.09,11.27,11.6228,11.6099,11.5997,11.5997,11.5289,11.4883,11.468,11.4308,11.3902,11.3598,11.4511,11.4613,11.4004,11.3293,11.2517,11.1602,11.1602,11.0825,10.9607,11.0892,11.1992,11.308,11.5092,11.6902,11.8499,0.0,0.0,0.0,0.0,0.0,0.0,0.0,0.0,0.0,0.0,0.0,0.0,0.0,0.0,0.0,0.0,0.0,0.0,0.0,0.0,0.0,0.0,1.9813,2.0454,2.0481,2.029,1.9717,1.8731,0.0,0.0,0.0,0.0,0.0,2.7348,0.0,2.7768,2.5207,2.4056,2.2253,2.0307,2.1381,2.1435,2.0869,2.0766,2.0227,1.9695,2.0508,0.0,0.0,0.0,0.0,0.0,0.0,0.0,3.0458,3.1269,3.3968,3.8235,4.5299,5.2525,6.1152,7.4085,8.4199,9.1691,9.446,9.9952,10.4787,10.5884,10.7666,10.9587,11.1896,11.2379,11.2906,11.4517,11.5625,11.6193,11.5894,11.5206,11.4577,11.3889,11.2692,11.1495,11.0418,10.8892,10.7396,10.5971,10.7026,10.8229,10.9585,11.1687,11.3719,11.5687,11.5492,11.5289,11.5289,11.4511,11.4004,11.3598,11.3598,11.3226,11.2583,11.3293,11.3192,11.2515,11.1771,11.0993,11.0384,11.0689,11.0181,10.9302,11.079,11.2391,11.3887,11.5506,11.7617,11.9792,0.0,0.0,0.0,0.0,0.0,0.0,0.0,0.0,0.0,0.0,0.0,0.0,0.0,0.0,0.0,0.0,0.0,0.0,0.0,0.0,0.0,0.0,2.0191,2.0401,1.996,2.005,1.949,1.8169,0.0,0.0,0.0,0.0,0.0,2.6961,0.0,2.7325,2.4542,2.3205,2.1817,2.0619,2.1376,2.139,2.0922,0.0,0.0,1.917,2.0534,2.1665,2.2867,2.528,0.0,0.0,0.0,0.0,2.9687,3.084,3.2136,3.5701,4.6878,5.4256,6.3398,8.257,9.0308,9.3971,9.6546,10.1494,10.5609,10.5801,10.9202,11.2303,11.3021,11.4098,11.4876,11.4787,11.5325,11.5505,11.4697,11.4009,11.338,11.2722,11.1106,10.9909,10.959,10.7605,10.5929,10.5073,10.7722,10.929,10.9209,11.2913,11.5194,11.5591,11.4917,11.441,11.4308,11.3598,11.2888,11.2279,11.2786,11.2312,11.0993,11.1501,11.1502,11.0993,11.0384,10.9708,10.9099,10.9809,10.981,10.9404,11.1002,11.3108,11.5323,11.6195,11.8373,12.0912,0.0,0.0,0.0,0.0,0.0,0.0,0.0,0.0,0.0,0.0,1.6019,1.5861,0.0,0.0,0.0,0.0,0.0,0.0,1.7233,0.0,0.0,1.9361,1.996,2.0374,2.0592,2.0094,1.9506,0.0,0.0,0.0,0.0,0.0,0.0,2.8894,0.0,0.0,2.6156,2.1773,1.9936,1.9947,2.029,2.0384,0.0,0.0,0.0,0.0,2.0415,2.1829,2.3536,2.5458,2.705,0.0,0.0,0.0,2.9121,2.9668,3.3459,3.8359,4.2769,5.5968,7.1395,8.324,9.0996,9.5586,9.498,10.1596,10.7509,10.6193,10.8879,11.1615,11.2303,11.3081,11.338,11.2782,11.3291,11.3291,11.2004,11.1286,11.0627,10.9999,10.9161,10.8174,10.7037,10.6109,10.4984,10.3805,10.5297,10.7221,10.8988,11.0913,11.2908,11.4813,11.4105,11.3395,11.2822,11.2111,11.1602,11.1501,11.0993,11.0283,10.9505,10.8896,10.8896,10.9505,10.9404,10.8896,10.8185,10.8997,10.9302,10.9406,11.1597,11.3913,11.6084,11.7609,11.9325,12.0912,0.0,0.0,0.0,0.0,0.0,0.0,0.0,0.0,0.0,0.0,0.0,1.5808,0.0,0.0,0.0,1.6473,1.6633,1.6901,1.7381,1.7782,1.8263,1.8879,1.9439,1.9573,1.9199,1.9426,1.9053,0.0,0.0,0.0,0.0,2.3474,2.5285,0.0,0.0,0.0,0.0,2.1187,1.991,2.0294,2.0224,2.1579,0.0,0.0,0.0,0.0,0.0,0.0,2.3271,2.512,2.6854,2.834,2.8574,0.0,0.0,0.0,3.2435,3.7647,4.9036,6.076,7.2494,8.3681,8.9902,9.3546,9.4255,10.0597,10.6199,10.5526,10.7996,11.0687,11.2004,11.2513,11.2602,11.2303,11.2213,11.1773,11.0897,10.9879,10.8982,10.8383,10.7366,10.6498,10.5929,10.5998,10.5926,10.5316,10.7601,10.9424,11.029,11.1798,11.3096,11.4105,11.2989,11.2211,11.1873,11.0689,11.0216,11.0216,10.9809,10.9302,10.8524,10.8219,10.8219,10.849,10.8084,10.7712,10.7407,10.8219,10.8794,10.9408,11.1182,11.3703,11.6308,11.7373,11.9115,12.0802,0.0,0.0,0.0,0.0,0.0,0.0,0.0,0.0,0.0,0.0,0.0,0.0,0.0,0.0,0.0,0.0,1.678,1.706,1.7582,1.7796,1.7996,1.825,1.8758,1.8718,1.8009,1.8758,0.0,0.0,0.0,0.0,2.3532,2.4382,2.5865,0.0,2.6894,2.5641,0.0,0.0,0.0,0.0,0.0,0.0,0.0,0.0,0.0,0.0,0.0,0.0,0.0,2.529,2.7017,2.8359,2.8762,2.9512,0.0,0.0,0.0,3.6006,5.1458,5.9978,6.7463,7.9862,8.5869,8.9665,9.3178,9.9321,10.4313,10.4577,10.6887,10.94,11.0986,11.1286,11.1286,11.1286,11.0717,11.0119,10.959,10.8473,10.7505,10.6977,10.6419,10.5909,10.5806,10.6702,10.7292,10.7105,10.937,11.0788,11.0788,11.2111,11.2786,11.2786,11.1501,11.0689,11.0519,10.9403,10.8794,10.8591,10.8591,10.8185,10.7407,10.7204,10.7204,10.7069,10.6798,10.6697,10.69,10.7306,10.8201,10.9594,11.1105,11.362,11.6295,11.7491,11.8908,12.0214,0.0,0.0,0.0,0.0,0.0,0.0,0.0,0.0,0.0,0.0,0.0,0.0,0.0,0.0,1.6404,1.6687,1.6993,1.7313,1.7582,1.7622,1.7635,1.7662,1.7916,0.0,1.7995,1.837,1.8357,0.0,0.0,0.0,2.4182,2.5611,2.7816,3.0474,2.7899,2.6142,2.4887,0.0,0.0,0.0,0.0,0.0,0.0,0.0,0.0,0.0,0.0,0.0,0.0,0.0,2.7896,2.8359,2.8762,2.9512,3.0195,0.0,0.0,0.0,4.2748,4.8187,5.4791,6.9045,7.7483,8.4143,9.1194,9.7769,10.2716,10.3662,10.5778,10.7695,10.8522,10.8612,10.8612,10.8612,10.7994,10.7575,10.7624,10.6408,10.5492,10.5492,10.6795,10.7389,10.6785,10.8011,10.8597,10.8001,10.8782,10.9301,10.9301,11.0097,11.0486,11.0486,10.9708,10.8896,10.8219,10.8118,10.7712,10.7001,10.7001,10.6595,10.5919,10.5174,10.4903,10.487,10.558,10.6291,10.6798,10.6189,10.7586,11.0377,11.2018,11.4094,11.641,11.8596,11.9102,11.8599,0.0,0.0,0.0,0.0,0.0,0.0,0.0,0.0,0.0,0.0,0.0,0.0,0.0,1.6099,1.6417,1.6687,1.7154,1.7501,1.7595,1.7608,1.7608,1.7608,1.7849,1.7929,1.7756,1.8237,1.825,0.0,0.0,2.0361,2.3086,2.4532,2.6533,2.8724,2.6827,2.5852,2.5436,2.1743,0.0,0.0,0.0,0.0,0.0,0.0,0.0,0.0,0.0,2.6948,2.8342,0.0,0.0,0.0,0.0,3.0586,3.1094,3.1416,3.2187,3.4676,4.2649,4.6235,5.0598,6.2709,7.1969,7.9325,8.3811,9.3325,10.1116,10.1102,10.3811,10.6079,10.5869,10.6498,10.7276,10.7665,10.6827,10.6109,10.6109,10.5002,10.4721,10.6079,10.5979,10.6286,10.7488,10.8497,10.8998,10.8802,10.9496,10.9896,10.9896,10.9224,10.8794,10.8794,10.761,10.6697,10.5885,10.5885,10.5716,10.5512,10.5512,10.531,10.5073,10.4802,10.47,10.47,10.5005,10.5479,10.6189,10.6392,10.8298,11.1098,11.1707,11.3898,11.6892,11.7677,11.8195,11.8416,0.0,0.0,0.0,0.0,0.0,0.0,0.0,0.0,0.0,0.0,0.0,0.0,0.0,0.0,1.6173,1.6955,1.7381,1.7648,1.7729,1.7742,1.7782,1.7916,1.8063,1.8116,1.8036,1.8531,1.8437,0.0,0.0,0.0,0.0,2.3812,2.58,2.7923,2.6052,2.5879,0.0,0.0,2.2352,2.3112,2.6054,2.9509,3.2634,3.0175,0.0,0.0,0.0,3.164,3.2746,3.4881,0.0,0.0,0.0,3.2416,3.1816,3.2276,3.2773,3.4354,3.9714,4.2282,4.5835,5.5943,6.3359,7.0245,7.8232,8.6689,9.3971,9.8089,10.0992,10.3115,10.42,10.4583,10.5091,10.6199,10.5301,10.4523,10.4732,10.3236,10.2704,10.4474,10.4798,10.5394,10.6934,10.8595,10.9623,10.9623,10.9513,10.947,10.947,10.8118,10.7103,10.69,10.5919,10.5208,10.47,10.47,10.47,10.47,10.4396,10.4295,10.4295,10.4125,10.4023,10.4023,10.4193,10.4904,10.5884,10.692,10.9005,11.1476,11.198,11.4129,11.6777,11.7071,11.7388,11.7608,0.0,0.0,0.0,0.0,0.0,0.0,0.0,0.0,0.0,0.0,0.0,0.0,0.0,0.0,0.0,1.749,1.7662,1.7756,1.7996,1.7995,1.8156,1.8477,1.849,1.8624,1.889,1.9199,1.8918,1.8009,0.0,0.0,0.0,0.0,2.5893,2.8364,2.576,2.6213,2.8815,2.7589,2.6814,2.6646,3.0489,3.2824,3.4329,3.6538,3.7524,3.7778,3.8193,3.7575,3.7164,4.1335,0.0,0.0,0.0,0.0,0.0,3.2715,3.2832,3.293,0.0,0.0,0.0,4.8385,5.14,5.6842,7.4287,7.7709,8.1057,9.4511,9.7298,9.8747,10.3406,10.2698,10.2116,10.3984,10.3206,10.2608,10.3206,10.1112,9.9751,10.0501,10.3114,10.4914,10.5002,10.8093,11.0179,11.0215,10.8794,10.8016,10.7881,10.6494,10.5411,10.47,10.4599,10.4599,10.4599,10.4599,10.4599,10.4599,10.3889,10.3585,10.3517,10.2806,10.2502,10.247,10.328,10.4497,10.6016,10.7487,10.9384,11.1589,11.3098,11.4618,11.6103,11.6911,11.669,11.6103,0.0,0.0,0.0,0.0,0.0,0.0,0.0,0.0,0.0,0.0,0.0,0.0,0.0,0.0,0.0,1.8515,1.8945,1.8865,1.8049,1.7995,1.8156,1.8477,1.849,1.8624,1.889,1.8798,1.8611,1.837,1.833,1.892,2.003,2.1203,2.3073,2.5424,2.5317,2.568,2.6293,2.3407,2.3073,2.497,2.9958,3.4579,3.8679,4.053,4.5161,5.0314,4.7677,4.7793,4.9282,5.008,4.6861,4.1632,0.0,0.0,0.0,0.0,3.3743,3.375,3.3899,0.0,0.0,0.0,0.0,0.0,5.6837,6.3784,7.1936,8.2429,8.6896,9.1338,9.938,10.0782,10.1008,10.1471,10.0902,10.0393,10.0603,9.9556,9.9483,10.128,10.1798,10.3014,10.549,10.6204,10.6828,10.7779,10.7407,10.7001,10.6393,10.5005,10.3889,10.3111,10.3111,10.3111,10.3111,10.3111,10.3111,10.3111,10.2908,10.2806,10.2806,10.2603,10.2502,10.247,10.328,10.4804,10.6695,10.7708,10.9384,11.1589,11.3098,11.4618,11.5993,11.6213,11.6213,11.5993,0.0,0.0,0.0,0.0,0.0,0.0,0.0,0.0,0.0,0.0,0.0,0.0,0.0,0.0,0.0,0.0,1.9372,1.9199,1.8637,1.8223,1.8209,1.8651,1.8557,1.8624,1.889,1.8878,1.8677,1.8276,1.8317,1.8585,1.9053,2.0027,2.1483,2.33,2.3688,2.4062,2.4235,2.1683,2.1897,2.4598,3.1749,3.6729,4.0406,4.582,5.1017,5.549,5.5734,5.6489,5.7543,5.8414,5.2837,4.4763,0.0,0.0,0.0,0.0,0.0,3.4668,0.0,0.0,3.5762,3.7851,0.0,0.0,5.1476,5.7175,6.4807,7.7913,8.2821,8.7477,9.6269,9.8419,9.8927,9.9197,9.8478,9.8149,9.8987,9.782,9.7362,9.8675,9.8761,9.9849,10.2699,10.3411,10.4299,10.592,10.602,10.5715,10.4904,10.4092,10.328,10.2502,10.2198,10.1995,10.1995,10.1995,10.1995,10.1995,10.2401,10.2502,10.2502,10.2502,10.2502,10.2602,10.3577,10.4998,10.6596,10.8305,11.0312,11.2599,11.412,11.5213,11.5993,11.5993,11.5993,11.5993,0.0,0.0,0.0,0.0,0.0,0.0,0.0,0.0,0.0,0.0,0.0,0.0,0.0,0.0,0.0,0.0,1.9573,1.9265,1.9441,1.8596,1.8343,1.8876,1.8677,1.8664,1.889,1.9212,1.8971,1.8089,1.8931,1.9093,1.8611,1.9653,2.0748,2.1863,2.1609,2.1943,2.2653,2.1764,2.2707,2.5584,3.4536,3.9053,4.1541,5.176,5.6175,5.7571,6.2809,6.4082,6.3476,6.5223,5.9081,5.0204,4.7141,0.0,0.0,0.0,3.5787,0.0,0.0,0.0,0.0,3.9023,3.8633,0.0,5.1956,5.3869,5.8124,7.5289,7.9724,8.2993,9.1117,9.345,9.425,9.4709,9.4676,9.5476,9.7925,9.6114,9.4499,9.4499,9.4979,9.621,9.836,10.0312,10.2297,10.44,10.4598,10.4295,10.3618,10.3517,10.3111,10.2401,10.1722,10.1316,10.1316,10.1316,10.1284,10.1386,10.213,10.2502,10.2502,10.2502,10.2599,10.2787,10.4112,10.5199,10.6489,10.9112,11.1479,11.3591,11.51,11.5699,11.5699,11.5699,11.5699,11.5699,0.0,0.0,0.0,0.0,0.0,0.0,0.0,0.0,0.0,0.0,0.0,0.0,0.0,0.0,0.0,0.0,0.0,2.0699,0.0,0.0,1.877,1.889,1.8836,1.8836,1.889,1.9212,1.9187,1.873,1.889,1.9078,1.9227,1.9455,2.007,2.0967,2.09,2.11,2.1523,2.2739,2.532,2.9052,3.4846,4.1354,4.8502,5.6766,6.3547,6.8774,6.9929,7.0773,7.058,6.5729,6.1226,5.619,4.7862,4.4791,4.3187,3.7964,3.8136,0.0,0.0,0.0,0.0,3.7676,3.8867,0.0,4.1275,4.2736,4.6693,5.6741,5.9435,6.2885,7.2352,7.6644,7.8498,7.7733,8.3745,9.0483,9.6177,9.5127,9.378,9.378,9.3457,9.4392,9.7437,9.8667,10.0481,10.3592,10.3787,10.382,10.3585,10.3009,10.2401,10.1589,10.0811,10.0407,10.0407,10.0407,10.0777,10.1386,10.213,10.2502,10.2502,10.2502,10.31,10.4194,10.449,10.6409,10.9408,10.9979,11.0793,11.1904,11.3492,11.4107,11.4107,11.4107,11.4107,11.4217,0.0,0.0,0.0,0.0,0.0,0.0,0.0,0.0,0.0,0.0,0.0,0.0,0.0,0.0,0.0,0.0,0.0,0.0,0.0,0.0,1.889,1.889,1.9065,1.9212,1.9359,1.9388,1.9388,1.9359,1.9212,1.9292,1.9586,1.9733,1.996,2.0254,2.0695,2.0655,2.0347,2.201,2.5235,2.9894,3.6989,4.357,5.0051,5.8888,6.5362,6.9914,7.1345,7.2983,7.3551,6.7954,6.2804,5.7799,5.2605,4.8824,4.5683,4.2512,4.223,4.2168,3.8608,3.7617,3.7773,3.8437,3.8906,0.0,0.0,4.2395,4.526,5.3552,5.5782,5.8432,6.5589,6.8946,7.1088,7.2437,7.8525,8.3868,8.6214,9.0345,9.2972,9.2643,9.2015,9.3017,9.6704,9.7402,9.9177,10.2783,10.3077,10.3077,10.3077,10.2401,10.1792,10.1386,9.9897,9.9288,9.966,9.9288,9.9491,10.0301,10.1386,10.2027,10.1993,10.3121,10.3891,10.4728,10.6212,10.7886,10.9712,11.0415,11.0907,11.1391,11.3014,11.3593,11.3593,11.3593,11.3593,11.3703,0.7858,0.0,0.0,0.0,0.0,0.0,0.0,0.0,0.0,0.0,0.0,0.0,0.0,0.0,0.0,0.0,0.0,0.0,0.0,0.0,1.9531,1.8771,1.9199,1.9481,1.9452,1.9481,1.9562,1.972,1.9562,1.9599,1.9893,2.009,2.0144,2.0124,2.137,2.1206,2.0033,2.1911,2.5804,3.1431,3.943,4.5388,5.056,6.0125,6.5791,6.9134,7.1838,7.3965,7.4752,6.9822,6.417,5.88,5.6362,5.24,4.8274,4.628,4.6023,4.528,4.0489,3.9121,3.918,3.9746,3.9648,4.0312,0.0,0.0,0.0,5.2697,5.4492,5.5998,5.9642,6.1687,6.3882,6.7081,7.2301,7.5423,7.3932,8.2286,8.8505,8.8315,8.921,9.1101,9.4226,9.4678,9.6915,10.2075,10.0969,10.0802,10.2402,10.1792,10.1284,10.1214,9.9119,9.8307,9.8882,9.8307,9.8375,9.9119,10.0506,10.1316,10.1515,10.3504,10.4579,10.5192,10.7783,10.9196,10.9487,11.0709,11.1221,11.1295,11.2616,11.3093,11.3093,11.3093,11.3093,11.3189,0.7993,0.8153,0.0,0.0,0.0,0.0,0.0,0.0,0.0,0.0,0.0,0.0,0.0,0.0,0.0,0.0,0.0,0.0,2.4291,0.0,0.0,1.8251,1.9143,1.9265,1.8237,1.9225,1.9639,1.9441,1.9639,1.9907,2.0157,2.0184,2.0464,2.1065,2.3781,2.3789,2.1907,2.5177,3.0732,3.7614,4.0748,4.6401,5.3788,6.1786,6.8179,7.3201,7.5509,7.6483,7.5657,6.8857,6.5611,6.278,5.3322,5.3859,5.6017,4.5856,4.7166,5.0375,4.3355,4.2226,4.2539,4.043,4.2363,4.395,4.0694,0.0,4.2586,4.2432,0.0,4.2821,4.3718,0.0,0.0,4.9695,5.7818,6.3969,6.3939,6.9893,7.4776,7.6193,8.2728,8.7105,8.7004,8.773,9.2171,10.1773,9.567,9.4715,10.2102,10.1792,10.1081,10.0405,9.8815,9.8037,9.8138,9.8037,9.8375,9.9119,9.9965,10.0709,10.1515,10.2885,10.4697,10.6611,10.8291,10.9714,11.0984,11.1081,11.1221,11.1199,11.1405,11.1515,11.1515,11.1515,11.1515,11.1588,0.8153,0.8253,0.8464,0.0,0.0,0.0,0.0,0.0,0.0,0.0,0.0,0.0,0.0,0.0,0.0,0.0,0.0,2.8102,0.0,0.0,0.0,0.0,2.012,2.0241,1.9573,1.988,2.008,2.0151,1.9907,2.004,2.0494,2.0494,2.0628,2.1047,2.4642,2.5786,2.5166,2.7115,3.1327,3.6888,3.9397,4.5573,5.4057,6.1324,6.7816,7.3495,7.6681,7.7637,7.6633,7.1691,6.6756,6.2428,6.1366,5.7464,5.288,5.13,5.0262,4.8405,4.262,4.3899,4.5943,4.1994,4.4201,0.0,4.2033,0.0,4.1016,4.1211,0.0,0.0,0.0,0.0,0.0,0.0,5.2344,5.6874,5.5473,6.3622,7.0407,7.2147,7.5154,7.9105,8.4306,8.5213,8.9303,9.8567,9.2862,9.2115,9.9501,9.9999,9.9897,9.9559,9.8138,9.7563,9.8003,9.7563,9.7732,9.8476,9.9221,9.9728,10.0195,10.3308,10.5309,10.6307,10.9089,11.0604,11.1221,11.1221,11.1221,11.1221,11.1221,11.1221,11.1221,11.1221,11.1221,11.1199,0.8308,0.8321,0.8457,0.8968,1.0787,0.0,0.0,0.0,0.0,0.0,0.0,0.0,2.7535,2.8739,3.0361,3.2613,3.3146,3.2163,0.0,0.0,2.6131,0.0,2.1235,2.1244,2.1581,2.0598,2.0227,2.0441,2.0013,2.0187,2.094,2.0779,2.0873,2.1356,2.5362,2.7667,2.86,3.0373,3.4305,3.9549,4.1493,4.7646,5.648,6.3535,6.9496,7.4424,7.7251,7.8038,7.7059,7.3045,6.7766,0.0,6.6088,6.0869,5.418,5.6668,5.4996,5.1024,4.4798,4.6554,4.8879,4.334,4.4825,0.0,0.0,0.0,0.0,4.168,4.1484,0.0,0.0,0.0,4.1412,4.4192,0.0,5.061,4.9639,5.7064,6.3422,6.5701,6.7276,7.1453,7.9687,7.9016,8.2366,9.2776,8.768,8.8007,9.6936,9.8104,9.8578,9.8781,9.7935,9.7664,9.8003,9.7664,9.7664,9.8003,9.8544,9.8882,9.9244,10.3197,10.5279,10.5899,10.9407,11.0891,11.0891,11.1111,11.1111,11.0891,11.1111,11.1221,11.1221,11.1221,11.1221,11.1221,0.8417,0.8389,0.8396,0.8669,1.0655,1.379,1.8477,0.0,0.0,2.4969,2.4999,2.5653,2.8283,3.375,3.7203,3.7085,4.2376,4.2155,3.3676,0.0,3.0262,0.0,0.0,2.195,2.3762,2.1189,1.9813,1.9826,1.9813,2.0418,2.1542,2.098,2.1283,2.2499,2.6364,2.9419,3.2023,3.6088,4.2322,4.9458,4.9651,5.4815,6.3186,7.0509,7.5032,7.7561,7.7661,7.7712,7.6783,7.0908,6.8661,0.0,0.0,0.0,6.5395,6.018,6.1616,6.2687,5.2454,0.0,0.0,4.4133,0.0,0.0,0.0,0.0,4.3242,0.0,0.0,4.2677,4.1445,4.082,4.1175,0.0,4.3331,0.0,0.0,4.8092,4.9631,5.3064,5.9372,6.5532,7.0921,6.5866,6.8607,8.4044,7.8219,8.0362,9.5089,9.6548,9.7292,9.8003,9.8679,9.8713,9.8003,9.8679,9.8679,9.8003,9.8037,9.8409,9.921,10.2113,10.4314,10.5899,10.8789,11.001,11.0083,11.0891,11.0707,11.0083,11.0891,11.1221,11.1221,11.1221,11.1221,11.1221,0.8457,0.8396,0.8355,0.8526,0.9298,1.1521,1.6366,1.8461,2.2033,2.9042,3.036,3.2616,3.791,4.037,4.268,4.5284,4.6423,4.4384,3.8258,3.6627,3.3746,2.8912,2.5144,2.416,2.6302,2.3006,2.0962,2.0418,2.0418,2.082,2.1582,2.1149,2.159,2.2916,2.6704,3.1431,3.6618,3.8251,4.2836,4.9213,5.1461,5.6679,6.3781,6.9511,7.2635,7.4244,7.678,7.7712,0.0,7.4963,7.1565,6.8562,6.9837,6.6196,6.1752,6.3305,6.2585,6.0491,0.0,0.0,6.0387,4.9932,0.0,0.0,0.0,0.0,0.0,0.0,0.0,4.2519,4.207,4.0703,0.0,0.0,0.0,4.2614,0.0,4.7408,4.9512,5.1047,5.6233,6.0736,6.3315,6.3421,6.8074,7.9691,7.7547,8.0502,9.1508,9.374,9.5263,9.6514,9.7258,9.7766,9.8003,9.824,9.824,9.8003,9.8003,9.8138,9.8499,10.1896,10.3995,10.5208,10.8485,10.9995,11.0105,11.0891,11.0707,11.0105,11.0891,11.1221,11.1221,11.1221,11.1221,11.1405,0.8512,0.8396,0.8376,0.8601,0.9321,1.1244,1.5279,1.8596,2.3562,3.1757,3.4022,3.7379,4.394,4.5915,4.7893,5.0708,5.1037,4.8126,4.1189,4.1064,3.8701,3.3058,3.0444,2.9964,3.1822,2.7019,2.3946,2.2865,2.1729,2.1529,2.2211,2.155,2.1984,2.3351,2.6146,3.1967,3.9735,4.0828,4.5669,5.268,5.3889,5.774,6.3144,6.6806,6.9913,7.268,0.0,7.7411,7.736,7.7009,7.4267,7.156,7.4559,7.0459,6.5077,6.8039,6.6875,6.4097,6.1587,6.4239,0.0,5.5859,5.6302,0.0,4.7465,0.0,4.5849,0.0,0.0,0.0,0.0,0.0,0.0,0.0,0.0,4.1142,0.0,4.6981,4.9364,4.9515,5.2909,5.606,5.8162,5.8571,6.2651,7.2177,7.3086,7.6915,8.5554,9.0293,9.3571,9.5364,9.6616,9.7529,9.8003,9.8273,9.8273,9.8003,9.8003,9.8003,9.8095,10.1484,10.3393,10.4392,10.8012,10.9606,10.9701,11.0781,11.0707,11.0105,11.0891,11.1221,11.1221,11.1221,11.1221,11.1405,0.854,0.8423,0.8511,0.8968,1.0739,1.2947,1.5535,1.9715,2.5407,3.3243,3.6102,3.9995,4.662,5.0579,5.2989,5.3494,5.6253,5.3491,4.2915,4.6103,4.5049,3.7564,3.786,3.8766,3.9869,3.2783,2.8393,2.7,2.368,2.2485,2.3292,2.2171,2.2385,2.383,2.4997,3.1166,4.0866,4.3368,5.0215,5.9187,5.6841,5.82,6.1765,6.3384,6.7597,7.3012,7.583,7.6833,7.6833,7.6833,7.6531,7.6104,7.6104,7.5703,7.5027,7.3996,7.4071,7.3237,6.7533,6.678,6.6363,6.1509,6.0273,0.0,0.0,0.0,5.1263,0.0,0.0,0.0,0.0,0.0,0.0,0.0,0.0,3.9907,4.2867,4.6477,4.8592,4.7983,4.9314,5.1602,5.503,5.1531,5.2916,6.2336,6.5107,6.9969,7.8368,8.6369,9.1894,9.4586,9.6751,9.7935,9.8003,9.8772,9.8803,9.8126,9.812,9.815,9.8239,10.0999,10.2594,10.3592,10.7199,10.8688,10.8909,11.0487,11.0707,11.0105,11.0891,11.1221,11.1221,11.1221,11.1221,11.1295,0.852,0.8839,0.9603,1.1094,1.233,1.387,1.6094,2.0609,2.7472,3.7835,4.2044,4.7236,5.5503,5.8136,5.9108,5.8574,5.9001,5.6662,5.0442,5.0365,4.9303,4.6466,4.3173,4.2285,4.4156,3.5967,3.1128,2.9995,2.5087,2.3027,2.3669,2.2432,2.2432,2.3514,2.5117,2.972,3.6399,3.9003,4.5241,5.3556,5.5326,5.8249,6.2018,6.6558,6.9848,7.2387,7.526,7.633,7.633,7.633,7.623,7.6104,7.6104,7.6004,7.5703,7.5025,7.5201,7.5229,7.3269,7.3223,7.2464,6.6837,6.5393,6.3914,0.0,0.0,0.0,0.0,0.0,0.0,0.0,0.0,0.0,3.9591,4.1135,4.2835,4.3241,4.6477,4.8592,4.7983,4.8284,4.875,4.9283,5.108,5.5719,6.4206,6.3555,6.9181,8.3916,8.2968,8.562,9.3643,9.5499,9.6886,9.8003,9.9218,9.9738,9.956,10.0008,10.0186,10.0302,10.1401,10.2694,10.4204,10.6188,10.7697,10.8909,10.99,11.0193,11.0105,11.0891,11.1221,11.1221,11.1221,11.1221,11.1295,0.8682,0.932,1.0487,1.2422,1.6013,1.9388,2.1707,2.3812,2.9112,4.0128,4.4706,4.946,5.6008,6.0185,6.2226,6.1367,6.0898,5.8476,5.3436,5.4308,5.361,5.0306,4.9252,4.8829,4.9109,4.2063,3.6884,3.3848,2.8499,2.531,2.4128,2.2926,2.2846,2.3781,2.5329,2.9212,3.515,4.3241,4.937,5.4094,5.8935,6.2903,0.0,6.9141,7.1843,7.4204,7.5609,7.6104,7.6104,7.6104,7.6104,7.6104,7.6104,7.6104,7.6029,7.5678,7.5804,7.6029,7.5678,7.5829,7.5306,7.1949,7.0947,6.9298,6.3606,6.2542,6.199,0.0,5.7472,5.5543,0.0,0.0,0.0,4.013,4.2113,4.4176,4.4453,4.6989,4.8492,4.7626,4.755,4.7324,4.6798,4.8681,5.2581,5.8957,5.8697,6.2593,7.2565,7.6565,8.1623,8.832,9.1018,9.4482,9.8864,9.771,9.8241,10.049,10.08,10.0811,10.0482,10.1486,10.2578,10.3898,10.559,10.711,10.8416,10.9496,10.9995,11.0105,11.0891,11.1417,11.1789,11.1789,11.1789,11.1805,0.8973,0.9997,1.147,1.3511,2.0095,2.6378,3.032,2.9708,3.2401,4.2446,4.6766,5.0235,5.3844,5.9937,6.3457,6.2657,6.207,5.9667,5.4724,5.7902,5.7569,5.2214,5.5156,5.5996,5.4055,4.8775,4.3359,3.7845,3.2434,2.7968,2.4466,2.338,2.3375,2.4262,2.5503,2.9288,3.5689,4.9443,5.5776,5.7201,6.4116,6.8763,7.1488,7.1452,7.3648,7.6757,7.628,7.6104,7.6104,7.6104,7.6104,7.6104,7.6104,7.6104,7.6104,7.6104,7.6104,7.6104,7.6104,7.6104,7.6104,7.6104,7.5703,7.4038,6.9276,6.7516,6.5753,6.1572,5.8874,5.7217,0.0,0.0,4.4337,4.1566,4.3231,4.5427,4.7036,4.9095,4.9798,4.8038,4.7754,0.0,4.6175,4.5723,4.7308,5.1713,5.2527,5.4318,5.7739,7.0013,7.8917,8.3198,8.7047,9.2158,9.8593,9.6016,9.6482,9.9843,10.1,10.1095,10.0383,10.1577,10.2614,10.3479,10.5289,10.6691,10.7719,10.9004,10.9679,11.0105,11.0891,11.1689,11.2509,11.2509,11.2719,11.2814,0.9483,1.1194,1.3322,1.5452,2.0555,2.8,3.8841,4.1137,4.401,5.0526,5.422,5.7783,6.1808,6.3433,6.4023,6.3515,6.2774,6.166,6.0341,6.061,6.0063,5.8271,5.8547,5.8203,5.7163,5.0755,4.5038,4.0022,3.317,2.7769,2.3901,2.3228,2.3375,2.4262,2.5678,2.9888,3.6327,4.2335,4.8768,5.5494,6.301,6.7975,7.1182,7.4071,7.5608,7.623,7.6129,7.6104,7.6104,7.6104,7.6104,7.6104,7.6104,7.6104,7.6104,7.6104,7.6104,7.6104,7.6104,7.6104,7.6104,7.6104,7.6029,7.5529,7.4136,7.364,7.292,7.0752,6.8874,6.6025,6.0597,0.0,0.0,4.3471,4.6441,4.998,5.3418,5.6936,5.7327,5.2244,5.1243,4.9374,4.5292,4.5271,4.7983,5.4022,4.8994,5.3276,7.0853,7.0126,7.5659,8.9876,9.354,9.382,9.087,9.8515,9.9466,9.3841,10.1003,10.402,10.3217,10.3409,10.3991,10.4686,10.4494,10.5589,10.7609,10.7205,10.8175,11.0105,11.0891,11.1689,11.2509,11.2509,11.3389,11.4603,1.0258,1.2153,1.4928,1.8577,2.4785,3.2905,4.3555,4.877,5.1977,5.3427,5.5468,5.7574,5.9377,6.3013,6.4941,6.4082,6.3633,6.3105,6.2402,6.1777,6.125,6.0801,6.0156,5.9414,5.861,5.4076,4.8182,4.0965,3.5808,3.0115,2.3981,2.3701,2.3875,2.4553,2.7701,3.155,3.6344,4.583,5.2995,5.879,6.8203,7.2918,7.4511,7.6283,7.6607,7.6104,7.6104,7.6104,7.6104,7.6104,7.6104,7.6104,7.6104,7.6104,7.6104,7.6104,7.6104,7.6104,7.6104,7.6104,7.6104,7.6104,7.5677,7.5126,7.4875,7.4299,7.3954,7.4027,7.2708,6.959,6.3359,5.4735,0.0,0.0,5.0429,5.1702,5.813,6.0423,6.0218,5.7012,5.4021,5.1152,4.8481,4.6293,4.6093,4.8624,4.5719,4.9573,6.2823,6.5778,7.2616,8.4768,8.9354,9.2779,9.5261,9.8217,9.9655,9.9614,10.3299,10.4687,10.388,10.388,10.432,10.5107,10.4724,10.5495,10.7021,10.7498,10.8578,11.0105,11.0891,11.2004,11.3199,11.3199,11.4319,11.5702,1.2273,1.448,1.7731,2.2502,2.9377,3.7017,4.5296,5.2332,5.659,5.6254,5.7061,5.7664,5.7684,6.2674,6.5703,6.4785,6.4492,6.4023,6.334,6.2402,6.1836,6.1836,6.1015,6.0215,5.9473,5.6914,5.1258,4.2358,3.8545,3.2759,2.5253,2.4476,2.4719,2.5998,2.995,3.3862,3.8267,5.1557,5.9312,6.3441,7.3624,7.7762,7.7862,7.7611,7.6984,7.6255,7.6154,7.6104,7.6104,7.6104,7.6104,7.6104,7.6104,7.6104,7.6104,7.6104,7.6104,7.6104,7.6104,7.6104,7.6104,7.6104,7.5327,7.4523,7.4297,7.3468,7.3121,7.4628,7.3785,7.1065,6.5377,5.9502,0.0,0.0,5.4747,5.4744,6.1155,6.3341,6.3621,6.1788,5.6851,5.3322,5.2607,4.7186,4.3784,4.3901,4.5222,4.8613,5.451,6.2233,7.0214,7.8366,8.3399,8.9425,9.6539,9.6921,9.9405,10.4107,10.4997,10.4887,10.421,10.432,10.4798,10.5422,10.5201,10.5495,10.6192,10.7881,10.8982,10.9811,11.0785,11.2319,11.3907,11.4087,11.5182,11.6389,1.6781,1.9959,2.3504,2.7304,3.19,3.7153,4.3194,4.9854,5.6567,6.3012,6.3995,6.4501,6.5669,6.5738,6.5762,6.5973,6.5,6.4258,6.4199,6.2988,6.2305,6.2305,6.1484,6.0801,6.0332,5.7793,5.3,4.5889,4.0152,3.4372,2.867,2.5363,2.5968,2.9826,3.1427,3.6685,0.0,5.4226,6.1489,6.739,7.4766,7.7988,7.834,7.7335,7.6883,7.6733,7.628,7.6104,7.6104,7.6104,7.6104,7.6104,7.6104,7.6104,7.6104,7.6104,7.6104,7.6104,7.6104,7.6104,7.6104,7.6104,7.5603,7.4851,7.3895,7.3192,7.2893,7.3625,7.3578,7.1773,6.6438,6.3653,6.0355,0.0,5.942,6.319,6.1771,6.8533,7.1584,6.6044,6.0347,5.6521,5.5667,4.6653,4.256,4.6587,5.0849,5.581,6.1703,6.3978,6.9149,7.806,8.1618,8.2802,8.1621,9.5497,10.05,9.6601,10.3197,10.5789,10.4997,10.5789,10.6192,10.6192,10.5401,10.5107,10.5422,10.7,10.8196,10.909,11.0716,11.24,11.401,11.4813,11.5689,11.6484,2.2231,2.4632,2.7534,3.1265,3.4476,3.8762,4.5458,5.0853,5.6177,6.1794,6.44,6.5996,6.6797,6.6582,6.6328,6.6211,6.5762,6.5351,6.5078,6.4375,6.3789,6.3555,6.2695,6.1875,6.1191,5.8945,5.4455,4.7851,4.1869,3.595,3.0161,2.8272,2.992,3.4571,3.8022,4.2303,4.7537,5.7773,6.4258,6.833,7.538,7.8139,7.7988,7.7536,7.6959,7.6406,7.6179,7.6104,7.6104,7.6104,7.6104,7.6104,7.6104,7.6104,7.6104,7.6104,7.6104,7.6104,7.6104,7.6104,7.6029,7.5653,7.5151,7.4448,7.3343,7.264,7.2752,7.4616,7.6229,7.6379,7.344,6.8688,6.5528,6.67,6.5715,6.589,6.9085,7.2646,7.2222,6.4961,5.937,5.5599,5.4249,4.4845,4.1329,4.739,4.731,4.9721,5.5969,6.1777,6.6906,7.1375,8.3009,8.8019,8.5589,9.7704,10.3492,10.279,10.5711,10.6727,10.5899,10.6192,10.6376,10.6397,10.6009,10.5899,10.6009,10.7587,10.8819,10.971,11.1385,11.3111,11.4716,11.5112,11.5792,11.6495,2.7342,2.9228,3.1828,3.5547,3.8295,4.1866,4.7583,5.2826,5.7284,6.0556,6.4155,6.6523,6.6879,6.6938,6.6758,6.6445,6.6289,6.6094,6.582,6.5117,6.4668,6.4492,6.3377,6.2539,6.1894,5.9922,5.6263,5.0874,4.5049,3.9718,3.4859,3.3257,3.5129,3.9887,4.3787,4.7309,5.096,6.1101,6.6536,6.8898,7.5768,7.8189,7.7687,7.7511,7.6984,7.633,7.6154,7.6104,7.6104,7.6104,7.6104,7.6104,7.6104,7.6104,7.6104,7.6104,7.6104,7.6104,7.6104,7.6104,7.6004,7.5578,7.495,7.4121,7.2944,7.2188,7.2186,7.4083,7.6323,7.7595,7.6454,7.1574,6.8705,7.1731,0.0,6.781,7.1077,7.3321,7.1639,6.357,5.8324,5.5172,5.4712,4.5805,4.3375,5.1433,4.8516,4.8817,5.447,6.0983,6.595,6.9005,8.2207,8.9126,8.8897,9.844,10.469,10.7609,10.7388,10.689,10.6376,10.6376,10.6486,10.6706,10.6486,10.6486,10.678,10.7697,10.8697,10.9901,11.1506,11.3307,11.4895,11.5379,11.5993,11.6495,3.184,3.4064,3.6739,4.0554,4.3787,4.6599,4.8781,5.5288,6.0243,6.0911,6.4439,6.6875,6.6938,6.6938,6.6938,6.6875,6.6465,6.6211,6.6211,6.5,6.4492,6.488,6.3281,6.2422,6.2363,6.0683,5.848,5.5826,5.0188,4.6369,4.428,0.0,4.1366,4.5773,4.7291,5.0899,5.6293,6.4038,6.7972,6.9604,7.5958,7.8189,7.7637,7.7084,7.6883,7.6783,7.6305,7.6104,7.6104,7.6104,7.6104,7.6104,7.6104,7.6104,7.6104,7.6104,7.6104,7.6104,7.6104,7.6104,7.6104,7.6104,7.5226,7.4121,7.2944,7.1887,7.1115,7.1057,7.2368,7.3384,7.2668,7.1495,6.9081,6.4246,0.0,6.9904,6.439,6.9575,7.0929,6.2854,5.8104,5.6376,5.8605,5.0817,4.9898,6.0276,5.8053,5.7854,6.159,6.3056,6.698,7.3882,7.773,8.2141,8.7359,9.6278,10.3093,10.7609,10.6801,10.6376,10.6376,10.6376,10.678,10.7498,10.6706,10.6911,10.7498,10.6706,10.7405,10.9007,11.0692,11.241,11.411,11.5792,11.6484,11.6495,4.0166,4.1791,4.3841,4.8,4.9893,5.1306,5.2752,5.7203,6.0641,6.1354,6.4609,6.6938,6.6938,6.6938,6.6938,6.6938,6.6738,6.6703,6.6703,6.6289,6.5879,6.541,6.4316,6.3398,6.2812,6.1075,5.9394,5.766,5.2426,4.8638,4.6243,4.5437,4.731,5.1478,5.3134,5.5447,5.8603,6.5238,6.8644,7.0001,7.5662,7.7637,7.7109,7.6933,7.6682,7.633,7.6179,7.6104,7.6104,7.6104,7.6104,7.6104,7.6104,7.6104,7.6104,7.6104,7.6104,7.6104,7.6104,7.6104,7.5928,7.5126,7.4674,7.392,7.2037,7.1327,7.0914,7.0462,7.1664,7.2628,7.1993,7.2353,7.2082,7.0097,7.2102,7.3167,7.0889,6.8569,6.4463,5.7415,5.105,4.8925,5.3166,4.7608,4.7083,5.5191,5.1983,5.2812,6.0027,6.6138,6.9142,6.8563,8.117,8.7456,8.639,9.7333,10.3891,10.5899,10.678,10.689,10.6376,10.6376,10.678,10.7609,10.6706,10.6911,10.7609,10.7315,10.8212,10.9909,11.1,11.2789,11.4912,11.5493,11.5995,11.6495,4.4254,4.5533,4.7313,5.1576,5.383,5.5385,5.6577,5.9946,6.2638,6.3245,6.5391,6.6938,6.6938,6.6938,6.6938,6.6938,6.6938,6.6938,6.6938,6.6762,6.6328,6.5644,6.4609,6.373,6.3047,6.1308,5.9924,5.9004,5.487,5.1987,5.0409,5.0673,5.2482,5.5527,5.6758,5.8086,5.975,6.4919,6.7905,6.9524,7.4184,7.6278,7.6607,7.6607,7.6406,7.6104,7.6104,7.6104,7.6104,7.6104,7.6104,7.6104,7.6104,7.6104,7.6104,7.6104,7.6104,7.6104,7.6104,7.5953,7.5578,7.49,7.4247,7.3192,7.0983,7.0114,6.9618,6.9048,6.9372,6.9668,6.9307,6.9616,7.0318,7.1445,7.1985,7.1697,7.0011,6.5923,6.0614,5.3712,4.9255,4.8767,5.3917,5.1581,5.2743,5.9918,5.8346,6.0066,6.7036,6.8455,7.0246,7.2847,8.5243,9.108,8.9483,9.8163,10.3403,10.5107,10.6192,10.6617,10.6376,10.6082,10.6486,10.7609,10.6706,10.6911,10.7609,10.7315,10.8007,10.9278,11.0477,11.2304,11.4404,11.5098,11.5803,11.6495,4.4981,4.6149,4.7985,5.2549,5.6193,5.8904,6.0096,6.3309,6.5762,6.6211,6.6621,6.6938,6.6938,6.6938,6.6938,6.6938,6.6938,6.6938,6.6938,6.6445,6.6035,6.5586,6.4375,6.3496,6.3047,6.1309,6.0273,5.9805,5.727,5.608,5.6099,5.608,5.6777,5.8023,5.8379,5.9062,6.0052,6.3415,6.6113,6.8532,7.1875,7.4334,7.6104,7.6104,7.6104,7.6104,7.6104,7.6104,7.6104,7.6104,7.6104,7.6104,7.6104,7.6104,7.6104,7.6104,7.6104,7.6104,7.6104,7.5653,7.5177,7.5152,7.3847,7.199,6.9832,6.8528,6.7643,6.7041,6.6036,6.5283,6.5233,6.463,6.5309,6.8974,6.8455,6.6446,6.3277,6.1836,5.8594,5.183,5.1767,5.4369,5.9629,6.1006,6.448,7.1406,7.3355,7.5814,7.9533,7.0325,7.0984,8.427,8.9347,9.2991,9.5284,9.8705,10.2008,10.5107,10.5107,10.5605,10.6397,10.5495,10.6009,10.7609,10.6706,10.6911,10.7498,10.6706,10.6888,10.7813,10.9488,11.1083,11.2801,11.4499,11.5599,11.6303,4.8514,5.0011,5.2439,5.9322,6.1546,6.2816,6.4041,6.5264,6.623,6.6703,6.6816,6.6938,6.6938,6.6938,6.6938,6.6938,6.6938,6.6938,6.6938,6.6445,6.6035,6.5586,6.4375,6.3496,6.3047,6.166,6.0566,5.9805,5.8535,5.8086,5.8418,5.8066,5.8242,5.8887,5.9004,5.9512,6.0385,6.2769,6.5671,6.8905,7.1243,7.3729,7.6104,7.6104,7.6104,7.6104,7.6104,7.6104,7.6104,7.6104,7.6104,7.6104,7.6104,7.6104,7.6104,7.6104,7.6104,7.6104,7.6104,7.5653,7.5102,7.4724,7.3016,7.1008,6.918,6.8296,6.7518,6.6513,6.576,6.5157,6.4773,6.6654,6.8283,6.8341,6.6076,6.3786,6.2361,5.6899,5.2933,5.2594,5.2325,5.4831,6.166,6.3683,6.5333,6.7132,6.9154,7.177,7.5075,7.3764,7.6741,8.5263,9.0199,9.3274,9.4491,9.8959,10.2485,10.5107,10.5107,10.5605,10.6397,10.5495,10.6009,10.7609,10.6706,10.6911,10.7498,10.6706,10.6888,10.7701,10.8777,11.0211,11.1809,11.2913,11.3907,11.4599,5.0191,5.2625,5.5709,6.1941,6.3398,6.4162,6.541,6.5937,6.6387,6.6816,6.6938,6.6938,6.6938,6.6938,6.6938,6.6938,6.6938,6.6938,6.6938,6.6445,6.5937,6.5293,6.4258,6.3398,6.2754,6.166,6.0742,6.0098,5.9572,5.9414,5.9473,5.9238,5.9238,5.9473,5.9473,5.9824,6.0467,6.1809,6.4904,6.9129,7.0359,7.323,7.6783,7.6581,7.6481,7.6456,7.6205,7.6104,7.6104,7.6104,7.6104,7.6104,7.6104,7.6104,7.6104,7.6104,7.6104,7.6104,7.6104,7.5477,7.45,7.3217,7.161,6.9978,6.8572,6.7819,6.7166,6.6287,6.5484,6.4873,6.4572,6.617,6.7588,6.7873,6.4145,6.1365,6.184,5.5368,5.2071,5.6203,5.6612,5.9655,6.7508,6.9672,7.1213,7.2664,7.4498,7.6641,7.9109,8.0539,8.3429,8.8073,9.1649,9.4515,9.6654,10.0998,10.3806,10.5107,10.5107,10.5605,10.6397,10.5495,10.5789,10.7021,10.6617,10.6596,10.7021,10.6617,10.6703,10.7198,10.8401,10.9514,11.0383,11.1684,11.2483,11.2906,5.1368,5.4552,5.7926,6.2278,6.3496,6.4258,6.541,6.5996,6.6445,6.6879,6.6938,6.6938,6.6938,6.6938,6.6938,6.6938,6.6938,6.6938,6.6938,6.6387,6.5762,6.4938,6.4082,6.3223,6.2422,6.1543,6.0898,6.049,6.0431,6.0216,5.9865,5.9865,5.9865,5.9865,5.9865,6.0099,6.0547,6.0859,6.4202,6.9255,6.9482,7.287,7.7637,7.7084,7.6883,7.6858,7.6305,7.6104,7.6104,7.6104,7.6104,7.6104,7.6104,7.6104,7.6104,7.6104,7.6054,7.5978,7.5978,7.505,7.3669,7.161,7.0255,6.9105,6.8045,6.7292,6.6689,6.6112,6.5107,6.4396,6.4396,6.493,6.554,6.6144,6.1465,5.8313,6.0002,5.4727,5.3227,6.0227,6.2568,6.6561,7.3973,7.6214,7.8418,8.1322,8.2902,8.4449,8.6041,8.7313,8.915,9.166,9.338,9.6159,10.0012,10.3382,10.5107,10.5107,10.5107,10.5605,10.6397,10.5495,10.5605,10.6376,10.6376,10.6376,10.6397,10.6491,10.6601,10.6695,10.8382,10.8996,10.9111,11.0686,11.1203,11.1098,5.4419,5.6542,5.8529,6.2315,6.3965,6.488,6.5527,6.6289,6.6797,6.6875,6.6938,6.6938,6.6938,6.6938,6.6938,6.6938,6.6938,6.6938,6.6938,6.6113,6.5469,6.4941,6.3729,6.2871,6.2422,6.1543,6.1035,6.0976,6.0605,6.039,6.0332,6.0332,6.0332,6.0332,6.0332,6.0566,6.0976,6.0664,6.4002,6.9572,6.929,7.2617,7.7637,7.7084,7.6883,7.6858,7.6305,7.6104,7.6104,7.6104,7.6104,7.6104,7.6104,7.6104,7.6104,7.6104,7.5728,7.5328,7.5328,7.4197,7.269,7.141,7.0255,6.9105,6.8045,6.699,6.6086,6.5534,6.4555,6.3802,6.3802,6.5804,6.5484,5.9574,5.512,5.2425,5.258,5.0838,5.257,6.0769,6.7585,7.2767,7.574,7.8705,8.1172,8.2856,8.4473,8.608,8.7583,8.7888,9.0018,9.4517,9.4926,9.7399,10.2181,10.4106,10.5107,10.5107,10.5107,10.5605,10.6397,10.5495,10.5605,10.6376,10.6376,10.6376,10.6497,10.7113,10.7423,10.7588,10.9303,10.9497,10.8996,10.9995,10.9906,10.929,5.3367,5.7332,6.0723,6.2652,6.3846,6.4824,6.5488,6.6113,6.6621,6.6879,6.6938,6.6938,6.6938,6.6938,6.6938,6.6938,6.6938,6.6938,6.6938,6.6055,6.541,6.4941,6.3904,6.3047,6.2422,6.1796,6.1426,6.1426,6.1192,6.1015,6.0801,6.0801,6.0801,6.0801,6.0801,6.1015,6.1426,6.1191,6.458,7.0141,6.9917,7.3181,7.8088,7.7536,7.7134,7.6858,7.6305,7.6104,7.6104,7.6104,7.6104,7.6104,7.6104,7.6104,7.6054,7.5703,7.5427,7.5052,7.4523,7.3343,7.2087,7.1284,6.9803,6.8422,6.7919,6.6689,6.5584,6.5333,6.4429,6.4048,6.5117,6.643,6.5482,5.9748,5.7474,5.6464,5.6635,5.6319,5.8889,6.6381,7.1822,7.5683,7.7461,8.0493,8.3125,8.5113,8.6319,8.7448,8.8531,8.8564,9.0639,9.5162,9.7892,10.0601,10.3293,10.4483,10.529,10.5789,10.5789,10.6009,10.6376,10.6009,10.6009,10.6418,10.6905,10.6996,10.7074,10.801,10.8305,10.8408,10.9689,10.9404,10.8404,10.9194,10.8406,10.6905,5.2882,5.7549,6.1768,6.2926,6.3321,6.3903,6.5481,6.6094,6.6504,6.6879,6.6938,6.6938,6.6938,6.6938,6.6938,6.6938,6.6938,6.6938,6.6938,6.6055,6.5351,6.4763,6.3789,6.293,6.2246,6.1894,6.1719,6.1719,6.1719,6.1543,6.125,6.125,6.125,6.125,6.125,6.1426,6.1719,6.1719,6.5132,7.0499,7.0499,7.3692,7.8465,7.8063,7.7561,7.6984,7.6481,7.6305,7.628,7.6154,7.6104,7.6104,7.6104,7.6104,7.6004,7.5402,7.5002,7.4674,7.382,7.2665,7.161,7.1184,6.9426,6.7794,6.7794,6.6388,6.5107,6.5107,6.462,6.4668,6.6199,6.711,6.6004,6.1156,6.0645,6.1105,6.1602,6.1812,6.4472,7.1523,7.504,7.7433,7.8879,8.1781,8.451,8.6757,8.7414,8.8125,8.9066,8.91,9.0914,9.4914,9.9999,10.3109,10.388,10.4724,10.5495,10.6376,10.6376,10.6376,10.6376,10.6376,10.6486,10.6702,10.729,10.7682,10.8008,10.8791,10.9191,10.9312,10.9901,10.9313,10.7982,10.8213,10.6982,10.5107,5.5839,5.7466,5.9409,6.3035,6.2035,6.2012,6.5637,6.6523,6.6879,6.6938,6.6938,6.6938,6.6938,6.6938,6.6938,6.6938,6.6938,6.6938,6.6938,6.6055,6.5234,6.4375,6.2754,6.1836,6.1777,6.1719,6.1719,6.1719,6.1719,6.1719,6.166,6.166,6.166,6.166,6.166,6.166,6.1719,6.1719,6.5132,7.0499,7.0499,7.3692,7.8515,7.849,7.8114,7.7561,7.7009,7.6808,7.6782,7.628,7.6104,7.6104,7.6104,7.6104,7.6004,7.5402,7.4523,7.3694,7.3619,7.2389,7.1133,7.1083,6.9426,6.7794,6.7794,6.6112,6.4572,6.4572,6.5147,6.5687,6.5844,6.7967,6.7522,6.0994,6.0494,6.1136,6.1791,6.1908,6.485,7.2805,7.6649,7.8911,7.9675,8.2633,8.5182,8.6778,8.6974,8.7617,8.9032,8.91,9.0647,9.4087,9.9709,10.3109,10.388,10.4724,10.5495,10.6376,10.6376,10.6376,10.6376,10.6376,10.6787,10.7498,10.761,10.8114,10.8899,10.9714,11.0098,11.009,11.0207,10.9605,10.8598,10.7087,10.5982,10.4992,5.3731,5.6157,5.8438,6.0254,6.0302,6.1403,6.5264,6.6172,6.6562,6.6879,6.6938,6.6938,6.6938,6.6938,6.6938,6.6938,6.6938,6.6938,6.6938,6.6055,6.5078,6.3965,6.3047,6.2402,6.2129,6.1836,6.1719,6.1719,6.1719,6.1719,6.1719,6.1719,6.1719,6.1719,6.1719,6.1719,6.1719,6.1719,6.5132,7.0499,7.0499,7.3692,7.8515,7.8515,7.7963,7.7159,7.6959,7.6707,7.638,7.6179,7.6104,7.6104,7.6104,7.6104,7.5928,7.5,7.3946,7.3067,7.3067,7.2087,7.1083,7.1083,6.9677,6.8221,6.7869,6.6589,6.5639,6.6248,6.6378,6.7012,6.9178,7.0103,6.8828,6.3598,6.5921,6.708,6.3422,6.6624,7.0839,7.4918,7.7779,7.9938,8.118,8.331,8.5222,8.6805,8.6907,8.755,8.9032,9.1054,9.3176,9.5216,9.9161,10.1604,10.2375,10.3696,10.4798,10.5605,10.6119,10.6376,10.6397,10.6911,10.7308,10.759,10.8205,10.8598,10.8892,10.93,10.9409,10.9394,10.9397,10.8906,10.7982,10.678,10.552,10.4212,5.092,5.3797,5.6886,5.8526,5.8621,6.0135,6.5019,6.6152,6.6523,6.6879,6.6938,6.6938,6.6938,6.6938,6.6938,6.6938,6.6938,6.6938,6.6938,6.6055,6.5019,6.375,6.3262,6.2871,6.2578,6.2285,6.2129,6.2129,6.2129,6.2051,6.1933,6.207,6.1933,6.1719,6.1836,6.1836,6.1719,6.1719,6.5132,7.0499,7.0499,7.3692,7.8515,7.8515,7.7938,7.7109,7.6933,7.6682,7.633,7.6154,7.6104,7.6104,7.6104,7.5878,7.5352,7.4423,7.3494,7.2693,7.2693,7.2037,7.1309,7.1133,6.9978,6.8698,6.797,6.6915,6.645,6.7573,6.792,6.8807,7.1678,7.2153,7.1115,6.7959,7.051,7.1459,6.7342,7.0868,7.4583,7.6384,7.85,8.0438,8.2026,8.3674,8.5222,8.6805,8.6907,8.7708,8.9601,9.2255,9.4321,9.5578,9.8164,9.9916,10.0686,10.2815,10.432,10.5107,10.6009,10.6376,10.6381,10.7212,10.7682,10.7982,10.8593,10.9111,10.9312,10.9014,10.8906,10.8906,10.8598,10.8213,10.7521,10.6097,10.4905,10.3712,4.8039,5.0406,5.4177,5.8398,5.7117,5.7865,6.5111,6.6582,6.6938,6.6938,6.6938,6.6938,6.6938,6.6938,6.6938,6.6938,6.6938,6.6938,6.6875,6.6055,6.5019,6.375,6.3281,6.2968,6.2968,6.2968,6.2968,6.2968,6.2968,6.2812,6.2422,6.2812,6.2519,6.1719,6.2187,6.2129,6.1719,6.1719,6.5132,7.0499,7.0499,7.3716,7.854,7.8515,7.8189,7.7637,7.7084,7.6883,7.6783,7.628,7.6104,7.6104,7.6104,7.5301,7.4322,7.377,7.3192,7.2693,7.2693,7.2339,7.1786,7.1234,7.0255,6.9105,6.8045,6.694,6.6576,6.8205,6.9702,7.1168,7.2564,7.3945,7.4693,7.4001,7.3373,7.3163,7.3821,7.3911,7.4764,7.7033,7.8785,8.0438,8.2054,8.3674,8.5256,8.6805,8.6913,8.8136,9.0875,9.22,9.3478,9.4763,9.6814,9.83,9.9088,10.2301,10.4284,10.5107,10.6009,10.6397,10.6381,10.7212,10.8094,10.8903,10.8897,10.9387,11.0109,10.9213,10.8906,10.879,10.7982,10.7713,10.7405,10.4789,10.3905,10.3597,4.7901,4.874,5.0752,5.4899,5.5493,5.7762,6.4727,6.6406,6.6938,6.6938,6.6938,6.6938,6.6938,6.6938,6.6938,6.6938,6.6938,6.6738,6.6445,6.5879,6.5293,6.459,6.3867,6.334,6.3047,6.2968,6.2968,6.2968,6.2968,6.2909,6.2812,6.2909,6.2851,6.2637,6.2461,6.2305,6.2187,6.1836,6.5132,7.0499,7.0499,7.3981,7.9093,7.8666,7.8189,7.7637,7.7084,7.6682,7.633,7.6154,7.6104,7.6029,7.5603,7.5251,7.4751,7.387,7.3468,7.3242,7.2841,7.2568,7.2263,7.1309,7.0556,6.9627,6.8145,6.8731,6.9727,7.046,7.2154,7.3805,7.4781,7.5324,7.5527,7.5347,7.5138,7.5228,7.5856,7.5911,7.6868,7.9385,8.0136,8.1344,8.3653,8.4811,8.5858,8.6839,8.7854,8.959,9.22,9.2683,9.39,9.6047,9.7264,9.83,9.9088,10.12,10.2595,10.3382,10.4284,10.4908,10.5521,10.7006,10.7785,10.7997,10.8615,10.8399,10.7521,10.729,10.6482,10.5405,10.5713,10.5482,10.4905,10.3482,10.2981,10.2789,4.6435,4.8168,5.0389,5.1859,5.2687,5.5523,6.2522,6.4168,6.5168,6.669,6.6938,6.6938,6.6938,6.6938,6.6938,6.6938,6.6938,6.6621,6.5996,6.5879,6.5469,6.4707,6.4375,6.3965,6.3494,6.3494,6.3494,6.3494,6.3494,6.3494,6.3494,6.3494,6.3437,6.3281,6.2988,6.2833,6.2598,6.2168,6.5364,7.0768,7.0566,7.4075,7.9319,7.8741,7.8189,7.7637,7.7084,7.6581,7.6104,7.6104,7.6104,7.6004,7.5402,7.5052,7.47,7.3845,7.3418,7.3167,7.2768,7.2693,7.2467,7.1636,7.0983,7.0402,6.9571,7.0187,7.1388,7.2807,7.4146,7.5388,7.6461,7.6664,7.6574,7.6305,7.6275,7.636,7.6749,7.7382,7.8552,8.0456,8.1316,8.2491,8.4433,8.5046,8.5757,8.6839,8.826,9.0189,9.2778,9.2896,9.4079,9.6628,9.7163,9.7823,9.8631,9.9585,10.098,10.2705,10.3513,10.4326,10.5208,10.6597,10.729,10.7595,10.8216,10.7905,10.6905,10.6213,10.529,10.4405,10.4607,10.4289,10.3789,10.2904,10.2597,10.2511,4.4146,4.787,5.1366,4.9362,4.941,5.2164,5.9384,6.0912,6.2579,6.6398,6.6938,6.6938,6.6938,6.6938,6.6938,6.6938,6.6879,6.6504,6.5762,6.5996,6.5644,6.4531,6.4763,6.4763,6.4433,6.4375,6.4375,6.4375,6.4433,6.4433,6.4433,6.4375,6.414,6.3789,6.373,6.3457,6.3047,6.2578,6.5814,7.1193,7.0701,7.4075,7.9319,7.8741,7.8189,7.7637,7.7084,7.6581,7.6104,7.6104,7.6104,7.6004,7.5402,7.4876,7.4448,7.3795,7.3242,7.2818,7.2718,7.2693,7.2637,7.2368,7.186,7.1571,7.1809,7.1825,7.2515,7.5143,7.5866,7.6367,7.7599,7.7801,7.7622,7.6988,7.6868,7.6898,7.6958,7.8502,7.9901,8.0772,8.2381,8.3721,8.4615,8.4715,8.5324,8.6778,8.8192,9.012,9.2672,9.2861,9.4079,9.6628,9.6685,9.7089,9.7897,9.7916,9.9438,10.2522,10.3219,10.4113,10.5095,10.5891,10.6674,10.752,10.7609,10.7521,10.7213,10.5597,10.4905,10.4713,10.3982,10.3712,10.3597,10.2789,10.252,10.2405,4.2978,4.4105,4.5986,4.8292,4.9455,5.2431,5.9437,6.1083,6.281,6.6457,6.6938,6.6938,6.6938,6.6938,6.6938,6.6938,6.6562,6.6406,6.6582,6.6055,6.5762,6.582,6.5586,6.541,6.5312,6.4938,6.4763,6.4763,6.5137,6.5312,6.5293,6.4941,6.4704,6.4587,6.3965,6.3633,6.3515,6.2715,6.5814,7.1193,7.0701,7.4075,7.9319,7.8741,7.8189,7.7637,7.7084,7.6581,7.6104,7.6104,7.6104,7.6004,7.5402,7.5452,7.5476,7.3996,7.382,7.387,7.2919,7.2693,7.3089,7.4858,7.4866,7.4112,7.2865,7.517,7.7372,7.6569,7.772,7.8668,7.7939,7.7801,7.7771,7.7622,7.7592,7.7771,7.828,7.9873,8.1305,8.2238,8.3393,8.4456,8.5452,8.552,8.5926,8.6839,8.7719,8.9331,9.1917,9.2601,9.4079,9.6628,9.6685,9.7089,9.7897,9.7916,9.8888,10.0796,10.098,10.2194,10.4219,10.508,10.5893,10.6681,10.6688,10.5905,10.4713,10.4289,10.3405,10.2212,10.2712,10.252,10.1779,10.1712,10.1597,10.1605,4.31,4.4288,4.5629,4.6276,4.6889,4.9704,5.6989,5.8411,6.0614,6.6209,6.6938,6.6938,6.6938,6.6938,6.6938,6.6938,6.6703,6.6523,6.6562,6.6348,6.6113,6.5937,6.5879,6.582,6.5586,6.5586,6.5407,6.5234,6.5293,6.5469,6.5879,6.5234,6.4997,6.5234,6.4529,6.4082,6.3633,6.2988,6.5984,7.1193,7.0701,7.4075,7.9344,7.9043,7.8415,7.7662,7.736,7.6782,7.6104,7.6104,7.6104,7.6054,7.5728,7.5653,7.5502,7.4623,7.4222,7.3895,7.3293,7.2941,7.3255,7.5604,7.6806,7.7258,7.6532,7.7952,7.9245,7.8707,7.9493,7.9986,7.8968,7.8759,7.8669,7.834,7.828,7.84,7.8729,8.1001,8.2671,8.278,8.4412,8.5449,8.5236,8.5554,8.596,8.6332,8.7076,8.8491,9.0784,9.1834,9.3417,9.5729,9.6397,9.6906,9.7309,9.7309,9.7933,9.9164,10.031,10.168,10.3393,10.4197,10.5012,10.5806,10.5386,10.4713,10.3905,10.3482,10.2712,10.1894,10.202,10.1712,10.1279,10.1279,10.1402,10.1498,4.3491,4.5254,4.6463,4.4267,4.4008,4.6439,5.344,5.506,5.8025,6.5099,6.6539,6.6938,6.6938,6.6938,6.6938,6.6938,6.6816,6.664,6.6348,6.6582,6.6465,6.582,6.6152,6.6172,6.582,6.6152,6.6113,6.5703,6.529,6.5504,6.6328,6.5407,6.5234,6.5586,6.5117,6.447,6.375,6.3202,6.6231,7.125,7.0723,7.4028,7.9243,7.9344,7.8641,7.7561,7.7662,7.6984,7.6104,7.6104,7.6104,7.6104,7.6104,7.5753,7.5352,7.5102,7.4448,7.3694,7.3494,7.3351,7.386,7.6215,7.8495,8.0292,8.0887,8.0629,8.0425,8.0877,8.0883,8.0644,8.0075,7.9806,7.9507,7.9028,7.8878,7.8789,7.8789,8.1663,8.3547,8.2876,8.5144,8.6163,8.4749,8.5215,8.5587,8.5587,8.6298,8.7629,8.9731,9.0938,9.263,9.4859,9.5924,9.6575,9.6685,9.6685,9.7016,9.7733,10.0084,10.1694,10.2485,10.3294,10.412,10.4789,10.3982,10.3712,10.3597,10.2712,10.2404,10.2289,10.1597,10.1279,10.1279,10.1279,10.1487,10.1712,4.276,4.3312,4.3711,4.3606,4.3969,4.5845,5.0185,5.3693,5.7363,6.1736,6.5022,6.6938,6.6938,6.6938,6.6938,6.6938,6.6523,6.6445,6.6758,6.6465,6.6406,6.6699,6.6758,6.6758,6.6762,6.6758,6.6562,6.609,6.6031,6.6289,6.6821,6.5879,6.5527,6.5586,6.5117,6.4668,6.4199,6.3319,6.6359,7.1663,7.0825,7.3739,7.8691,7.9193,7.839,7.7059,7.7536,7.6984,7.6104,7.6104,7.6104,7.6104,7.6104,7.6054,7.5803,7.4799,7.4423,7.4096,7.3117,7.4237,7.6306,7.8665,8.0573,8.2248,8.3746,8.4047,8.3529,8.1983,8.1183,8.0764,8.0674,7.9716,7.9088,7.9597,7.9178,7.8789,7.8789,8.1193,8.2908,8.2812,8.4652,8.5587,8.4681,8.4681,8.4749,8.4749,8.5486,8.6989,8.9423,9.0314,9.2185,9.5296,9.5581,9.6025,9.6685,9.6685,9.6759,9.6888,9.9315,10.0918,10.1716,10.2406,10.319,10.3982,10.3212,10.2789,10.2712,10.1779,10.151,10.151,10.1279,10.1279,10.1279,10.1279,10.1487,10.1712,4.2696,4.302,4.338,4.3487,4.3888,4.5492,4.929,5.1478,5.4738,6.064,6.2837,6.4666,6.6666,6.6938,6.6938,6.6938,6.6699,6.668,6.6875,6.6699,6.668,6.6875,6.6938,6.6938,6.6938,6.6938,6.6821,6.6582,6.6328,6.6445,6.6875,6.623,6.582,6.5586,6.541,6.4785,6.3906,6.326,6.6276,7.1395,7.0768,7.3934,7.8992,7.8917,7.8264,7.7285,7.6908,7.6506,7.6104,7.6104,7.6104,7.6104,7.6104,7.6104,7.6004,7.5477,7.49,7.4561,7.5405,7.5897,7.7091,8.0752,8.2193,8.3202,8.4901,8.4983,8.4265,8.2687,8.2148,8.1818,8.1422,8.0554,7.9896,7.9799,7.9238,7.8789,7.8789,8.11,8.3213,8.4335,8.5264,8.5486,8.4681,8.4614,8.4614,8.4614,8.4945,8.6113,8.8316,8.9435,9.1358,9.435,9.5131,9.5914,9.6685,9.6685,9.6685,9.6705,9.8223,9.9589,10.0915,10.2089,10.2822,10.3097,10.2289,10.1904,10.1779,10.152,10.1279,10.1279,10.1279,10.1279,10.1279,10.1279,10.1384,10.1487]}]]